[[{"header":{"parameterUnit":"m.s-1","parameterCategory":1,"la1":30.6,"la2":29.2853,"lo1":-89.7004,"lo2":-87.6739,"dy":0.0162,"dx":0.0183,"nx":112,"ny":82,"refTime":"2024-04-05T00:00:00:Z","depth":0,"parameterNumber":2,"parameterNumberName":"U-component_of_WINDS"},"data":[0.0,0.0,0.0,0.0,0.0,0.0,0.0,0.0,0.0,0.0,0.0,0.0,0.0,0.0,0.0,0.0,0.0,0.0,0.0,0.0,0.0,0.0,0.0,0.0,0.0,0.0,0.0,0.0,0.0,0.0,0.0,0.0,0.0,0.0,0.0,0.0,0.0,0.0,0.0,0.0,0.0,0.0,0.0,0.0,0.0,0.0,0.0,0.0,0.0,0.0,0.0,0.0,0.0,0.0,0.0,0.0,0.0,0.0,0.0,0.0,0.0,0.0,0.0,0.0,0.0,0.0,0.0,0.0,0.0,0.0,0.0,0.0,0.0,0.0,0.0,0.0,0.0,0.0,0.0,0.0,0.0,0.0,0.0,0.0,0.0,0.0,0.0,0.0,0.0,0.0,-2.9197,-2.9911,-2.9006,-2.8301,-2.8301,-2.8301,-2.8301,-2.8301,0.0,0.0,0.0,0.0,0.0,0.0,0.0,0.0,0.0,0.0,0.0,0.0,0.0,0.0,0.0,0.0,0.0,0.0,0.0,0.0,0.0,0.0,0.0,0.0,0.0,0.0,0.0,0.0,0.0,0.0,0.0,0.0,0.0,0.0,0.0,0.0,0.0,0.0,0.0,0.0,0.0,0.0,0.0,0.0,0.0,0.0,0.0,0.0,0.0,0.0,0.0,0.0,0.0,0.0,0.0,0.0,0.0,0.0,0.0,0.0,0.0,0.0,0.0,0.0,0.0,0.0,0.0,0.0,0.0,0.0,0.0,0.0,0.0,0.0,0.0,0.0,0.0,0.0,0.0,0.0,0.0,0.0,0.0,0.0,0.0,0.0,0.0,0.0,0.0,0.0,0.0,0.0,0.0,0.0,0.0,0.0,0.0,0.0,0.0,0.0,0.0,0.0,0.0,0.0,-3.0927,-2.8794,-2.8441,-2.8301,-2.8301,-2.8301,-2.8301,-2.8301,0.0,0.0,0.0,0.0,0.0,0.0,0.0,0.0,0.0,0.0,0.0,0.0,0.0,0.0,0.0,0.0,0.0,0.0,0.0,0.0,0.0,0.0,0.0,0.0,0.0,0.0,0.0,0.0,0.0,0.0,0.0,0.0,0.0,0.0,0.0,0.0,0.0,0.0,0.0,0.0,0.0,0.0,0.0,0.0,0.0,0.0,0.0,0.0,0.0,0.0,0.0,0.0,0.0,0.0,0.0,0.0,0.0,0.0,0.0,0.0,0.0,0.0,0.0,0.0,0.0,0.0,0.0,0.0,0.0,0.0,0.0,0.0,0.0,0.0,0.0,0.0,0.0,0.0,0.0,0.0,0.0,0.0,0.0,0.0,0.0,0.0,0.0,0.0,0.0,0.0,0.0,0.0,0.0,0.0,0.0,0.0,0.0,0.0,0.0,0.0,0.0,0.0,0.0,-3.1235,-3.0463,-2.8495,-2.8301,-2.8301,-2.8301,-2.8301,-2.8301,-2.8301,-2.8105,0.0,0.0,0.0,0.0,0.0,0.0,0.0,0.0,0.0,0.0,0.0,0.0,0.0,0.0,0.0,0.0,0.0,0.0,0.0,0.0,0.0,0.0,0.0,0.0,0.0,0.0,0.0,0.0,0.0,0.0,0.0,0.0,0.0,0.0,0.0,0.0,0.0,0.0,0.0,0.0,0.0,0.0,0.0,0.0,0.0,0.0,0.0,0.0,0.0,0.0,0.0,0.0,0.0,0.0,0.0,0.0,0.0,0.0,0.0,0.0,0.0,0.0,0.0,0.0,0.0,0.0,0.0,0.0,0.0,0.0,0.0,0.0,0.0,0.0,0.0,0.0,0.0,0.0,0.0,0.0,0.0,0.0,0.0,0.0,0.0,0.0,0.0,0.0,0.0,0.0,0.0,0.0,0.0,0.0,0.0,0.0,0.0,0.0,0.0,0.0,0.0,0.0,-3.0748,-2.9872,-2.922,-2.881,-2.8594,-2.8594,-2.8496,-2.8437,-2.8437,-2.834,0.0,0.0,0.0,0.0,0.0,0.0,0.0,0.0,0.0,0.0,0.0,0.0,0.0,0.0,0.0,0.0,0.0,0.0,0.0,0.0,0.0,0.0,0.0,0.0,0.0,0.0,0.0,0.0,0.0,0.0,0.0,0.0,0.0,0.0,0.0,0.0,0.0,0.0,0.0,0.0,0.0,0.0,0.0,0.0,0.0,0.0,0.0,0.0,0.0,0.0,0.0,0.0,0.0,0.0,0.0,0.0,0.0,0.0,0.0,0.0,0.0,0.0,0.0,0.0,0.0,0.0,0.0,0.0,0.0,0.0,0.0,0.0,0.0,0.0,0.0,0.0,0.0,0.0,0.0,0.0,0.0,0.0,0.0,0.0,0.0,0.0,0.0,0.0,0.0,0.0,0.0,0.0,0.0,0.0,0.0,0.0,0.0,0.0,0.0,0.0,0.0,0.0,-3.2105,-3.0118,-3.1391,-3.0339,-2.9492,-2.9492,-2.9101,-2.8867,-2.8867,-2.8516,0.0,0.0,0.0,0.0,0.0,0.0,0.0,0.0,0.0,0.0,0.0,0.0,0.0,0.0,0.0,0.0,0.0,0.0,0.0,0.0,0.0,0.0,0.0,0.0,0.0,0.0,0.0,0.0,0.0,0.0,0.0,0.0,0.0,0.0,0.0,0.0,0.0,0.0,0.0,0.0,0.0,0.0,0.0,0.0,0.0,0.0,0.0,0.0,0.0,0.0,0.0,0.0,0.0,0.0,0.0,0.0,0.0,0.0,0.0,0.0,0.0,0.0,0.0,0.0,0.0,0.0,0.0,0.0,0.0,0.0,0.0,0.0,0.0,0.0,0.0,0.0,0.0,0.0,0.0,0.0,0.0,0.0,0.0,0.0,0.0,0.0,0.0,0.0,0.0,0.0,0.0,0.0,0.0,0.0,0.0,0.0,0.0,0.0,0.0,0.0,0.0,0.0,-3.381,-3.2125,-3.1801,-3.0475,-2.9626,-2.9626,-2.9414,-2.9336,-2.9336,0.0,0.0,0.0,0.0,0.0,0.0,0.0,0.0,0.0,0.0,0.0,0.0,0.0,0.0,0.0,0.0,0.0,0.0,0.0,0.0,0.0,0.0,0.0,0.0,0.0,0.0,0.0,0.0,0.0,0.0,0.0,0.0,0.0,0.0,0.0,0.0,0.0,0.0,0.0,0.0,0.0,0.0,0.0,0.0,0.0,0.0,0.0,0.0,0.0,0.0,0.0,0.0,0.0,0.0,0.0,0.0,0.0,0.0,0.0,0.0,0.0,0.0,0.0,0.0,0.0,0.0,0.0,0.0,0.0,0.0,0.0,0.0,0.0,0.0,0.0,0.0,0.0,0.0,0.0,0.0,0.0,0.0,0.0,0.0,0.0,0.0,0.0,0.0,0.0,0.0,0.0,0.0,0.0,0.0,0.0,0.0,0.0,0.0,0.0,0.0,0.0,0.0,-3.7151,-3.4653,-3.2899,-3.2899,-3.1177,-2.998,-2.998,-2.9863,-2.9766,-2.9766,0.0,0.0,0.0,0.0,0.0,0.0,0.0,0.0,0.0,0.0,0.0,0.0,0.0,0.0,0.0,0.0,0.0,0.0,0.0,0.0,0.0,0.0,0.0,0.0,0.0,0.0,0.0,0.0,0.0,0.0,0.0,0.0,0.0,0.0,0.0,0.0,0.0,0.0,0.0,0.0,0.0,0.0,0.0,0.0,0.0,0.0,0.0,0.0,0.0,0.0,0.0,0.0,0.0,0.0,0.0,0.0,0.0,0.0,0.0,0.0,0.0,0.0,0.0,0.0,0.0,0.0,0.0,0.0,0.0,0.0,0.0,0.0,0.0,0.0,0.0,0.0,0.0,0.0,0.0,0.0,0.0,0.0,0.0,0.0,0.0,0.0,0.0,0.0,0.0,0.0,0.0,0.0,0.0,0.0,0.0,0.0,0.0,0.0,0.0,0.0,0.0,0.0,-3.931,-3.4592,-3.2055,-3.4958,-3.2664,-3.0898,-3.0898,-3.0469,-3.0195,0.0,0.0,0.0,0.0,0.0,0.0,0.0,0.0,0.0,0.0,0.0,0.0,0.0,0.0,0.0,0.0,0.0,0.0,0.0,0.0,0.0,0.0,0.0,0.0,0.0,0.0,0.0,0.0,0.0,0.0,0.0,0.0,0.0,0.0,0.0,0.0,0.0,0.0,0.0,0.0,0.0,0.0,0.0,0.0,0.0,0.0,0.0,0.0,0.0,0.0,0.0,0.0,0.0,0.0,0.0,0.0,0.0,0.0,0.0,0.0,0.0,0.0,0.0,0.0,0.0,0.0,0.0,0.0,0.0,0.0,0.0,0.0,0.0,0.0,0.0,0.0,0.0,0.0,0.0,0.0,0.0,0.0,0.0,0.0,0.0,0.0,0.0,0.0,0.0,0.0,0.0,0.0,0.0,0.0,0.0,0.0,0.0,0.0,0.0,0.0,0.0,0.0,0.0,-3.819,-3.5727,-3.3923,-3.3733,-3.2035,-3.0898,-3.0898,-3.0762,-3.0684,-3.0684,0.0,0.0,0.0,0.0,0.0,0.0,0.0,0.0,0.0,0.0,0.0,0.0,0.0,0.0,0.0,0.0,0.0,0.0,0.0,0.0,0.0,0.0,0.0,0.0,0.0,0.0,0.0,0.0,0.0,0.0,0.0,0.0,0.0,0.0,0.0,0.0,0.0,0.0,0.0,0.0,0.0,0.0,0.0,0.0,0.0,0.0,0.0,0.0,0.0,0.0,0.0,0.0,0.0,0.0,0.0,0.0,0.0,0.0,0.0,0.0,0.0,0.0,0.0,0.0,0.0,0.0,0.0,0.0,0.0,0.0,0.0,0.0,0.0,0.0,0.0,0.0,0.0,0.0,0.0,0.0,0.0,0.0,0.0,0.0,0.0,0.0,0.0,0.0,0.0,0.0,0.0,0.0,0.0,0.0,0.0,0.0,0.0,0.0,0.0,0.0,0.0,0.0,-3.753,-3.5178,-3.3417,-3.3134,-3.1767,-3.0898,-3.0898,-3.0898,-3.0898,-3.0898,0.0,0.0,0.0,0.0,0.0,0.0,0.0,0.0,0.0,0.0,0.0,0.0,0.0,0.0,0.0,0.0,0.0,0.0,0.0,0.0,0.0,0.0,0.0,0.0,0.0,0.0,0.0,0.0,0.0,0.0,0.0,0.0,0.0,0.0,0.0,0.0,0.0,0.0,0.0,0.0,0.0,0.0,0.0,0.0,0.0,0.0,0.0,0.0,0.0,0.0,0.0,0.0,0.0,0.0,0.0,0.0,0.0,0.0,0.0,0.0,0.0,0.0,0.0,0.0,0.0,0.0,0.0,0.0,0.0,0.0,0.0,0.0,0.0,0.0,0.0,0.0,0.0,0.0,0.0,0.0,0.0,0.0,0.0,0.0,0.0,0.0,0.0,0.0,0.0,0.0,0.0,0.0,0.0,0.0,0.0,0.0,0.0,0.0,0.0,0.0,0.0,0.0,-3.7346,-3.4035,-3.194,-3.2964,-3.1883,-3.1054,-3.0898,-3.0898,-3.0898,-3.0898,0.0,0.0,0.0,0.0,0.0,0.0,0.0,0.0,0.0,0.0,0.0,0.0,0.0,0.0,0.0,0.0,0.0,0.0,0.0,0.0,0.0,0.0,0.0,0.0,0.0,0.0,0.0,0.0,0.0,0.0,0.0,0.0,0.0,0.0,0.0,0.0,0.0,0.0,0.0,0.0,0.0,0.0,0.0,0.0,0.0,0.0,0.0,0.0,0.0,0.0,0.0,0.0,0.0,0.0,0.0,0.0,0.0,0.0,0.0,0.0,-3.7423,-3.9517,0.0,0.0,0.0,0.0,0.0,0.0,0.0,0.0,0.0,0.0,0.0,0.0,0.0,0.0,0.0,0.0,0.0,0.0,0.0,0.0,0.0,0.0,0.0,0.0,0.0,0.0,0.0,0.0,0.0,0.0,0.0,0.0,0.0,0.0,0.0,0.0,0.0,0.0,0.0,0.0,-3.7636,-3.6703,-3.5321,-3.3304,-3.2794,-3.215,-3.0995,-3.0898,-3.0898,-3.0898,-3.0898,0.0,0.0,0.0,0.0,0.0,0.0,0.0,0.0,0.0,0.0,0.0,0.0,0.0,0.0,0.0,0.0,0.0,0.0,0.0,0.0,0.0,0.0,0.0,0.0,0.0,0.0,0.0,0.0,0.0,0.0,0.0,0.0,0.0,0.0,0.0,0.0,0.0,0.0,0.0,0.0,0.0,0.0,0.0,0.0,0.0,0.0,0.0,0.0,0.0,0.0,0.0,0.0,0.0,0.0,0.0,0.0,0.0,0.0,0.0,-3.6217,-3.721,0.0,0.0,0.0,0.0,0.0,0.0,0.0,0.0,0.0,0.0,0.0,0.0,0.0,0.0,0.0,0.0,0.0,0.0,0.0,0.0,0.0,0.0,0.0,0.0,0.0,0.0,0.0,0.0,0.0,0.0,0.0,0.0,0.0,0.0,0.0,0.0,0.0,0.0,0.0,0.0,-3.6541,-3.5233,-3.3754,-3.2207,-3.2035,-3.2035,-3.1977,-3.1325,-3.1228,-3.192,-3.1267,0.0,0.0,0.0,0.0,0.0,0.0,0.0,0.0,0.0,0.0,0.0,0.0,0.0,0.0,0.0,0.0,0.0,0.0,0.0,0.0,0.0,0.0,0.0,0.0,0.0,0.0,0.0,0.0,0.0,0.0,0.0,0.0,0.0,0.0,0.0,0.0,0.0,0.0,0.0,0.0,0.0,0.0,0.0,0.0,0.0,0.0,0.0,0.0,0.0,0.0,0.0,0.0,0.0,-3.8599,-3.7726,-3.7167,-3.5972,-3.5146,-3.4646,-3.4924,-3.4435,-3.3677,-3.6108,0.0,0.0,0.0,0.0,0.0,0.0,0.0,0.0,0.0,0.0,0.0,0.0,0.0,0.0,0.0,0.0,0.0,0.0,0.0,0.0,0.0,0.0,-3.4958,-3.5233,-3.4348,-3.4236,-3.6918,0.0,0.0,0.0,0.0,0.0,0.0,0.0,0.0,0.0,0.0,0.0,-3.5727,-3.3529,-3.1825,-3.1325,-3.1267,-3.1767,-3.3021,-3.1767,-3.1556,-3.3021,-3.171,-3.0898,0.0,0.0,0.0,0.0,0.0,0.0,0.0,0.0,0.0,0.0,0.0,0.0,0.0,0.0,0.0,0.0,0.0,0.0,0.0,0.0,0.0,0.0,0.0,0.0,0.0,0.0,0.0,0.0,0.0,0.0,0.0,0.0,-3.9697,-3.9697,0.0,0.0,0.0,0.0,0.0,0.0,0.0,0.0,0.0,0.0,0.0,0.0,0.0,-4.1075,-4.1075,-4.1075,-4.0877,-4.04,-4.019,-3.8707,-3.6083,-3.5916,-3.4411,-3.2057,-3.3319,0.0,-3.5013,-3.5453,0.0,0.0,0.0,0.0,0.0,0.0,0.0,0.0,0.0,0.0,0.0,0.0,0.0,0.0,0.0,0.0,0.0,0.0,0.0,0.0,0.0,0.0,-3.3677,-3.5013,-3.5123,-3.5453,-3.7133,-3.7636,-3.8137,-3.9181,-3.9569,-3.9697,0.0,0.0,0.0,0.0,0.0,0.0,-3.737,-3.6865,-3.5649,-3.3077,-3.2794,-3.2907,-3.3077,-3.1767,-3.1556,-3.3021,-3.171,-3.0898,-3.0898,-3.0898,0.0,0.0,0.0,0.0,0.0,0.0,0.0,0.0,0.0,0.0,0.0,0.0,0.0,0.0,0.0,0.0,0.0,0.0,0.0,0.0,0.0,0.0,0.0,0.0,0.0,0.0,0.0,0.0,0.0,-3.9697,-3.9798,-4.0124,-4.0149,-4.0275,0.0,0.0,0.0,0.0,0.0,0.0,0.0,0.0,0.0,-4.0924,-4.1175,-4.1275,-4.1275,-4.1275,-4.1175,-4.0924,-4.0124,-3.9043,-3.7669,-3.6861,-3.5782,-3.4593,-3.5208,-3.5764,-3.6218,-3.6447,-3.6918,-3.7583,0.0,0.0,0.0,0.0,-3.9697,-3.9569,-3.8739,-3.7477,-3.6379,-3.724,0.0,0.0,0.0,0.0,0.0,0.0,0.0,-3.5945,-3.4459,-3.3564,-3.3077,-3.2871,-3.2815,-3.3473,-3.5781,-3.5595,-3.5704,-3.8031,-3.9129,-3.9697,-3.9697,-3.9025,0.0,0.0,0.0,-3.7317,-3.7477,-3.6757,-3.5781,-3.4459,-3.4348,-3.4681,-3.5485,-3.4236,-3.3642,-3.4292,-3.2985,-3.1767,-3.0957,-3.0898,-3.1672,0.0,0.0,0.0,0.0,0.0,0.0,0.0,0.0,0.0,0.0,0.0,0.0,0.0,0.0,0.0,0.0,0.0,0.0,0.0,0.0,0.0,0.0,0.0,0.0,0.0,0.0,0.0,0.0,-4.0023,-4.0275,-4.0676,-4.0674,-4.0824,0.0,0.0,0.0,0.0,0.0,0.0,-4.1555,-4.1681,-4.1706,-4.1555,-4.1831,-4.1902,-4.1902,-4.2053,-4.2053,-4.1902,-4.0838,-3.9866,-3.8995,-3.7941,-3.7224,-3.6875,-3.7224,-3.762,-3.7896,-3.7496,-3.7588,-3.8042,-3.9104,-3.9785,-4.0124,-4.0124,-4.0023,-3.9742,-3.8672,-3.7197,-3.6054,-3.7133,-3.6487,-3.5617,-3.7477,0.0,0.0,0.0,0.0,-3.6337,-3.5011,-3.4324,-3.387,-3.3168,-3.267,-3.3226,-3.6168,-3.6002,-3.5746,-3.7684,-3.8635,-3.9258,-3.962,-3.8792,0.0,-3.9517,-3.794,-3.6913,-3.7613,-3.6843,-3.6112,-3.5758,-3.5725,-3.631,-3.7803,-3.6438,-3.5656,-3.6018,-3.4525,-3.3191,-3.2055,-3.1652,-3.2493,-3.4681,0.0,0.0,0.0,0.0,0.0,0.0,0.0,0.0,0.0,0.0,0.0,0.0,0.0,0.0,0.0,0.0,0.0,0.0,0.0,0.0,0.0,0.0,0.0,0.0,0.0,0.0,0.0,0.0,0.0,-4.125,-4.125,0.0,0.0,0.0,0.0,-4.2162,-4.2665,-4.266,-4.2187,-4.2665,-4.266,-4.2187,-4.3137,-4.3664,-4.3664,-4.4192,-4.4192,-4.3664,-4.3607,-4.1924,-3.8911,-3.8851,-3.806,-3.6788,-3.8182,-3.9501,-4.0392,-3.7919,-3.7732,-3.9062,-3.9117,-3.9989,-4.12,-4.12,-4.0874,-4.0423,-4.037,-3.9051,-3.74,-3.7477,-3.6487,-3.5068,-3.3789,-3.5321,0.0,0.0,-3.9233,-4.0021,-3.9053,-3.7642,-3.6906,-3.8316,-3.753,-3.7247,-4.034,-4.0906,-4.0607,-3.9794,-3.853,-3.8084,-3.9465,0.0,-3.9645,-3.9697,-4.0019,-3.9738,-3.8431,-3.8642,-3.8372,-3.6974,-3.6804,-3.745,-3.8896,-3.7206,-3.6652,-3.8027,-3.6274,-3.5178,-3.5068,-3.3733,-3.3077,-3.3191,-3.457,0.0,0.0,0.0,0.0,0.0,0.0,0.0,0.0,0.0,0.0,0.0,0.0,0.0,0.0,0.0,0.0,0.0,0.0,0.0,0.0,0.0,0.0,0.0,0.0,0.0,0.0,0.0,0.0,-4.1831,-4.1856,0.0,-4.2359,-4.2559,-4.274,-4.274,-4.2861,-4.3037,-4.3212,-4.3388,-4.3589,-4.374,-4.4116,-4.4317,-4.4317,-4.4895,-4.507,-4.4895,-4.5246,-4.4779,-4.3651,-4.3651,-4.3216,-4.2399,-4.2904,-4.3208,-4.316,-4.2223,-4.1557,-4.1071,-4.0671,-4.0819,-4.1275,-4.1275,-4.1175,-4.1,-4.1,-3.9942,-3.853,-3.853,-3.8827,-3.9044,-3.8554,-3.8476,-3.8554,-3.8745,-3.8516,-3.8096,-3.7755,-3.7235,-3.6951,-3.7575,-3.7235,-3.7406,-3.9434,-3.9133,-3.8904,-4.0429,-4.0301,-4.0116,-4.0646,-3.9956,-3.9663,-4.0592,-4.005,-3.977,-4.0198,-4.04,-4.0305,-3.9764,-3.9709,-3.9953,-4.0468,-3.9837,-3.9279,-3.8871,-3.7801,-3.681,-3.587,-3.4969,-3.4958,-3.5922,-3.6433,-3.6271,0.0,0.0,0.0,0.0,0.0,0.0,0.0,0.0,0.0,0.0,0.0,0.0,0.0,0.0,0.0,0.0,0.0,0.0,0.0,0.0,0.0,0.0,0.0,0.0,0.0,-4.1781,-4.2032,-4.2439,-4.2489,-4.2715,-4.3212,-4.3263,-4.3338,-4.3514,-4.3539,-4.3689,-4.4066,-4.4267,-4.4543,-4.4895,-4.5271,-4.5472,-4.5472,-4.6024,-4.6301,-4.6301,-4.6677,-4.6523,-4.6007,-4.6007,-4.581,-4.5464,-4.5464,-4.5569,-4.5723,-4.5547,-4.4719,-4.3489,-4.2735,-4.2404,-4.2404,-4.2404,-4.2278,-4.2158,-4.1957,-4.1255,-4.0272,-3.9635,-4.0055,-4.0715,-4.0001,-3.9609,-3.9443,-3.9634,-3.9439,-3.9262,-3.9426,-3.9128,-3.8839,-3.9358,-3.9128,-3.9128,-4.0604,-4.0183,-4.0021,-4.1798,-4.13,-4.071,-4.1222,-4.0468,-4.0171,-4.1168,-4.0616,-4.0495,-4.1497,-4.1781,-4.1882,-4.1882,-4.1882,-4.1882,-4.1882,-4.1731,-4.1201,-4.022,-3.9601,-3.8851,-3.7918,-3.7017,-3.6982,-3.7738,-3.7601,-3.724,-3.678,0.0,0.0,0.0,0.0,0.0,0.0,0.0,0.0,0.0,0.0,0.0,0.0,0.0,0.0,0.0,0.0,0.0,0.0,0.0,0.0,0.0,0.0,0.0,-4.2313,-4.269,-4.2986,-4.3011,-4.3011,-4.3212,-4.3765,-4.3815,-4.4066,-4.4618,-4.4644,-4.4669,-4.4694,-4.5221,-4.5547,-4.5573,-4.6602,-4.7093,-4.7093,-4.7682,-4.7933,-4.7933,-4.7958,-4.7093,-4.5517,-4.5517,-4.5493,-4.5493,-4.5493,-4.6412,-4.7857,-4.7355,-4.6853,-4.625,-4.5095,-4.4644,-4.4618,-4.4618,-4.4292,-4.374,-4.3212,-4.3037,-4.2712,-4.0773,-4.0129,-3.9751,-3.7771,-3.8547,-4.0248,-4.0751,-4.234,-4.394,-4.4493,-4.3458,-4.2747,-4.4245,-4.3458,-4.2782,-4.4269,-4.4618,-4.4468,-4.394,-4.1345,-3.9695,-4.111,-4.1326,-4.1326,-4.1326,-4.1831,0.0,-4.2238,-4.2715,-4.2986,-4.2986,-4.2986,-4.2986,-4.2986,-4.2539,-4.2238,-4.2238,-4.1656,-4.13,-4.13,-3.9953,-3.8895,-3.8394,-3.784,-3.8291,-3.9747,0.0,0.0,0.0,0.0,0.0,0.0,0.0,0.0,0.0,0.0,0.0,0.0,0.0,0.0,0.0,0.0,0.0,0.0,0.0,0.0,0.0,-4.2886,-4.2936,-4.2816,-4.2942,-4.3112,-4.3539,-4.3589,-4.379,-4.4342,-4.4392,-4.4644,-4.5196,-4.5246,-4.5598,-4.6401,-4.6602,-4.6853,-4.723,-4.7531,-4.7682,-4.7682,-4.8259,-4.8535,-4.8535,-4.8937,-4.8857,-4.8447,-4.8447,-4.8224,-4.7877,-4.7877,-4.7907,-4.7908,-4.7757,-4.7606,-4.733,-4.5824,-4.4995,-4.4618,-4.4618,-4.4518,-4.4367,-4.4217,-4.4166,-4.4084,-4.3507,-4.3342,-4.3259,-4.2659,-4.2905,-4.3367,-4.3515,-4.3978,-4.4443,-4.4593,-4.4328,-4.4069,-4.4502,-4.4269,-4.4069,-4.4502,-4.4618,-4.4593,-4.4418,-4.3672,-4.2985,-4.2604,-4.2534,-4.2534,-4.2534,-4.266,-4.276,-4.276,-4.2886,-4.2986,-4.2986,-4.2986,-4.2986,-4.2986,-4.2836,-4.276,-4.276,-4.2233,-4.1932,-4.1932,-4.1151,-4.0636,-4.0488,-3.9292,-3.9407,0.0,0.0,0.0,0.0,0.0,0.0,0.0,0.0,0.0,0.0,0.0,0.0,0.0,0.0,0.0,0.0,0.0,0.0,0.0,0.0,0.0,0.0,-4.2986,-4.3062,-4.3288,-4.3313,-4.3438,-4.3765,-4.4016,-4.4468,-4.5246,-4.5321,-4.5648,-4.6451,-4.6502,-4.6778,-4.7431,-4.7682,-4.7958,-4.8259,-4.8485,-4.8611,-4.8611,-4.8937,-4.9113,-4.9113,-4.9439,-4.959,-4.959,-4.959,-4.9414,-4.9113,-4.9113,-4.8937,-4.8611,-4.8611,-4.8485,-4.8159,0.0,0.0,0.0,0.0,-4.5522,-4.5321,-4.5321,-4.5321,-4.5296,-4.507,-4.4995,-4.4945,-4.4694,-4.4794,-4.4995,-4.4995,-4.5146,-4.5321,-4.5321,-4.5321,-4.5321,-4.5321,-4.5321,-4.5321,-4.5321,-4.5321,-4.5271,-4.502,-4.4995,0.0,-4.3815,-4.3664,-4.3664,-4.3664,-4.3664,-4.3664,-4.3664,-4.3664,-4.3664,-4.3664,-4.3463,-4.3313,-4.3313,-4.3112,0.0,0.0,0.0,-4.2564,-4.2564,-4.1982,0.0,0.0,0.0,-4.0468,-4.1275,-4.0148,0.0,0.0,-3.9898,-3.9357,0.0,0.0,0.0,0.0,0.0,0.0,0.0,0.0,0.0,0.0,0.0,0.0,0.0,0.0,0.0,0.0,-4.3037,-4.3237,-4.374,-4.3966,-4.4091,-4.4091,-4.4518,-4.5246,-4.6376,-4.6476,-4.6903,-4.7933,-4.8008,-4.8033,-4.8083,-4.8586,0.0,0.0,0.0,-4.959,-4.959,-4.959,-4.959,-4.959,-4.959,-4.959,-4.959,-4.959,-4.959,-4.959,-4.959,-4.959,-4.959,-4.959,-4.9314,-4.8812,-4.8159,-4.7908,-4.7857,-4.738,-4.6903,-4.6476,-4.6426,0.0,0.0,-4.5748,-4.5573,-4.5472,-4.497,-4.5171,-4.5573,-4.5573,-4.5924,-4.6301,-4.6301,-4.6301,-4.6301,-4.6301,-4.6301,-4.6301,-4.6301,-4.6301,-4.6175,-4.5673,-4.5573,-4.5422,-4.4895,-4.4719,-4.4618,-4.4618,-4.4618,-4.4618,-4.4618,-4.4618,-4.4618,-4.4618,-4.4192,0.0,-4.389,-4.3438,-4.3162,-4.3162,-4.3112,-4.3037,-4.2986,-4.2564,-4.2313,-4.2313,-4.1781,-4.1476,-4.1476,-4.1401,-4.1376,-4.1351,-4.0375,-4.0149,0.0,0.0,0.0,0.0,0.0,0.0,0.0,0.0,0.0,0.0,0.0,0.0,0.0,0.0,0.0,-4.2986,-4.3338,-4.3689,-4.379,-4.497,-4.5824,-4.5824,-4.5924,-4.6401,-4.7506,-4.7606,-4.7883,-4.856,-4.8611,-4.8786,-4.9238,-4.9364,-4.9439,-4.9439,-4.954,-4.959,-4.959,-4.959,-4.959,-4.959,-4.959,0.0,-4.959,-4.959,-4.959,-4.959,-4.959,-4.959,-4.959,-4.959,-4.954,-4.9339,-4.8309,-4.7908,-4.7908,-4.7782,-4.7682,-4.7531,-4.7129,-4.6979,-4.6878,-4.6326,-4.615,-4.6125,-4.6024,-4.605,0.0,-4.615,-4.6225,-4.6301,-4.6301,-4.6301,-4.6301,-4.6301,-4.6301,-4.6301,-4.6301,-4.6301,-4.6276,-4.6175,-4.615,-4.6125,-4.5999,-4.5221,-4.4618,-4.4618,-4.4618,-4.4618,-4.4618,-4.4618,-4.4618,-4.4618,-4.4518,-4.4468,-4.4468,-4.4367,-4.4292,-4.4292,-4.389,-4.3438,-4.2986,-4.2886,-4.2866,-4.2866,-4.271,-4.266,-4.266,-4.2208,-4.2062,-4.2037,-4.1329,-4.1025,0.0,0.0,0.0,0.0,0.0,0.0,0.0,0.0,0.0,0.0,0.0,-4.2986,-4.2986,0.0,-4.3062,-4.3338,-4.3614,-4.3991,-4.4568,-4.5598,-4.6301,-4.6301,-4.6778,-4.7431,-4.8259,-4.8335,-4.8586,-4.9138,-4.9188,-4.9314,-4.959,-4.959,-4.959,-4.959,-4.959,-4.959,-4.959,-4.959,-4.959,-4.959,-4.959,-4.959,-4.959,-4.959,-4.959,-4.959,-4.959,-4.959,-4.959,-4.959,-4.959,-4.954,-4.8962,-4.8586,-4.8335,-4.8335,-4.8159,-4.7883,-4.7606,-4.7531,-4.7481,-4.7205,-4.7104,-4.7054,-4.6803,-4.6728,-4.6652,-4.6376,-4.6301,-4.6301,-4.6301,-4.6301,-4.6301,-4.6301,-4.6301,-4.6301,-4.6301,-4.6301,-4.6301,-4.6301,-4.6301,-4.6301,-4.6301,-4.5849,-4.5472,-4.5472,-4.5472,-4.5472,-4.5472,-4.5472,-4.5472,-4.5472,-4.5221,-4.5045,-4.5045,-4.4794,-4.4618,-4.4618,-4.4367,-4.4091,-4.3815,-4.379,-4.379,-4.379,-4.3539,-4.3388,-4.3388,-4.2836,-4.2615,-4.2615,-4.2283,-4.2007,0.0,0.0,0.0,0.0,0.0,0.0,0.0,-4.264,-4.2986,-4.2986,-4.2986,-4.2986,-4.2986,-4.3062,-4.3288,-4.374,-4.3991,-4.4493,-4.5497,-4.62,-4.6652,-4.6778,-4.7556,-4.8309,-4.8887,-4.8937,-4.9113,-4.9565,-4.959,-4.959,-4.959,-4.959,-4.959,-4.959,-4.959,-4.959,-4.959,-4.959,-4.959,-4.959,-4.959,-4.959,-4.959,-4.959,-4.959,-4.959,-4.959,-4.959,-4.959,-4.959,-4.959,-4.959,-4.959,-4.9314,-4.8937,-4.8937,-4.8636,-4.8234,-4.8109,-4.8083,-4.8058,-4.7933,-4.7908,-4.7832,-4.7405,-4.728,-4.7179,-4.6753,-4.6627,-4.6627,-4.6627,-4.6627,-4.6627,-4.6627,-4.6627,-4.6602,-4.6502,-4.6476,-4.6451,-4.6326,-4.6301,-4.6301,-4.6301,-4.6301,-4.6301,-4.6301,-4.6301,-4.6301,-4.6301,-4.6301,-4.6301,-4.6301,-4.5924,-4.5648,-4.5648,-4.5221,-4.4895,-4.4794,-4.4794,-4.4744,-4.4618,-4.4618,-4.4618,-4.4618,-4.4192,-4.3966,-4.3966,-4.3514,-4.3288,-4.3288,-4.3288,-4.3011,-3.9697,-3.9697,-3.9823,-4.0375,-4.0874,-4.148,0.0,-4.264,-4.2986,-4.2986,-4.2986,-4.2986,-4.2986,-4.3388,-4.374,-4.379,-4.4644,-4.5522,-4.6125,-4.7079,-4.7933,-4.8435,-4.8611,-4.8887,-4.9439,-4.9515,-4.954,-4.959,-4.959,-4.959,-4.959,-4.959,-4.959,-4.959,-4.959,-4.959,-4.959,-4.959,-4.959,-4.959,-4.959,-4.959,-4.959,-4.959,-4.959,-4.959,-4.959,-4.959,-4.959,-4.959,-4.959,-4.959,-4.959,-4.9565,-4.9515,-4.9515,-4.9464,-4.9339,-4.8837,-4.8686,-4.8586,-4.8083,-4.7908,-4.7908,-4.7832,-4.7832,-4.7807,-4.7757,-4.7732,-4.7732,-4.7732,-4.7732,-4.7732,-4.7732,-4.7732,-4.7606,-4.7129,-4.6993,-4.6903,-4.6401,-4.6301,-4.6301,-4.6301,-4.6301,-4.6301,-4.6301,-4.6301,-4.6301,-4.6301,-4.6301,-4.6301,-4.6301,-4.625,-4.6225,-4.6225,-4.615,-4.5924,-4.5422,-4.5397,-4.5171,-4.4644,-4.4618,-4.4618,-4.4618,-4.4568,-4.4543,-4.4543,-4.4468,-4.4443,-4.4443,-4.4443,-4.4141,-3.9697,-3.9697,-3.9898,-4.0724,-4.1125,-4.1555,-4.2434,-4.2811,-4.2986,-4.2986,-4.2986,-4.3087,-4.3388,-4.3639,-4.4016,-4.4669,-4.5171,-4.5799,-4.6677,-4.7431,-4.8134,-4.8711,-4.9063,-4.9339,-4.9565,-4.959,-4.959,-4.959,-4.959,-4.959,-4.959,-4.959,-4.959,-4.959,-4.959,-4.959,-4.959,-4.959,-4.959,-4.959,-4.959,-4.959,-4.959,-4.959,-4.959,-4.959,-4.959,-4.959,-4.959,-4.959,-4.959,-4.959,-4.959,-4.959,-4.959,-4.959,-4.959,-4.9565,-4.9339,-4.9264,-4.9213,-4.8962,-4.8887,-4.8837,-4.851,-4.841,-4.8335,-4.8008,-4.7908,-4.7908,-4.7908,-4.7908,-4.7908,-4.7908,-4.7908,-4.7857,-4.7631,-4.7581,-4.7506,-4.728,-4.723,-4.723,-4.723,-4.6979,-4.6803,-4.6803,-4.6527,-4.6301,-4.6301,-4.6301,-4.6301,-4.6301,-4.6301,-4.6301,-4.6301,-4.6301,-4.62,-4.5974,-4.5974,-4.5849,-4.5623,-4.5598,-4.5598,-4.5598,-4.5296,-4.5121,-4.5121,-4.4794,-4.4618,-4.4618,-4.4618,-4.4694,-3.9697,-3.9798,-4.0149,-4.105,-4.1401,-4.1806,-4.276,-4.2986,-4.2986,-4.2986,-4.2986,-4.3137,-4.3689,-4.3915,-4.4342,-4.5321,-4.5623,-4.61,-4.7179,-4.7682,-4.8184,-4.8912,-4.9339,-4.959,-4.959,-4.959,-4.959,-4.959,-4.959,-4.959,-4.959,-4.959,-4.959,-4.959,-4.959,-4.959,-4.959,-4.959,-4.959,-4.959,-4.959,-4.959,-4.959,-4.959,-4.959,-4.959,-4.959,-4.959,-4.959,-4.959,-4.959,-4.959,-4.959,-4.959,-4.959,-4.959,-4.959,-4.959,-4.959,-4.959,-4.959,-4.959,-4.959,-4.9515,-4.9113,-4.9012,-4.8912,-4.8485,-4.8385,-4.8385,-4.8385,-4.8385,-4.8385,-4.8385,-4.8385,-4.8335,-4.8184,-4.8159,-4.8109,-4.7933,-4.7908,-4.7908,-4.7908,-4.7606,-4.7355,-4.7355,-4.7004,-4.6652,-4.6351,-4.6301,-4.6301,-4.6301,-4.6301,-4.6301,-4.6301,-4.6301,-4.6301,-4.6301,-4.6301,-4.6301,-4.6301,-4.6301,-4.6301,-4.6301,-4.5924,-4.5723,-4.5723,-4.5296,-4.5095,-4.5095,-4.5095,-4.5321,-3.9697,-4.0074,-4.0626,-4.115,-4.1731,-4.2338,-4.2836,-4.2986,-4.2986,-4.2986,-4.2986,-4.3137,-4.3689,-4.4242,-4.4794,-4.5397,-4.5949,-4.6652,-4.7732,-4.7908,-4.8335,-4.9439,-4.959,-4.959,-4.959,-4.959,-4.959,-4.959,-4.959,-4.959,-4.959,-4.959,-4.959,-4.959,-4.959,-4.959,-4.959,-4.959,-4.959,-4.959,-4.959,-4.959,-4.959,-4.959,-4.959,-4.959,-4.959,-4.959,-4.959,-4.959,-4.959,-4.959,-4.959,-4.959,-4.959,-4.959,-4.959,-4.959,-4.959,-4.959,-4.959,-4.959,-4.959,-4.959,-4.9565,-4.9565,-4.9565,-4.954,-4.954,-4.954,-4.954,-4.954,-4.954,-4.954,-4.954,-4.9389,-4.8862,-4.8736,-4.8586,-4.8008,-4.7908,-4.7908,-4.7908,-4.7883,-4.7883,-4.7883,-4.7883,-4.7481,-4.6451,-4.6301,-4.6301,-4.6301,-4.6301,-4.6301,-4.6301,-4.6301,-4.6301,-4.6301,-4.6301,-4.6301,-4.6301,-4.6301,-4.6301,-4.6301,-4.6301,-4.6276,-4.6276,-4.6276,-4.625,-4.625,-4.625,-4.6276,-3.9697,-4.0099,-4.0651,-4.115,-4.1756,-4.2363,-4.2861,-4.2986,-4.2986,-4.2986,-4.2986,-4.3263,-4.4192,-4.4493,-4.4945,-4.5874,-4.6175,-4.6677,-4.7757,-4.7908,-4.8335,-4.9464,-4.959,-4.959,-4.959,-4.959,-4.959,-4.959,-4.959,-4.959,-4.959,-4.959,-4.959,-4.959,-4.959,-4.959,-4.959,-4.959,-4.959,-4.959,-4.959,-4.959,-4.959,-4.959,-4.959,-4.959,-4.959,-4.959,-4.959,-4.959,-4.959,-4.959,-4.959,-4.959,-4.959,-4.959,-4.959,-4.959,-4.959,-4.959,-4.959,-4.959,-4.959,-4.959,-4.959,-4.959,-4.959,-4.959,-4.959,-4.959,-4.959,-4.959,-4.959,-4.959,-4.959,-4.954,-4.9364,-4.9314,-4.9264,-4.9063,-4.9038,-4.9038,-4.9038,-4.8711,-4.836,-4.7958,-4.7908,-4.7782,-4.7431,-4.738,-4.738,-4.738,-4.738,-4.738,-4.738,-4.7054,-4.6853,-4.6853,-4.6527,-4.6301,-4.6301,-4.6301,-4.6301,-4.6301,-4.6301,-4.6301,-4.6301,-4.6301,-4.6301,-4.6301,-4.6301,-4.6301,-3.9923,-4.04,-4.0953,-4.1505,-4.2032,-4.259,-4.2886,-4.2986,-4.2986,-4.2986,-4.2986,-4.3263,-4.4166,-4.4493,-4.492,-4.5874,-4.6175,-4.6677,-4.7757,-4.7908,-4.8335,-4.9464,-4.959,-4.959,-4.959,-4.959,-4.959,-4.959,-4.959,-4.959,-4.959,-4.959,-4.959,-4.959,-4.959,-4.959,-4.959,-4.959,-4.959,-4.959,-4.959,-4.959,-4.959,-4.959,-4.959,-4.959,-4.959,-4.959,-4.959,-4.959,-4.959,-4.959,-4.959,-4.959,-4.959,-4.959,-4.959,-4.959,-4.959,-4.959,-4.959,-4.959,-4.959,-4.959,-4.959,-4.959,-4.959,-4.959,-4.959,-4.959,-4.959,-4.959,-4.959,-4.959,-4.959,-4.959,-4.959,-4.959,-4.959,-4.959,-4.959,-4.959,-4.959,-4.9289,-4.8937,-4.856,-4.851,-4.836,-4.7958,-4.7908,-4.7908,-4.7908,-4.7908,-4.7908,-4.7908,-4.7606,-4.7405,-4.7405,-4.7079,-4.6878,-4.6878,-4.6878,-4.6878,-4.6878,-4.6878,-4.6878,-4.6878,-4.6878,-4.6878,-4.6878,-4.6878,-4.6878,-4.0375,-4.0874,-4.1505,-4.2087,-4.2615,-4.2986,-4.2986,-4.2986,-4.2986,-4.2986,-4.2986,-4.3137,-4.3689,-4.4242,-4.4819,-4.5397,-4.5949,-4.6677,-4.7757,-4.7908,-4.8335,-4.9464,-4.959,-4.959,-4.959,-4.959,-4.959,-4.959,-4.959,-4.959,-4.959,-4.959,-4.959,-4.959,-4.959,-4.959,-4.959,-4.959,-4.959,-4.959,-4.959,-4.959,-4.959,-4.959,-4.959,-4.959,-4.959,-4.959,-4.959,-4.959,-4.959,-4.959,-4.959,-4.959,-4.959,-4.959,-4.959,-4.959,-4.959,-4.959,-4.959,-4.959,-4.959,-4.959,-4.959,-4.959,-4.959,-4.959,-4.959,-4.959,-4.959,-4.959,-4.959,-4.959,-4.959,-4.959,-4.959,-4.959,-4.959,-4.959,-4.959,-4.959,-4.959,-4.959,-4.959,-4.959,-4.959,-4.9213,-4.8134,-4.7983,-4.7983,-4.7983,-4.7983,-4.7983,-4.7983,-4.7958,-4.7958,-4.7958,-4.7933,-4.7908,-4.7908,-4.7908,-4.7908,-4.7908,-4.7908,-4.7908,-4.7908,-4.7908,-4.7908,-4.7908,-4.7908,-4.7908,-4.0475,-4.1229,-4.2037,-4.2162,-4.2615,-4.2986,-4.2986,-4.2986,-4.2986,-4.2986,-4.2986,-4.3137,-4.3689,-4.4242,-4.4819,-4.5397,-4.5949,-4.6677,-4.7757,-4.7908,-4.8335,-4.9464,-4.959,-4.959,-4.959,-4.959,-4.959,-4.959,-4.959,-4.959,-4.959,-4.959,-4.959,-4.959,-4.959,-4.959,-4.959,-4.959,-4.959,-4.959,-4.959,-4.959,-4.959,-4.959,-4.959,-4.959,-4.959,-4.959,-4.959,-4.959,-4.959,-4.959,-4.959,-4.959,-4.959,-4.959,-4.959,-4.959,-4.959,-4.959,-4.959,-4.959,-4.959,-4.959,-4.959,-4.959,-4.959,-4.959,-4.959,-4.959,-4.959,-4.959,-4.959,-4.959,-4.959,-4.959,-4.959,-4.959,-4.959,-4.959,-4.959,-4.959,-4.959,-4.959,-4.959,-4.959,-4.959,-4.949,-4.9188,-4.9163,-4.9163,-4.9163,-4.9163,-4.9163,-4.9163,-4.8786,-4.856,-4.856,-4.8159,-4.7908,-4.7908,-4.7908,-4.7908,-4.7908,-4.7908,-4.7908,-4.7908,-4.7908,-4.7908,-4.7908,-4.7908,-4.7908,-4.1103,-4.1681,-4.2263,-4.2514,-4.2816,-4.2986,-4.2986,-4.2986,-4.2986,-4.2986,-4.2986,-4.3062,-4.3388,-4.389,-4.4443,-4.502,-4.5573,-4.6401,-4.7732,-4.7908,-4.8335,-4.9464,-4.959,-4.959,-4.959,-4.959,-4.959,-4.959,-4.959,-4.959,-4.959,-4.959,-4.959,-4.959,-4.959,-4.959,-4.959,-4.959,-4.959,-4.959,-4.959,-4.959,-4.959,-4.959,-4.959,-4.959,-4.959,-4.959,-4.959,-4.959,-4.959,-4.959,-4.959,-4.959,-4.959,-4.959,-4.959,-4.959,-4.959,-4.959,-4.959,-4.959,-4.959,-4.959,-4.959,-4.959,-4.959,-4.959,-4.959,-4.959,-4.959,-4.959,-4.959,-4.959,-4.959,-4.959,-4.959,-4.959,-4.959,-4.959,-4.959,-4.959,-4.959,-4.959,-4.959,-4.959,-4.959,-4.959,-4.959,-4.959,-4.959,-4.959,-4.959,-4.959,-4.959,-4.9314,-4.9138,-4.9138,-4.8837,-4.8661,-4.8661,-4.8661,-4.8661,-4.8661,-4.8661,-4.8661,-4.8661,-4.8661,-4.8661,-4.8661,-4.8661,-4.8661,-4.1936,-4.2263,-4.2439,-4.2861,-4.2986,-4.2986,-4.2986,-4.2986,-4.2986,-4.2986,-4.2986,-4.2986,-4.2986,-4.3438,-4.3991,-4.4543,-4.5121,-4.6024,-4.7581,-4.7857,-4.8309,-4.9364,-4.9565,-4.959,-4.959,-4.959,-4.959,-4.959,-4.959,-4.959,-4.959,-4.959,-4.959,-4.959,-4.959,-4.959,-4.959,-4.959,-4.959,-4.959,-4.959,-4.959,-4.959,-4.959,-4.959,-4.959,-4.959,-4.959,-4.959,-4.959,-4.959,-4.959,-4.959,-4.959,-4.959,-4.959,-4.959,-4.959,-4.959,-4.959,-4.959,-4.959,-4.959,-4.959,-4.959,-4.959,-4.959,-4.959,-4.959,-4.959,-4.959,-4.959,-4.959,-4.959,-4.959,-4.959,-4.959,-4.959,-4.959,-4.959,-4.959,-4.959,-4.959,-4.959,-4.959,-4.959,-4.959,-4.959,-4.959,-4.959,-4.959,-4.959,-4.959,-4.959,-4.959,-4.959,-4.959,-4.959,-4.959,-4.959,-4.959,-4.959,-4.959,-4.959,-4.959,-4.959,-4.959,-4.959,-4.959,-4.959,-4.959,-4.959,-4.2037,-4.2539,-4.2861,-4.2961,-4.2986,-4.2986,-4.2986,-4.2986,-4.2986,-4.2986,-4.2986,-4.2986,-4.2986,-4.3438,-4.3991,-4.4543,-4.5121,-4.5899,-4.7104,-4.7631,-4.8159,-4.8837,-4.9314,-4.959,-4.959,-4.959,-4.959,-4.959,-4.959,-4.959,-4.959,-4.959,-4.959,-4.959,-4.959,-4.959,-4.959,-4.959,-4.959,-4.959,-4.959,-4.959,-4.959,-4.959,-4.959,-4.959,-4.959,-4.959,-4.959,-4.959,-4.959,-4.959,-4.959,-4.959,-4.959,-4.959,-4.959,-4.959,-4.959,-4.959,-4.959,-4.959,-4.959,-4.959,-4.959,-4.959,-4.959,-4.959,-4.959,-4.959,-4.959,-4.959,-4.959,-4.959,-4.959,-4.959,-4.959,-4.959,-4.959,-4.959,-4.959,-4.959,-4.959,-4.959,-4.959,-4.959,-4.959,-4.959,-4.959,-4.959,-4.959,-4.959,-4.959,-4.959,-4.959,-4.959,-4.959,-4.959,-4.959,-4.959,-4.959,-4.959,-4.959,-4.959,-4.959,-4.959,-4.959,-4.959,-4.959,-4.959,-4.959,-4.959,-4.2359,-4.2785,-4.2986,-4.2986,-4.2986,-4.2986,-4.2986,-4.2986,-4.2986,-4.2986,-4.2986,-4.2986,-4.2986,-4.3187,-4.3639,-4.4493,-4.4844,-4.5522,-4.6867,-4.7581,-4.8134,-4.8711,-4.9264,-4.959,-4.959,-4.959,-4.959,-4.959,-4.959,-4.959,-4.959,-4.959,-4.959,-4.959,-4.959,-4.959,-4.959,-4.959,-4.959,-4.959,-4.959,-4.959,-4.959,-4.959,-4.959,-4.959,-4.959,-4.959,-4.959,-4.959,-4.959,-4.959,-4.959,-4.959,-4.959,-4.959,-4.959,-4.959,-4.959,-4.959,-4.959,-4.959,-4.959,-4.959,-4.959,-4.959,-4.959,-4.959,-4.959,-4.959,-4.959,-4.959,-4.959,-4.959,-4.959,-4.959,-4.959,-4.959,-4.959,-4.959,-4.959,-4.959,-4.959,-4.959,-4.959,-4.959,-4.959,-4.959,-4.959,-4.959,-4.959,-4.959,-4.959,-4.959,-4.959,-4.959,-4.959,-4.959,-4.959,-4.959,-4.959,-4.959,-4.959,-4.959,-4.959,-4.959,-4.959,-4.959,-4.959,-4.959,-4.959,-4.959,-4.2685,-4.2986,-4.2986,-4.2986,-4.2986,-4.2986,-4.2986,-4.2986,-4.2986,-4.2986,-4.2986,-4.2986,-4.2986,-4.2986,-4.3338,-4.4443,-4.4618,-4.5171,-4.6728,-4.7506,-4.8083,-4.8535,-4.9188,-4.959,-4.959,-4.959,-4.959,-4.959,-4.959,-4.959,-4.959,-4.959,-4.959,-4.959,-4.959,-4.959,-4.959,-4.959,-4.959,-4.959,-4.959,-4.959,-4.959,-4.959,-4.959,-4.959,-4.959,-4.959,-4.959,-4.959,-4.959,-4.959,-4.959,-4.959,-4.959,-4.959,-4.959,-4.959,-4.959,-4.959,-4.959,-4.959,-4.959,-4.959,-4.959,-4.959,-4.959,-4.959,-4.959,-4.959,-4.959,-4.959,-4.959,-4.959,-4.959,-4.959,-4.959,-4.959,-4.959,-4.959,-4.959,-4.959,-4.959,-4.959,-4.959,-4.959,-4.959,-4.959,-4.959,-4.959,-4.959,-4.959,-4.959,-4.959,-4.959,-4.959,-4.959,-4.959,-4.959,-4.959,-4.959,-4.959,-4.959,-4.959,-4.959,-4.959,-4.959,-4.959,-4.959,-4.959,-4.959,-4.959,-4.2685,-4.2986,-4.2986,-4.2986,-4.2986,-4.2986,-4.2986,-4.2986,-4.2986,-4.2986,-4.2986,-4.2986,-4.2986,-4.2986,-4.3338,-4.4443,-4.4618,-4.5045,-4.6225,-4.7255,-4.7933,-4.7983,-4.8937,-4.959,-4.959,-4.959,-4.959,-4.959,-4.959,-4.959,-4.959,-4.959,-4.959,-4.959,-4.959,-4.959,-4.959,-4.959,-4.959,-4.959,-4.959,-4.959,-4.959,-4.959,-4.959,-4.959,-4.959,-4.959,-4.959,-4.959,-4.959,-4.959,-4.959,-4.959,-4.959,-4.959,-4.959,-4.959,-4.959,-4.959,-4.959,-4.959,-4.959,-4.959,-4.959,-4.959,-4.959,-4.959,-4.959,-4.959,-4.959,-4.959,-4.959,-4.959,-4.959,-4.959,-4.959,-4.959,-4.959,-4.959,-4.959,-4.959,-4.959,-4.959,-4.959,-4.959,-4.959,-4.959,-4.959,-4.959,-4.959,-4.959,-4.959,-4.959,-4.959,-4.959,-4.959,-4.959,-4.959,-4.959,-4.959,-4.959,-4.959,-4.959,-4.959,-4.959,-4.959,-4.959,-4.959,-4.959,-4.959,-4.959,-4.2183,-4.2539,-4.2615,-4.2886,-4.2986,-4.2986,-4.2986,-4.2986,-4.2986,-4.2986,-4.2986,-4.2986,-4.2986,-4.3237,-4.374,-4.4493,-4.492,-4.5422,-4.62,-4.723,-4.7908,-4.7908,-4.8912,-4.959,-4.959,-4.959,-4.959,-4.959,-4.959,-4.959,-4.959,-4.959,-4.959,-4.959,-4.959,-4.959,-4.959,-4.959,-4.959,-4.959,-4.959,-4.959,-4.959,-4.959,-4.959,-4.959,-4.959,-4.959,-4.959,-4.959,-4.959,-4.959,-4.959,-4.959,-4.959,-4.959,-4.959,-4.959,-4.959,-4.959,-4.959,-4.959,-4.959,-4.959,-4.959,-4.959,-4.959,-4.959,-4.959,-4.959,-4.959,-4.959,-4.959,-4.959,-4.959,-4.959,-4.959,-4.959,-4.959,-4.959,-4.959,-4.959,-4.959,-4.959,-4.959,-4.959,-4.959,-4.995,-5.0916,-5.1016,-5.1393,-5.2359,-5.0753,-4.959,-4.959,-4.959,-4.959,-4.959,-4.959,-4.959,-4.959,-5.0563,-5.06,-4.959,-5.1518,-5.1989,-5.1016,-5.1989,-5.2482,-5.2482,-5.2482,-5.2482,-4.2506,-4.2587,-4.2539,-4.2942,-4.3295,-4.3492,-4.3073,-4.3295,-4.3492,-4.3073,-4.2986,-4.2986,-4.2986,-4.3438,-4.3991,-4.4543,-4.5121,-4.5673,-4.6225,-4.723,-4.7908,-4.7908,-4.8912,-4.959,-4.959,-4.959,-4.959,-4.959,-4.959,-4.959,-4.959,-4.959,-4.959,-4.959,-4.959,-4.959,-4.959,-4.959,-4.959,-4.959,-4.959,-4.959,-4.959,-4.959,-4.959,-4.959,-4.959,-4.959,-4.959,-4.959,-4.959,-4.959,-4.959,-4.959,-4.959,-4.959,-4.959,-4.959,-4.959,-4.959,-4.959,-4.959,-4.959,-4.959,-4.959,-4.959,-4.959,-4.959,-4.959,-4.959,-4.959,-4.959,-4.959,-4.959,-4.959,-4.9719,-5.0181,-5.0308,-5.0436,-5.0916,-5.1042,-5.1042,-5.1042,-5.1042,-5.1042,-5.1042,-5.1042,-5.1455,-5.2578,-5.27,-5.3126,-5.4268,-5.2359,-5.1042,-5.1042,-5.1042,-5.1042,-5.1042,-5.1042,-5.1042,-5.1042,-5.2112,-5.2174,-5.1042,-5.3275,-5.385,-5.27,-5.385,-5.4386,-5.4386,-5.4386,-5.4623,-4.3914,-4.3524,-4.2961,-4.2986,-4.4016,-4.4643,-4.3295,-4.4016,-4.4589,-4.3295,-4.2986,-4.2986,-4.2986,-4.3438,-4.3991,-4.4543,-4.5121,-4.5673,-4.6225,-4.723,-4.7908,-4.7908,-4.8912,-4.959,-4.959,-4.959,-4.959,-4.959,-4.959,-4.959,-4.959,-4.959,-4.959,-4.959,-4.959,-4.959,-4.959,-4.959,-4.959,-4.959,-4.959,-4.959,-4.959,-4.959,-4.959,-4.959,-4.959,-4.959,-4.959,-4.959,-4.959,-4.959,-4.959,-4.959,-4.959,-4.959,-4.959,-4.959,-4.959,-4.959,-4.959,-4.959,-4.959,-4.959,-4.959,-4.959,-4.959,-4.959,-4.959,-4.959,-4.959,-4.959,-4.959,-4.959,-4.959,-5.0014,-5.1616,-5.1989,-5.2455,-5.4029,-5.4327,-5.4327,-5.4327,-5.4327,-5.4327,-5.4327,-5.4327,-5.4327,-5.4327,-5.4386,-5.4386,-5.4386,-5.4327,-5.4327,-5.4327,-5.4327,-5.4327,-5.4327,-5.4327,-5.4327,-5.4327,-5.4327,-5.4327,-5.4327,-5.4386,-5.4386,-5.4386,-5.4386,-5.4386,-5.4386,-5.4386,-5.5211,-4.3814,-4.3772,-4.336,-4.3643,-4.5103,-4.6083,-4.4671,-4.4671,-4.5155,-4.5714,-4.4318,-4.3295,-4.4209,-4.5233,-4.5623,-4.4767,-4.625,-4.7269,-4.6396,-4.723,-4.7908,-4.7908,-4.8912,-4.959,-4.959,-4.959,-4.959,-4.959,-4.959,-4.959,-4.959,-4.959,-4.959,-4.959,-4.959,-4.959,-4.959,-4.959,-4.959,-4.959,-4.959,-4.959,-4.959,-4.959,-4.959,-4.959,-4.959,-4.959,-4.959,-4.959,-4.959,-4.959,-4.959,-4.959,-4.959,-4.959,-4.959,-4.959,-4.959,-4.959,-4.959,-4.959,-4.959,-4.959,-4.959,-4.959,-4.959,-4.959,-5.0372,-5.1268,-5.1268,-5.2051,-5.291,-5.291,-5.291,-5.3032,-5.3549,-5.361,-5.379,-5.4268,-5.4386,-5.4386,-5.4386,-5.4386,-5.4386,-5.4386,-5.4386,-5.48,-5.5849,-5.5964,-5.6394,-5.7496,-5.7637,-5.6736,-5.4564,-5.4386,-5.4386,-5.4386,-5.4386,-5.4386,-5.4386,-5.5385,-5.5502,-5.4386,-5.6508,-5.7104,-5.5964,-5.7104,-5.7637,-5.7637,-5.7637,-5.786,-4.4961,-4.4941,-4.453,-4.5121,-4.6562,-4.7503,-4.6135,-4.6188,-4.6682,-4.7043,-4.5767,-4.4643,-4.4941,-4.6462,-4.7152,-4.5716,-4.7163,-4.821,-4.7265,-4.7572,-4.8058,-4.8485,-4.9163,-4.959,-4.959,-4.959,-4.959,-4.959,-4.959,-4.959,-4.959,-4.959,-4.959,-4.959,-4.959,-4.959,-4.959,-4.959,-4.959,-4.959,-4.959,-4.959,-4.959,-4.959,-4.959,-4.959,-4.959,-4.959,0.0,-4.959,-4.959,-4.959,-4.959,-4.959,-4.959,-4.959,-4.959,-4.959,-4.959,-4.959,-4.959,-4.959,-4.959,-4.9719,-5.0308,-5.0078,-4.959,-4.959,-5.079,-5.1989,-5.1989,-5.3187,-5.4386,-5.4386,-5.4386,-5.4564,-5.5152,-5.5269,-5.5444,-5.605,-5.6165,-5.6165,-5.6165,-5.6165,-5.6165,-5.6165,-5.6165,-5.6508,-5.7496,-5.7608,-5.797,-5.8991,-5.9099,-5.8276,-5.6337,-5.6165,-5.6165,-5.6165,-5.6165,-5.6165,-5.6165,-5.7104,-5.716,-5.6223,-5.811,-5.8634,-5.7608,-5.8634,-5.9099,-5.9099,-5.9099,-5.9099,0.0,-4.6748,-4.6344,-4.6975,-4.8261,-4.8964,-4.7554,-4.8289,0.0,-4.7656,-4.7248,-4.6761,-4.5555,-4.7376,-4.8596,-4.7342,-4.7963,-4.8647,-4.8584,-4.8205,-4.8385,-4.9464,-4.959,-4.959,-4.959,-4.959,-4.959,-4.959,-4.959,-4.959,-4.959,-4.959,-4.959,-4.959,-4.959,-4.959,-4.959,-4.959,-4.959,-4.959,-4.959,-4.959,-4.959,-4.959,-4.959,-4.959,-4.959,-4.959,-4.959,-4.959,-4.959,-4.959,-4.959,-4.959,-4.959,-4.959,-4.959,-4.959,-4.959,-4.959,-4.959,-4.9719,-4.9783,-5.0078,-5.1678,-5.1016,-4.9783,-4.9886,-5.1079,-5.2332,-5.2332,-5.3549,-5.4741,-5.4741,-5.4741,-5.5094,-5.6537,-5.6849,-5.7328,-5.8798,-5.9099,-5.9099,-5.9099,-5.9099,-5.9099,-5.9099,-5.9099,-5.9099,-5.9099,-5.9099,-5.9099,-5.9099,-5.9099,-5.9099,-5.9099,-5.9099,-5.9099,-5.9099,-5.9099,-5.9099,-5.9099,-5.9099,-5.9099,-5.9099,-5.9099,-5.9099,-5.9099,-5.9099,-5.9099,-5.9099,-5.9099,-5.9099,-4.8609,0.0,-4.7252,-4.7832,-4.9349,-5.0383,0.0,-4.8964,-4.9406,-5.0095,-4.8539,-4.7489,-4.8737,-4.9853,-5.0299,-4.9363,-4.972,-4.9926,-4.9202,-4.8794,-4.8812,-4.9515,-4.959,-4.959,-4.959,-4.959,-4.959,-4.959,-4.959,-4.959,-4.959,-4.959,-4.959,-4.959,-4.959,-4.959,-4.959,-4.959,-4.959,-4.959,-4.959,-4.959,-4.959,-4.959,-4.959,-4.959,-4.959,-4.959,-4.959,-4.959,-4.959,-4.959,-4.959,-4.959,-4.959,-4.959,-4.959,-4.959,-4.959,-4.959,-4.9783,-5.1016,-5.1429,-5.1741,-5.3368,-5.27,-5.1678,-5.291,-5.4359,-5.559,-5.559,-5.6792,-5.8,-5.8,-5.8,-5.811,-5.844,-5.858,-5.8634,-5.9045,-5.9099,-5.9099,-5.9099,-5.9099,-5.9099,-5.9099,-5.9099,-5.9099,-5.9099,-5.9099,-5.9099,-5.9099,-5.9099,-5.9099,-5.9099,-5.9099,-5.9099,-5.9099,-5.9099,-5.9099,-5.9099,-5.9099,-5.9099,-5.9099,-5.9099,-5.9099,-5.9099,-5.9099,-5.9099,-5.9099,-5.9099,-5.9099,-4.9523,-4.9215,-4.8823,-4.9421,-5.0384,-5.1011,-5.0287,-5.0143,-5.0335,-5.1058,-5.0017,-4.8987,-4.911,-5.0195,-5.0772,-5.0043,-4.9774,-4.9462,-4.8773,-4.8745,-4.8987,-4.954,-4.959,-4.959,-4.959,-4.959,-4.959,-4.959,-4.959,-4.959,-4.959,-4.959,-4.959,-4.959,-4.959,-4.959,-4.959,-4.959,-4.959,-4.959,-4.959,-4.959,-4.959,-4.959,-4.959,-4.959,-4.959,-4.959,-4.959,-4.959,-4.959,-4.959,-4.959,-4.959,-4.959,-4.959,-4.959,-4.959,-4.959,-5.0078,-5.0979,-5.2578,-5.3126,-5.3429,-5.4976,-5.4831,-5.4181,-5.4327,-5.5502,-5.6736,-5.6736,-5.7915,-5.9099,-5.9099,-5.9099,-5.9099,-5.9099,-5.9099,-5.9099,-5.9099,-5.9099,-5.9099,-5.9099,-5.9099,-5.9099,-5.9099,-5.9099,-5.9099,-5.9099,-5.9099,-5.9099,-5.9099,-5.9099,-5.9099,-5.9099,-5.9099,-5.9099,-5.9099,-5.9099,-5.9099,-5.9099,-5.9099,-5.9099,-5.9099,-5.9099,-5.9099,-5.9099,-5.9099,-5.9099,-5.9099,-5.9099,-5.9249,-5.0046,-5.0117,-5.0232,-5.1033,-5.1229,-5.1229,-5.1229,-5.1229,-5.1229,-5.1229,-5.1229,-5.0618,-4.871,-4.9818,-5.0777,-5.0154,-4.9346,-4.8603,-4.8131,-4.8535,-4.9063,-4.954,-4.959,-4.959,-4.959,-4.959,-4.959,-4.959,-4.959,-4.959,-4.959,-4.959,-4.959,-4.959,-4.959,-4.959,-4.959,-4.959,-4.959,-4.959,-4.959,-4.959,-4.959,-4.959,-4.959,-4.959,-4.959,-4.959,-4.959,-4.959,-4.959,-4.959,-4.959,-4.959,-4.9654,-4.9886,-4.995,-5.0014,-5.0245,-5.1205,-5.2639,-5.4208,-5.4741,-5.5035,-5.6622,-5.7075,-5.6792,-5.5502,-5.605,-5.7075,-5.7075,-5.8081,-5.9099,-5.9099,-5.9099,-5.9099,-5.9099,-5.9099,-5.9099,-5.9099,-5.9099,-5.9099,-5.9099,-5.9099,-5.9099,-5.9099,-5.9099,-5.9099,-5.9099,-5.9099,-5.9099,-5.9099,-5.9099,-5.9099,-5.9099,-5.9099,-5.9099,-5.9099,-5.9099,-5.9099,-5.9099,-5.9099,-5.9099,-5.9099,-5.9099,-5.9099,-5.9099,-5.9189,-5.9249,-5.9249,-5.9368,-5.9697,-5.0166,-4.9775,-4.9659,-5.0887,-5.1229,-5.1229,-5.1229,-5.1229,-5.1229,-5.1229,-5.1229,-5.1083,-5.0615,-5.08,-5.0919,-5.0601,-5.0232,-4.9646,-4.8787,-4.9113,-4.949,-4.959,-4.959,-4.959,-4.959,-4.959,-4.959,-4.959,-4.959,-4.959,-4.959,-4.959,-4.959,-4.959,-4.959,-4.959,-4.959,-4.959,-4.959,-4.959,-4.959,-4.959,-4.959,-4.959,-4.959,-4.959,-4.959,-4.959,-4.959,-4.959,-4.959,-4.959,-4.959,-4.959,-4.9783,-5.1142,-5.1616,-5.1803,-5.3187,-5.379,-5.4268,-5.5849,-5.6366,-5.6679,-5.8276,-5.8743,-5.8689,-5.847,-5.858,-5.8743,-5.8743,-5.8936,-5.9099,-5.9099,-5.9099,-5.9099,-5.9099,-5.9099,-5.9099,-5.9099,-5.9099,-5.9099,-5.9099,-5.9099,-5.9099,-5.9099,-5.9099,-5.9099,-5.9099,-5.9099,-5.9099,-5.9099,-5.9099,-5.9099,-5.9099,-5.9099,-5.9099,-5.9099,-5.9099,-5.9099,-5.9099,-5.9099,-5.9099,-5.9099,-5.9099,-5.9099,-5.9099,-5.9668,-5.9937,-5.9937,-6.0535,-6.0864,-5.0734,-5.0538,-5.043,-5.1058,-5.0095,-4.9014,-4.9014,-4.9014,-4.921,-4.9969,-5.0436,-5.0493,-4.9912,-5.0073,-4.9964,-4.8885,-4.9574,-4.988,-4.8939,-4.9238,-4.959,-4.959,-4.959,-4.959,-4.959,-4.959,-4.959,-4.959,-4.959,-4.959,-4.959,-4.959,-4.959,-4.959,-4.959,-4.959,-4.959,-4.959,-4.959,-4.959,-4.959,-4.959,-4.959,-4.959,-4.959,-4.959,-4.959,-4.959,-4.9654,-5.0563,-5.0916,-5.0954,-5.1891,-5.2174,-5.2297,-5.3005,-5.3308,-5.3549,-5.5094,-5.5618,-5.5907,-5.7496,-5.797,-5.8136,-5.8882,-5.9099,-5.9099,-5.9099,-5.9099,-5.9099,-5.9099,-5.9099,-5.9099,-5.9099,-5.9099,-5.9099,-5.9099,-5.9099,-5.9099,-5.9099,-5.9099,-5.9099,-5.9099,-5.9099,-5.9099,-5.9099,-5.9099,-5.9099,-5.9099,-5.9099,-5.9249,-5.9608,-5.9638,-5.9787,-6.0146,-6.0176,-5.9877,-5.9159,-5.9099,-5.9099,-5.9099,-5.9458,-5.9638,-5.9638,-5.9997,-6.0176,-6.0176,-6.0505,-6.0655,-6.0655,-6.0954,-6.1313,-5.1229,-5.0964,-5.0745,-5.0745,-4.9406,-4.8088,-4.8088,-4.8088,-4.8318,-4.9186,-5.0092,-5.0321,-4.9241,-4.9365,-4.9204,-4.8016,-4.9274,-5.0089,-4.9115,-4.999,-5.0436,-4.9719,-4.995,-5.0142,-5.0142,-4.9847,-4.9783,-5.0142,-4.9847,-4.959,-4.959,-4.959,-4.959,-4.959,-4.959,-4.959,-4.959,-4.959,-4.959,-4.959,-4.959,-4.959,-4.959,-5.0014,-5.0142,-5.0181,-5.0563,-5.0727,-5.079,-5.2051,-5.2578,-5.27,-5.391,-5.4623,-5.4918,-5.4918,-5.5152,-5.5676,-5.6849,-5.7243,-5.7496,-5.8689,-5.9099,-5.9099,-5.9099,-5.9099,-5.9099,-5.9099,-5.9099,-5.9099,-5.9099,-5.9099,-5.9099,-5.9099,-5.9099,-5.9099,-5.9099,-5.9099,-5.9099,-5.9099,-5.9099,-5.9159,-5.9308,-5.9338,-5.9398,-5.9548,-5.9578,-5.9578,-5.9578,-5.9578,-5.9787,-6.0266,-6.0326,-6.0535,-6.1074,-6.1104,-6.0685,-5.9638,-5.9578,-5.9578,-5.9578,-6.0057,-6.0326,-6.0326,-6.0835,-6.1104,-6.1104,-6.1283,-6.1343,-6.1343,-6.1493,-6.1852,-5.1229,-5.0287,-4.9357,-4.9357,-5.0143,-5.0917,-5.0917,-5.0917,-5.0733,-5.006,-5.1053,-5.1591,-4.9955,-4.9481,-4.9488,-4.9909,-5.0635,-5.0777,-4.9696,-5.2148,-5.2971,-4.995,-5.0916,-5.1865,-5.1865,-5.0499,-5.0181,-5.1741,-5.0436,-4.959,-4.959,-4.959,-4.959,-4.959,-4.959,-4.959,-4.959,-4.959,-4.959,-4.959,-4.959,-4.959,-4.9654,-5.1142,-5.1865,-5.1927,-5.3429,-5.4029,-5.4029,-5.4149,-5.4208,-5.4208,-5.4327,-5.5269,-5.6537,-5.6537,-5.7496,-5.8743,-5.8882,-5.8936,-5.8936,-5.9045,-5.9099,-5.9099,-5.9099,-5.9099,-5.9099,-5.9099,-5.9099,-5.9099,-5.9099,-5.9099,-5.9099,-5.9099,-5.9099,-5.9099,-5.9099,-5.9099,-5.9099,-5.9099,-5.9099,-5.9308,-5.9907,-6.0027,-6.0236,-6.0864,-6.0984,-6.0984,-6.0984,-6.0984,-6.0984,-6.1044,-6.1044,-6.1074,-6.1104,-6.1104,-6.1074,-6.0984,-6.0984,-6.0984,-6.0984,-6.1014,-6.1044,-6.1044,-6.1104,-6.1104,-6.1104,-6.1732,-6.2032,-6.2032,-6.266,-6.2959,-5.1229,-5.0822,-5.043,-5.043,-5.1119,-5.1368,-4.9638,-4.9259,-4.9559,-5.0493,-5.1461,-5.218,-5.2291,-5.1488,-5.1099,-5.2077,-5.243,-5.2631,-5.2585,-5.361,-5.3969,-5.2727,-5.3126,-5.3489,-5.3489,-5.2051,-5.133,-5.1989,-5.1429,-5.1079,-5.1079,-5.2051,-5.2604,-5.2604,-5.2604,-5.2604,-5.2604,-5.2604,-5.2604,-5.2543,-5.158,-5.1079,-5.1142,-5.2761,-5.3489,-5.3549,-5.4149,-5.4386,-5.4446,-5.5444,-5.5849,-5.5907,-5.6934,-5.7693,-5.8221,-5.8221,-5.858,-5.9099,-5.9099,-5.9099,-5.9099,-5.9099,-5.9099,-5.9099,-5.9099,-5.9099,-5.9099,-5.9099,-5.9099,-5.9099,-5.9099,-5.9099,-5.9099,-5.9099,-5.9099,-5.9099,-5.9099,-5.9428,-5.9727,-5.9727,-6.0057,-6.0416,-6.0685,-6.0715,-6.0805,-6.1074,-6.1104,-6.1104,-6.1104,-6.1104,-6.1283,-6.1672,-6.2091,-6.2331,-6.2331,-6.2331,-6.2331,-6.2331,-6.1553,-6.1104,-6.1104,-6.1493,-6.1732,-6.1732,-6.2121,-6.2331,-6.2331,-6.26,-6.272,-6.272,-6.2959,-6.3079,-5.1229,-5.1229,-5.1259,-5.1468,-5.1858,-5.1843,-5.0348,-4.9853,-5.0035,-5.1155,-5.2064,-5.3058,-5.438,-5.3711,-5.3247,-5.4088,-5.4368,-5.4474,-5.439,-5.5297,-5.5502,-5.4505,-5.48,-5.5152,-5.5152,-5.367,-5.2944,-5.3462,-5.3066,-5.2761,-5.2761,-5.379,-5.4386,-5.4386,-5.4386,-5.4386,-5.4386,-5.4386,-5.4386,-5.4386,-5.3763,-5.322,-5.2822,-5.4386,-5.5152,-5.5152,-5.5618,-5.5877,-5.5993,-5.7018,-5.744,-5.7552,-5.8689,-5.9099,-5.9099,-5.9099,-5.9099,-5.9099,-5.9099,-5.9099,-5.9099,-5.9099,-5.9099,-5.9099,-5.9099,-5.9099,-5.9099,-5.9099,-5.9099,-5.9099,-5.9099,-5.9099,-5.9099,-5.9099,-5.9249,-5.9428,-5.9428,-5.9937,-6.0416,-6.0416,-6.0805,-6.1194,-6.1373,-6.1433,-6.1493,-6.1702,-6.1732,-6.1732,-6.1732,-6.1732,-6.1912,-6.2361,-6.281,-6.3079,-6.3079,-6.3079,-6.3079,-6.3079,-6.2241,-6.1732,-6.1732,-6.2181,-6.2421,-6.2421,-6.2839,-6.3079,-6.3079,-6.3079,-6.3079,-6.3079,-6.3079,-6.3079,-5.1229,-5.1229,-5.1379,-5.2037,-5.2217,-5.2576,-5.3892,-5.3683,-5.301,-5.2185,-5.3073,-5.4396,-5.596,-5.5933,-5.5729,-5.5843,-5.6332,-5.6194,-5.4623,-5.7104,-5.7915,-5.4828,-5.5791,-5.6736,-5.6736,-5.5327,-5.5035,-5.6622,-5.5269,-5.4386,-5.4386,-5.4446,-5.4446,-5.4446,-5.4446,-5.4446,-5.4446,-5.4446,-5.4446,-5.4446,-5.5964,-5.5907,-5.4446,-5.6022,-5.6736,-5.6792,-5.8386,-5.9099,-5.9099,-5.9099,-5.9099,-5.9099,-5.9099,-5.9099,-5.9099,-5.9099,-5.9099,-5.9099,-5.9099,-5.9099,-5.9099,-5.9099,-5.9099,-5.9099,-5.9099,-5.9099,-5.9099,-5.9129,-5.9129,-5.9129,-5.9129,-5.9129,-5.9129,-5.9129,-5.9608,-6.0086,-6.0086,-6.0625,-6.1134,-6.1134,-6.1134,-6.1343,-6.2002,-6.2121,-6.2331,-6.2989,-6.3079,-6.3079,-6.3079,-6.3079,-6.3079,-6.3079,-6.3079,-6.3079,-6.3079,-6.3079,-6.3079,-6.3079,-6.3079,-6.3079,-6.3079,-6.3079,-6.3079,-6.3079,-6.3079,-6.3079,-6.3079,-6.3079,-6.3079,-6.3079,-6.3079,-6.3079,-5.1917,-5.2247,-5.2636,-5.2845,-5.3264,-5.3713,-5.4132,-5.4042,-5.4122,-5.4789,-5.5597,-5.6443,-5.7348,-5.747,-5.7587,-5.8031,-5.8267,-5.8221,-5.7749,-5.8525,-5.8743,-5.7804,-5.811,-5.8386,-5.8386,-5.6962,-5.6194,-5.6679,-5.6251,-5.6022,-5.6022,-5.7104,-5.7693,-5.7693,-5.7693,-5.7693,-5.7693,-5.7693,-5.7693,-5.7693,-5.8166,-5.7552,-5.6079,-5.7664,-5.8386,-5.8386,-5.8882,-5.9099,-5.9099,-5.9099,-5.9099,-5.9099,-5.9099,-5.9099,-5.9099,-5.9099,-5.9099,-5.9099,-5.9099,-5.9099,-5.9099,-5.9099,-5.9099,-5.9099,-5.9099,-5.9099,-5.9189,-5.9668,-5.9787,-5.9907,-6.0386,-6.0535,-6.0386,-5.9907,-6.0326,-6.0805,-6.0805,-6.1343,-6.1792,-6.1792,-6.2181,-6.257,-6.275,-6.278,-6.2839,-6.3049,-6.3079,-6.3079,-6.3079,-6.3079,-6.3079,-6.3079,-6.3079,-6.3079,-6.3079,-6.3079,-6.3079,-6.3079,-6.3079,-6.3079,-6.3079,-6.3079,-6.3079,-6.3079,-6.3079,-6.3079,-6.3079,-6.3079,-6.3079,-6.3079,-6.3079,-6.3079,-5.2606,-5.2875,-5.3234,-5.3533,-5.3892,-5.4341,-5.488,-5.4999,-5.5269,-5.6316,-5.7064,-5.7633,-5.8052,-5.8351,-5.865,-5.9039,-5.9099,-5.9099,-5.9099,-5.9099,-5.9099,-5.9099,-5.9099,-5.9099,-5.9099,-5.8221,-5.7664,-5.7664,-5.7664,-5.7664,-5.7664,-5.858,-5.9099,-5.9099,-5.9099,-5.9099,-5.9099,-5.9099,-5.9099,-5.9099,-5.9099,-5.858,-5.7664,-5.8689,-5.9099,-5.9099,-5.9099,-5.9099,-5.9099,-5.9099,-5.9099,-5.9099,-5.9099,-5.9099,-5.9099,-5.9099,-5.9099,-5.9099,-5.9099,-5.9099,-5.9099,-5.9099,-5.9099,-5.9099,-5.9099,-5.9279,-5.9578,-5.9967,-6.0266,-6.0595,-6.1014,-6.1313,-6.1343,-6.0655,-6.1014,-6.1493,-6.1493,-6.2032,-6.248,-6.248,-6.281,-6.3079,-6.3079,-6.3079,-6.3079,-6.3079,-6.3079,-6.3079,-6.3079,-6.3079,-6.3079,-6.3079,-6.3079,-6.3079,-6.3079,-6.3079,-6.3079,-6.3079,-6.3079,-6.3079,-6.3079,-6.3079,-6.3079,-6.3079,-6.3079,-6.3079,-6.3079,-6.3079,-6.3079,-6.3079,-6.3079,-6.3079,-5.3264,-5.3324,-5.3503,-5.4132,-5.4341,-5.473,-5.5957,-5.6316,-5.6496,-5.7064,-5.7723,-5.8201,-5.8201,-5.871,-5.9099,-5.9099,-5.9099,-5.9099,-5.9099,-5.9099,-5.9099,-5.9099,-5.9099,-5.9099,-5.9099,-5.9099,-5.9099,-5.9099,-5.9099,-5.9099,-5.9099,-5.9099,-5.9099,-5.9099,-5.9099,-5.9099,-5.9099,-5.9099,-5.9099,-5.9099,-5.9099,-5.9099,-5.9099,-5.9099,-5.9099,-5.9099,-5.9099,-5.9099,-5.9099,-5.9099,-5.9099,-5.9099,-5.9099,-5.9099,-5.9099,-5.9099,-5.9099,-5.9099,-5.9099,-5.9099,-5.9099,-5.9099,-5.9129,-5.9189,-5.9189,-5.9668,-6.0176,-6.0266,-6.0715,-6.1224,-6.1283,-6.1732,-6.2032,-6.1433,-6.1762,-6.2181,-6.2181,-6.266,-6.3079,-6.3079,-6.3079,-6.3079,-6.3079,-6.3079,-6.3079,-6.3079,-6.3079,-6.3079,-6.3079,-6.3079,-6.3079,-6.3079,-6.3079,-6.3079,-6.3079,-6.3079,-6.3079,-6.3079,-6.3079,-6.3079,-6.3079,-6.3079,-6.3079,-6.3079,-6.3079,-6.3079,-6.3079,-6.3139,-6.3169,-6.3169,-6.3228,-6.3258,-5.3982,-5.4371,-5.479,-5.494,-5.5359,-5.5957,-5.6705,-5.7304,-5.7752,-5.7872,-5.8441,-5.889,-5.889,-5.9009,-5.9099,-5.9099,-5.9099,-5.9099,-5.9099,-5.9099,-5.9099,-5.9099,-5.9099,-5.9099,-5.9099,-5.9099,-5.9099,-5.9099,-5.9099,-5.9099,-5.9099,-5.9099,-5.9099,-5.9099,-5.9099,-5.9099,-5.9099,-5.9099,-5.9099,-5.9099,-5.9099,-5.9099,-5.9099,-5.9099,-5.9099,-5.9099,-5.9099,-5.9099,-5.9099,-5.9099,-5.9099,-5.9099,-5.9099,-5.9099,-5.9099,-5.9099,-5.9099,-5.9099,-5.9099,-5.9099,-5.9099,-5.9099,-5.9458,-5.9877,-5.9877,-6.0356,-6.0984,-6.1523,-6.1762,-6.2002,-6.251,-6.275,-6.2839,-6.269,-6.275,-6.2869,-6.2869,-6.2989,-6.3079,-6.3079,-6.3079,-6.3079,-6.3079,-6.3079,-6.3079,-6.3079,-6.3079,-6.3079,-6.3079,-6.3079,-6.3079,-6.3079,-6.3079,-6.3079,-6.3079,-6.3079,-6.3079,-6.3079,-6.3079,-6.3079,-6.3079,-6.3079,-6.3079,-6.3079,-6.3079,-6.3079,-6.3079,-6.3558,-6.3797,-6.3827,-6.4366,-6.4605,-5.467,-5.494,-5.5269,-5.5598,-5.6137,-5.6795,-5.7423,-5.8112,-5.859,-5.859,-5.886,-5.9099,-5.9099,-5.9099,-5.9099,-5.9099,-5.9099,-5.9099,-5.9099,-5.9099,-5.9099,-5.9099,-5.9099,-5.9099,-5.9099,-5.9099,-5.9099,-5.9099,-5.9099,-5.9099,-5.9099,-5.9099,-5.9099,-5.9099,-5.9099,-5.9249,-5.9578,-5.9578,-5.9727,-6.0057,-6.0057,-6.0057,-6.0057,-5.9398,-5.9099,-5.9099,-5.9099,-5.9099,-5.9099,-5.9099,-5.9099,-5.9099,-5.9099,-5.9099,-5.9099,-5.9099,-5.9099,-5.9159,-5.9458,-5.9578,-5.9638,-5.9967,-6.0296,-6.0565,-6.0565,-6.1044,-6.1642,-6.2002,-6.2331,-6.266,-6.2989,-6.3079,-6.3079,-6.3079,-6.3079,-6.3079,-6.3079,-6.3079,-6.3079,-6.3079,-6.3079,-6.3079,-6.3079,-6.3079,-6.3079,-6.3079,-6.3079,-6.3079,-6.3079,-6.3079,-6.3079,-6.3079,-6.3348,-6.3528,-6.3528,-6.3827,-6.4006,-6.4006,-6.4006,-6.4006,-6.4006,-6.4006,-6.3857,-6.3528,-6.3857,-6.4006,-6.4006,-6.4336,-6.4485,-6.4515,-6.4874,-6.5024,-5.5179,-5.5179,-5.5359,-5.6017,-5.6645,-5.7274,-5.7962,-5.862,-5.9099,-5.9099,-5.9099,-5.9099,-5.9099,-5.9099,-5.9099,-5.9099,-5.9099,-5.9099,-5.9099,-5.9099,-5.9099,-5.9099,-5.9099,-5.9099,-5.9099,-5.9099,-5.9099,-5.9099,-5.9099,-5.9099,-5.9099,-5.9219,-5.9279,-5.9279,-5.9398,-5.9727,-6.0266,-6.0266,-6.0565,-6.1104,-6.1104,-6.1104,-6.1074,-5.9967,-5.9458,-5.9458,-5.9458,-5.9368,-5.9279,-5.9279,-5.9189,-5.9129,-5.9219,-5.9279,-5.9279,-5.9398,-5.9458,-5.9518,-6.0086,-6.0266,-6.0356,-6.0924,-6.1194,-6.1283,-6.1283,-6.1732,-6.2271,-6.2271,-6.266,-6.3079,-6.3079,-6.3079,-6.3079,-6.3079,-6.3079,-6.3079,-6.3079,-6.3079,-6.3079,-6.3079,-6.3079,-6.3079,-6.3079,-6.3079,-6.3079,-6.3079,-6.3079,-6.3079,-6.3079,-6.3169,-6.3228,-6.3228,-6.3797,-6.4186,-6.4186,-6.4695,-6.5024,-6.5024,-6.5024,-6.5024,-6.5024,-6.5144,-6.4934,-6.4366,-6.4784,-6.5024,-6.5024,-6.5144,-6.5203,-6.5203,-6.5323,-6.5383,-5.5179,-5.5179,-5.5359,-5.6017,-5.6645,-5.7274,-5.7962,-5.862,-5.9099,-5.9099,-5.9099,-5.9099,-5.9099,-5.9099,-5.9099,-5.9099,-5.9099,-5.9099,-5.9099,-5.9099,-5.9099,-5.9099,-5.9099,-5.9099,-5.9099,-5.9099,-5.9099,-5.9099,-5.9099,-5.9099,-5.9099,-5.9638,-5.9967,-5.9967,-6.0535,-6.0894,-6.0984,-6.0984,-6.1014,-6.1104,-6.1104,-6.1104,-6.1104,-6.0924,-6.0835,-6.0835,-6.0835,-6.0505,-5.9967,-5.9967,-5.9608,-5.9159,-5.9727,-5.9967,-6.0027,-6.0625,-6.0835,-6.0864,-6.0954,-6.0984,-6.0984,-6.1074,-6.1493,-6.1972,-6.1972,-6.2421,-6.2959,-6.2959,-6.3019,-6.3079,-6.3079,-6.3079,-6.3079,-6.3079,-6.3079,-6.3079,-6.3079,-6.3079,-6.3079,-6.3079,-6.3079,-6.3079,-6.3079,-6.3079,-6.3079,-6.3079,-6.3079,-6.3079,-6.3079,-6.3558,-6.3887,-6.3887,-6.4485,-6.4904,-6.4904,-6.4964,-6.5024,-6.5024,-6.5024,-6.5024,-6.5024,-6.5592,-6.5832,-6.5742,-6.5263,-6.5024,-6.5024,-6.5592,-6.5892,-6.5892,-6.646,-6.6729,-5.5179,-5.5448,-5.5897,-5.6526,-5.7184,-5.7842,-5.853,-5.889,-5.9099,-5.9099,-5.9099,-5.9099,-5.9099,-5.9099,-5.9099,-5.9099,-5.9099,-5.9099,-5.9099,-5.9099,-5.9099,-5.9099,-5.9099,-5.9099,-5.9099,-5.9099,-5.9099,-5.9099,-5.9099,-5.9249,-5.9638,-5.9937,-6.0266,-6.0655,-6.0954,-6.1283,-6.1672,-6.1672,-6.1852,-6.2211,-6.2211,-6.2211,-6.2211,-6.2211,-6.1822,-6.1104,-6.1104,-6.0954,-6.0655,-6.0655,-6.0505,-6.0266,-6.0565,-6.0655,-6.0715,-6.1014,-6.1104,-6.1164,-6.1523,-6.1672,-6.1732,-6.2091,-6.2421,-6.266,-6.266,-6.2839,-6.3079,-6.3079,-6.3079,-6.3079,-6.3079,-6.3079,-6.3079,-6.3079,-6.3079,-6.3079,-6.3079,-6.3079,-6.3079,-6.3079,-6.3079,-6.3079,-6.3079,-6.3079,-6.3079,-6.3079,-6.3378,-6.3588,-6.3588,-6.4156,-6.4575,-6.4575,-6.5173,-6.5592,-6.5592,-6.5922,-6.6131,-6.6131,-6.6131,-6.6131,-6.6131,-6.64,-6.655,-6.655,-6.6281,-6.6131,-6.6131,-6.643,-6.655,-6.658,-6.6849,-6.6999,-5.5688,-5.6047,-5.6555,-5.7184,-5.7752,-5.8291,-5.8949,-5.9099,-5.9099,-5.9099,-5.9099,-5.9099,-5.9099,-5.9099,-5.9099,-5.9099,-5.9099,-5.9099,-5.9099,-5.9099,-5.9099,-5.9099,-5.9099,-5.9099,-5.9099,-5.9099,-5.9099,-5.9099,-5.9249,-5.9578,-6.0057,-6.0416,-6.0835,-6.1343,-6.1523,-6.1852,-6.2331,-6.2331,-6.26,-6.3079,-6.3079,-6.3079,-6.3079,-6.3079,-6.254,-6.1613,-6.1613,-6.1523,-6.1373,-6.1373,-6.1253,-6.1134,-6.1313,-6.1373,-6.1373,-6.1553,-6.1613,-6.1672,-6.2181,-6.2331,-6.2421,-6.2929,-6.3079,-6.3079,-6.3079,-6.3079,-6.3079,-6.3079,-6.3079,-6.3079,-6.3079,-6.3079,-6.3079,-6.3079,-6.3079,-6.3079,-6.3079,-6.3079,-6.3079,-6.3079,-6.3079,-6.3079,-6.3079,-6.3199,-6.3318,-6.3318,-6.3857,-6.4246,-6.4246,-6.4844,-6.5263,-6.5263,-6.5862,-6.6251,-6.6251,-6.67,-6.6999,-6.6999,-6.6999,-6.6999,-6.6999,-6.6999,-6.6999,-6.6999,-6.6999,-6.6999,-6.6999,-6.6999,-6.6999,-6.6999,-6.6999,-6.6999,-5.7004,-5.7034,-5.7214,-5.7902,-5.8082,-5.8291,-5.8949,-5.9099,-5.9099,-5.9099,-5.9099,-5.9099,-5.9099,-5.9099,-5.9099,-5.9099,-5.9099,-5.9099,-5.9099,-5.9099,-5.9099,-5.9099,-5.9099,-5.9099,-5.9099,-5.9099,-5.9099,-5.9099,-5.9668,-6.0057,-6.0086,-6.1283,-6.2002,-6.2061,-6.266,-6.2989,-6.3019,-6.3019,-6.3049,-6.3079,-6.3079,-6.3079,-6.3079,-6.3079,-6.3049,-6.2989,-6.2989,-6.263,-6.2061,-6.2061,-6.1672,-6.1164,-6.1792,-6.2061,-6.2121,-6.275,-6.2989,-6.2989,-6.3019,-6.3019,-6.3019,-6.3079,-6.3079,-6.3079,-6.3079,-6.3079,-6.3079,-6.3079,-6.3079,-6.3079,-6.3079,-6.3079,-6.3079,-6.3079,-6.3079,-6.3079,-6.3079,-6.3079,-6.3079,-6.3079,-6.3079,-6.3079,-6.3079,-6.3558,-6.3947,-6.3947,-6.4545,-6.4964,-6.4964,-6.5533,-6.5951,-6.5951,-6.655,-6.6939,-6.6939,-6.6969,-6.6999,-6.6999,-6.6999,-6.6999,-6.6999,-6.6999,-6.6999,-6.6999,-6.6999,-6.6999,-6.6999,-6.6999,-6.6999,-6.6999,-6.6999,-6.6999,-5.7094,-5.7423,-5.7812,-5.8052,-5.8441,-5.88,-5.9069,-5.9099,-5.9099,-5.9099,-5.9099,-5.9099,-5.9099,-5.9099,-5.9099,-5.9099,-5.9099,-5.9099,-5.9099,-5.9099,-5.9099,-5.9099,-5.9099,-5.9099,-5.9099,-5.9099,-5.9279,-5.9697,-5.9937,-6.0475,-6.1343,-6.1822,-6.2301,-6.272,-6.2959,-6.3079,-6.3079,-6.3079,-6.3079,-6.3079,-6.3079,-6.3079,-6.3079,-6.3079,-6.3079,-6.3079,-6.3079,-6.2929,-6.272,-6.272,-6.26,-6.2391,-6.263,-6.272,-6.275,-6.2989,-6.3079,-6.3079,-6.3079,-6.3079,-6.3079,-6.3079,-6.3079,-6.3079,-6.3079,-6.3079,-6.3079,-6.3079,-6.3079,-6.3079,-6.3079,-6.3079,-6.3079,-6.3079,-6.3079,-6.3079,-6.3079,-6.3079,-6.3079,-6.3079,-6.3079,-6.3199,-6.3588,-6.3857,-6.4156,-6.4605,-6.5233,-6.5652,-6.5652,-6.6221,-6.664,-6.664,-6.6849,-6.6999,-6.6999,-6.6999,-6.6999,-6.6999,-6.6999,-6.6999,-6.6999,-6.6999,-6.6999,-6.6999,-6.6999,-6.6999,-6.6999,-6.6999,-6.6999,-6.6999,-6.6999,-6.6999,-5.7782,-5.8112,-5.8471,-5.8471,-5.877,-5.9099,-5.9099,-5.9099,-5.9099,-5.9099,-5.9099,-5.9099,-5.9099,-5.9099,-5.9099,-5.9099,-5.9099,-5.9099,-5.9099,-5.9099,-5.9099,-5.9099,-5.9099,-5.9099,-5.9099,-5.9099,-5.9368,-6.0027,-6.0296,-6.0924,-6.2032,-6.2301,-6.263,-6.3079,-6.3079,-6.3079,-6.3079,-6.3079,-6.3079,-6.3079,-6.3079,-6.3079,-6.3079,-6.3079,-6.3079,-6.3079,-6.3079,-6.3079,-6.3079,-6.3079,-6.3079,-6.3079,-6.3079,-6.3079,-6.3079,-6.3079,-6.3079,-6.3079,-6.3079,-6.3079,-6.3079,-6.3079,-6.3079,-6.3079,-6.3079,-6.3079,-6.3079,-6.3079,-6.3079,-6.3079,-6.3079,-6.3079,-6.3079,-6.3079,-6.3079,-6.3139,-6.3348,-6.3228,-6.3139,-6.3348,-6.3378,-6.3588,-6.4246,-6.4515,-6.4844,-6.5293,-6.5922,-6.634,-6.634,-6.6729,-6.6999,-6.6999,-6.6999,-6.6999,-6.6999,-6.6999,-6.6999,-6.6999,-6.6999,-6.6999,-6.6999,-6.6999,-6.6999,-6.6999,-6.6999,-6.6999,-6.6999,-6.6999,-6.6999,-6.6999,-6.6999,-6.6999,0.0,0.0,0.0,-5.9099,-5.9099,-5.9099,-5.9099,-5.9099,-5.9099,-5.9099,-5.9099,-5.9099,-5.9099,-5.9099,-5.9099,-5.9099,-5.9099,-5.9099,-5.9099,-5.9099,-5.9099,-5.9099,-5.9099,-5.9099,-5.9099,-5.9129,-5.9398,-6.0057,-6.0745,-6.1433,-6.2091,-6.272,-6.3079,-6.3079,-6.3079,-6.3079,-6.3079,-6.3079,-6.3079,-6.3079,-6.3079,-6.3079,-6.3079,-6.3079,-6.3079,-6.3079,-6.3079,-6.3079,-6.3079,-6.3079,-6.3079,-6.3079,-6.3079,-6.3079,-6.3079,-6.3079,-6.3079,-6.3079,-6.3079,-6.3079,-6.3079,-6.3079,-6.3079,-6.3079,-6.3079,-6.3079,-6.3079,-6.3079,-6.3079,-6.3079,-6.3079,-6.3079,-6.3079,-6.3109,-6.3109,-6.3258,-6.3887,-6.3558,-6.3318,-6.3917,-6.4036,-6.4246,-6.4934,-6.5592,-6.6011,-6.6041,-6.658,-6.6999,-6.6999,-6.6999,-6.6999,-6.6999,-6.6999,-6.6999,-6.6999,-6.6999,-6.6999,-6.6999,-6.6999,-6.6999,-6.6999,-6.6999,-6.6999,-6.6999,-6.6999,-6.6999,-6.7029,-6.6999,-6.6999,-6.6999,-6.6999,-6.7029,-5.9099,0.0,0.0,0.0,0.0,0.0,-5.9099,-5.9099,-5.9099,-5.9099,-5.9099,-5.9099,-5.9099,-5.9099,-5.9099,-5.9099,-5.9099,-5.9099,-5.9099,-5.9099,-5.9099,-5.9099,-5.9099,-5.9099,-5.9099,-5.9548,-6.0086,-6.0775,-6.1433,-6.2121,-6.278,-6.2989,-6.3079,-6.3079,-6.3079,-6.3079,-6.3079,-6.3079,-6.3079,-6.3079,-6.3079,-6.3079,-6.3079,-6.3079,-6.3079,-6.3079,-6.3079,-6.3079,-6.3079,-6.3079,-6.3079,-6.3079,-6.3079,-6.3079,-6.3079,-6.3079,-6.3079,-6.3079,-6.3079,-6.3079,-6.3079,-6.3079,-6.3079,-6.3079,-6.3079,-6.3079,-6.3079,-6.3079,-6.3079,-6.3079,-6.3079,-6.3079,-6.3199,-6.3647,-6.3737,-6.3917,-6.4605,-6.4605,-6.4545,-6.4695,-6.4755,-6.4964,-6.5622,-6.5892,-6.6161,-6.664,-6.6879,-6.6999,-6.6999,-6.6999,-6.6999,-6.6999,-6.6999,-6.6999,-6.6999,-6.6999,-6.6999,-6.6999,-6.6999,-6.6999,-6.6999,-6.6999,-6.6999,-6.6999,-6.6999,-6.7238,-6.7687,-6.7238,-6.6999,-6.6999,-6.7478,-6.7687,0.0,-5.9099,-5.9099,-5.9099,0.0,0.0,-5.9099,-5.9099,-5.9099,-5.9099,-5.9099,-5.9099,-5.9099,-5.9099,-5.9099,-5.9099,-5.9099,-5.9099,-5.9099,-5.9099,-5.9099,-5.9099,-5.9099,-5.9099,-5.9099,-5.9697,-6.0386,-6.1074,-6.1732,-6.2391,-6.3049,-6.3079,-6.3079,-6.3079,-6.3079,-6.3079,-6.3079,-6.3079,-6.3079,-6.3079,-6.3079,-6.3079,-6.3079,-6.3079,-6.3079,-6.3079,-6.3079,-6.3079,-6.3079,-6.3079,-6.3079,-6.3079,-6.3079,-6.3079,-6.3079,-6.3079,-6.3079,-6.3079,-6.3079,-6.3079,-6.3079,-6.3079,-6.3079,-6.3079,-6.3079,-6.3079,-6.3079,-6.3079,-6.3079,-6.3079,-6.3079,-6.3258,-6.3558,-6.3917,-6.4216,-6.4605,-6.5293,-6.5443,-6.5443,-6.5443,-6.5443,-6.5652,-6.6311,-6.643,-6.655,-6.6939,-6.6999,-6.6999,-6.6999,-6.6999,-6.6999,-6.6999,-6.6999,-6.6999,-6.6999,-6.6999,-6.6999,-6.6999,-6.7238,-6.7388,-6.7388,-6.7687,-6.7837,-6.7837,-6.7837,-6.8016,-6.8405,-6.7717,-6.7537,-6.7837,-6.8226,-6.8405,0.0,0.0,0.0,-5.9099,-5.9099,0.0,-5.9099,-5.9099,-5.9099,-5.9099,-5.9099,-5.9099,-5.9099,-5.9099,-5.9099,-5.9099,-5.9099,-5.9099,-5.9099,-5.9099,-5.9099,-5.9099,-5.9099,-5.9099,-5.9099,-5.9757,-6.0446,-6.1074,-6.1792,-6.245,-6.3049,-6.3079,-6.3079,-6.3079,-6.3079,-6.3079,-6.3079,-6.3079,-6.3079,-6.3079,-6.3079,-6.3079,-6.3079,-6.3079,-6.3079,-6.3079,-6.3079,-6.3079,-6.3079,-6.3079,-6.3079,-6.3079,-6.3079,-6.3079,-6.3079,-6.3079,-6.3079,-6.3079,-6.3079,-6.3079,-6.3079,-6.3079,-6.3079,-6.3079,-6.3079,-6.3079,-6.3079,-6.3079,-6.3139,-6.3169,-6.3169,-6.3647,-6.4126,-6.4186,-6.4695,-6.5323,-6.5981,-6.6131,-6.6131,-6.6131,-6.6131,-6.6311,-6.6879,-6.6999,-6.6999,-6.6999,-6.6999,-6.6999,-6.6999,-6.6999,-6.6999,-6.6999,-6.6999,-6.7029,-6.7089,-6.7089,-6.7119,-6.7208,-6.7777,-6.8076,-6.8076,-6.8675,-6.9004,-6.9004,-6.9064,-6.9123,-6.9123,-6.8435,-6.8405,-6.9004,-6.9064,-6.9123,-5.9099,-5.9099,-5.9099,-5.9099,-5.9099,0.0,-5.9099,-5.9099,-5.9099,-5.9099,-5.9099,-5.9099,-5.9099,-5.9099,-5.9099,-5.9099,-5.9099,-5.9099,-5.9099,-5.9099,-5.9099,-5.9099,-5.9099,-5.9099,-5.9099,-6.0206,-6.0954,-6.1104,-6.2211,-6.2929,-6.3079,-6.3079,-6.3079,-6.3079,-6.3079,-6.3079,-6.3079,-6.3079,-6.3079,-6.3079,-6.3079,-6.3079,-6.3079,-6.3079,-6.3079,-6.3079,-6.3079,-6.3079,-6.3079,-6.3079,-6.3079,-6.3079,-6.3079,-6.3079,-6.3079,-6.3079,-6.3079,-6.3079,-6.3079,-6.3079,-6.3079,-6.3079,-6.3079,-6.3079,-6.3079,-6.3079,-6.3079,-6.3079,-6.3438,-6.3827,-6.3827,-6.4306,-6.4964,-6.5503,-6.5712,-6.6011,-6.667,-6.6789,-6.6789,-6.6789,-6.6789,-6.6849,-6.6969,-6.6999,-6.6999,-6.6999,-6.6999,-6.6999,-6.6999,-6.6999,-6.6999,-6.6999,-6.6999,-6.7208,-6.7747,-6.7777,-6.8016,-6.8585,-6.8734,-6.8794,-6.8794,-6.8944,-6.9004,-6.9004,-6.9512,-6.9782,-6.9782,-6.9123,-6.8854,-6.9004,-6.9542,-6.9782,-5.9099,-5.9099,-5.9099,-5.9099,-5.9099,0.0,0.0,-5.9099,-5.9099,-5.9099,-5.9099,-5.9099,-5.9099,-5.9099,-5.9099,-5.9099,-5.9099,-5.9099,-5.9099,-5.9099,-5.9099,-5.9099,-5.9099,-5.9099,-5.9099,-6.0326,-6.1373,-6.2061,-6.272,-6.3079,-6.3079,-6.3079,-6.3079,-6.3079,-6.3079,-6.3079,-6.3079,-6.3079,-6.3079,-6.3079,-6.3079,-6.3079,-6.3079,-6.3079,-6.3079,-6.3079,-6.3079,-6.3079,-6.3079,-6.3079,-6.3079,-6.3079,-6.3079,-6.3079,-6.3079,-6.3079,-6.3079,-6.3079,-6.3079,-6.3079,-6.3079,-6.3079,-6.3079,-6.3079,-6.3079,-6.3288,-6.3617,-6.3947,-6.4276,-6.4515,-6.4515,-6.5024,-6.5592,-6.5922,-6.6251,-6.658,-6.6909,-6.6999,-6.6999,-6.6999,-6.6999,-6.6999,-6.6999,-6.6999,-6.6999,-6.6999,-6.6999,-6.6999,-6.6999,-6.6999,-6.7119,-6.7448,-6.7478,-6.7747,-6.8435,-6.8495,-6.8645,-6.8974,-6.9303,-6.9482,-6.9482,-6.9782,-6.9961,-6.9961,-7.026,-7.044,-7.044,-7.0111,-6.9961,-6.9961,-7.029,-7.044,-5.9099,-5.9099,-5.9099,-5.9099,-5.9099,-5.9099,0.0,0.0,0.0,-5.9099,-5.9099,-5.9099,-5.9099,-5.9099,-5.9099,-5.9099,-5.9099,-5.9099,-5.9099,-5.9099,-5.9099,-5.9099,-5.9099,-5.9099,-5.9099,-6.0326,-6.1672,-6.2989,-6.3079,-6.3079,-6.3079,-6.3079,-6.3079,-6.3079,-6.3079,-6.3079,-6.3079,-6.3079,-6.3079,-6.3079,-6.3079,-6.3079,-6.3079,-6.3079,-6.3079,-6.3079,-6.3079,-6.3079,-6.3079,-6.3079,-6.3079,-6.3079,-6.3079,-6.3079,-6.3079,-6.3079,-6.3079,-6.3079,-6.3079,-6.3079,-6.3109,-6.3228,-6.3348,-6.3468,-6.3468,-6.3797,-6.4306,-6.4874,-6.5114,-6.5203,-6.5203,-6.5712,-6.6191,-6.6191,-6.661,-6.6999,-6.6999,-6.6999,-6.6999,-6.6999,-6.6999,-6.6999,-6.6999,-6.6999,-6.6999,-6.6999,-6.6999,-6.6999,-6.6999,-6.7089,-6.7388,-6.7897,-6.8076,-6.8435,-6.9123,-6.9183,-6.9243,-6.9363,-6.9871,-7.0141,-7.0141,-7.0649,-7.0889,-7.0889,-7.0889,-7.0889,-7.0889,-7.0889,-7.0889,-7.0889,-7.0889,-7.0889,-5.9099,-5.9099,-5.9099,-5.9099,-5.9099,-5.9099,-5.9099,0.0,-5.9099,-5.9099,0.0,-5.9099,-5.9099,0.0,0.0,-5.9099,-5.9099,-5.9099,-5.9099,-5.9099,-5.9099,-5.9099,-5.9099,-5.9099,-5.9099,-6.0326,-6.1672,-6.2989,-6.3079,-6.3079,-6.3079,-6.3079,-6.3079,-6.3079,-6.3079,-6.3079,-6.3079,-6.3079,-6.3079,-6.3079,-6.3079,-6.3079,-6.3079,-6.3079,-6.3079,-6.3079,-6.3079,-6.3079,-6.3079,-6.3079,-6.3079,-6.3079,-6.3079,-6.3079,-6.3079,-6.3079,-6.3079,-6.3079,-6.3079,-6.3079,-6.3169,-6.3707,-6.4306,-6.4814,-6.4814,-6.4844,-6.4934,-6.4994,-6.5443,-6.5892,-6.5892,-6.637,-6.6879,-6.6879,-6.6939,-6.6999,-6.6999,-6.6999,-6.6999,-6.6999,-6.6999,-6.6999,-6.6999,-6.6999,-6.6999,-6.6999,-6.6999,-6.6999,-6.6999,-6.7508,-6.7897,-6.7956,-6.8525,-6.9153,-6.9812,-6.9871,-7.0111,-7.0649,-7.0769,-7.0799,-7.0799,-7.0859,-7.0889,-7.0889,-7.0889,-7.0889,-7.0889,-7.0889,-7.0889,-7.0889,-7.0889,-7.0889,-5.9099,-5.9099,-5.9099,-5.9099,-5.9099,-5.9099,-5.9099,-5.9099,-5.9099,-5.9099,0.0,0.0,0.0,0.0,0.0,0.0,-5.9099,-5.9099,-5.9099,-5.9099,-5.9099,-5.9099,-5.9099,-5.9428,-6.0176,-6.1134,-6.2061,-6.3019,-6.3079,-6.3079,-6.3079,-6.3079,-6.3079,-6.3079,-6.3079,-6.3079,-6.3079,-6.3079,-6.3079,-6.3079,-6.3079,-6.3258,-6.3617,-6.3617,-6.3827,-6.4216,-6.4216,-6.4216,-6.4216,-6.4216,-6.4216,-6.4216,-6.4216,-6.3737,-6.3109,-6.3468,-6.3617,-6.3677,-6.4066,-6.4216,-6.4246,-6.4515,-6.4784,-6.5114,-6.5473,-6.5592,-6.5682,-6.6071,-6.637,-6.658,-6.658,-6.6789,-6.6999,-6.6999,-6.6999,-6.6999,-6.6999,-6.6999,-6.6999,-6.6999,-6.6999,-6.6999,-6.6999,-6.6999,-6.6999,-6.6999,-6.7298,-6.7567,-6.7567,-6.8166,-6.8704,-6.9093,-6.9393,-6.9842,-7.047,-7.05,-7.062,-7.0889,-7.0889,-7.0889,-7.0889,-7.0889,-7.0889,-7.0889,-7.0889,-7.0889,-7.0889,-7.0889,-7.0889,-7.0889,-7.0889,-7.0889,-5.9668,-5.9668,-5.9668,-5.9668,-5.9518,-5.9368,-5.9368,-5.9249,-5.9099,-5.9099,-5.9099,0.0,0.0,0.0,-5.9099,-5.9099,0.0,-5.9099,-5.9099,-5.9099,-5.9099,-5.9099,-5.9249,-5.9847,-6.1014,-6.1702,-6.2361,-6.3019,-6.3079,-6.3079,-6.3079,-6.3079,-6.3079,-6.3079,-6.3079,-6.3079,-6.3079,-6.3258,-6.3318,-6.3318,-6.3528,-6.3857,-6.4276,-6.4276,-6.4545,-6.5024,-6.5024,-6.5024,-6.5024,-6.5024,-6.5024,-6.5024,-6.5024,-6.4455,-6.3647,-6.4126,-6.4276,-6.4366,-6.4844,-6.5144,-6.5293,-6.5293,-6.5413,-6.5652,-6.6131,-6.6281,-6.637,-6.6849,-6.6999,-6.6999,-6.6999,-6.6999,-6.6999,-6.6999,-6.6999,-6.6999,-6.6999,-6.6999,-6.6999,-6.6999,-6.6999,-6.7059,-6.7238,-6.7119,-6.7059,-6.7238,-6.7657,-6.8046,-6.8226,-6.8854,-6.9453,-6.9931,-7.0141,-7.041,-7.0859,-7.0889,-7.0889,-7.0889,-7.0889,-7.0889,-7.0889,-7.0889,-7.0889,-7.0889,-7.0889,-7.0889,-7.0889,-7.0889,-7.0889,-7.0889,-7.0889,-7.0889,-6.1044,-6.1044,-6.1044,-6.1044,-6.0565,-6.0057,-6.0057,-5.9548,-5.9099,-5.9099,-5.9099,-5.9099,-5.9099,-5.9099,0.0,0.0,0.0,0.0,0.0,-5.9099,-5.9099,-5.9099,-5.9668,-6.0326,-6.1044,-6.1702,-6.2361,-6.3019,-6.3079,-6.3079,-6.3079,-6.3079,-6.3079,-6.3079,-6.3079,-6.3079,-6.3079,-6.3677,-6.3977,-6.3977,-6.4635,-6.4964,-6.4994,-6.4994,-6.4994,-6.5024,-6.5024,-6.5024,-6.5024,-6.5024,-6.5024,-6.5024,-6.5024,-6.4994,-6.4964,-6.4994,-6.4994,-6.4994,-6.5024,-6.5443,-6.5981,-6.5981,-6.64,-6.6939,-6.6939,-6.6969,-6.6969,-6.6999,-6.6999,-6.6999,-6.6999,-6.6999,-6.6999,-6.6999,-6.6999,-6.6999,-6.6999,-6.6999,-6.6999,-6.6999,-6.6999,-6.7178,-6.7837,-6.7418,-6.7208,-6.7837,-6.7956,-6.8196,-6.8884,-6.9542,-6.9961,-6.9991,-7.05,-7.0889,-7.0889,-7.0889,-7.0889,-7.0889,-7.0889,-7.0889,-7.0889,-7.0889,-7.0889,-7.0889,-7.0889,-7.0889,-7.0889,-7.0889,-7.0889,-7.0889,-7.0889,-7.0889,-6.1104,-6.1104,-6.1104,-6.1104,-6.0954,-6.0775,-6.0775,-6.0595,-6.0446,-6.0446,-6.0446,-6.0446,-6.0446,-6.0446,0.0,0.0,0.0,0.0,0.0,-5.9757,-5.9937,-6.0386,-6.0625,-6.0864,-6.1104,-6.2121,-6.2839,-6.3049,-6.3079,-6.3079,-6.3079,-6.3079,-6.3079,-6.3079,-6.3079,-6.3258,-6.3677,-6.3887,-6.4216,-6.4695,-6.4904,-6.5263,-6.5682,-6.5682,-6.5922,-6.6311,-6.6311,-6.6311,-6.6311,-6.6311,-6.6311,-6.6311,-6.6311,-6.6311,-6.6281,-6.5832,-6.5682,-6.5742,-6.6191,-6.646,-6.667,-6.667,-6.6819,-6.6999,-6.6999,-6.6999,-6.6999,-6.6999,-6.6999,-6.6999,-6.6999,-6.6999,-6.6999,-6.6999,-6.6999,-6.6999,-6.6999,-6.6999,-6.6999,-6.6999,-6.7358,-6.7717,-6.7926,-6.8166,-6.8405,-6.8615,-6.9034,-6.9393,-6.9602,-7.0201,-7.059,-7.059,-7.0769,-7.0889,-7.0889,-7.0889,-7.0889,-7.0889,-7.0889,-7.0889,-7.0889,-7.0889,-7.0889,-7.0889,-7.1338,-7.1547,-7.1547,-7.2026,-7.2235,-7.2235,-7.2235,-7.1757,-6.1822,-6.1822,-6.1822,-6.1822,-6.1642,-6.1463,-6.1463,-6.1283,-6.1104,-6.1104,-6.1104,-6.1104,-6.1104,-6.1104,0.0,0.0,0.0,0.0,0.0,-6.0446,-6.0625,-6.1074,-6.1313,-6.1463,-6.1463,-6.245,-6.3079,-6.3079,-6.3079,-6.3079,-6.3079,-6.3079,-6.3079,-6.3079,-6.3288,-6.3588,-6.4006,-6.4485,-6.4934,-6.5383,-6.5622,-6.5951,-6.637,-6.637,-6.658,-6.6999,-6.6999,-6.6999,-6.6999,-6.6999,-6.6999,-6.6999,-6.6999,-6.6999,-6.6939,-6.652,-6.637,-6.643,-6.6849,-6.6999,-6.6999,-6.6999,-6.6999,-6.6999,-6.6999,-6.6999,-6.6999,-6.6999,-6.6999,-6.6999,-6.6999,-6.6999,-6.6999,-6.6999,-6.6999,-6.6999,-6.6999,-6.7178,-6.7328,-6.7328,-6.7897,-6.8405,-6.8645,-6.9064,-6.9363,-6.9363,-6.9722,-7.0051,-7.029,-7.0649,-7.0889,-7.0889,-7.0889,-7.0889,-7.0889,-7.0889,-7.0889,-7.0889,-7.0889,-7.1009,-7.1248,-7.1248,-7.1487,-7.1966,-7.2146,-7.2355,-7.2595,-7.2804,-7.2924,-7.2924,-7.2924,-7.2445]},{"header":{"parameterUnit":"m.s-1","parameterCategory":1,"la1":30.6,"la2":29.2853,"lo1":-89.7004,"lo2":-87.6739,"dy":0.0162,"dx":0.0183,"nx":112,"ny":82,"refTime":"2024-04-05T00:00:00:Z","depth":0,"parameterNumber":3,"parameterNumberName":"V-component_of_WINDS"},"data":[0.0,0.0,0.0,0.0,0.0,0.0,0.0,0.0,0.0,0.0,0.0,0.0,0.0,0.0,0.0,0.0,0.0,0.0,0.0,0.0,0.0,0.0,0.0,0.0,0.0,0.0,0.0,0.0,0.0,0.0,0.0,0.0,0.0,0.0,0.0,0.0,0.0,0.0,0.0,0.0,0.0,0.0,0.0,0.0,0.0,0.0,0.0,0.0,0.0,0.0,0.0,0.0,0.0,0.0,0.0,0.0,0.0,0.0,0.0,0.0,0.0,0.0,0.0,0.0,0.0,0.0,0.0,0.0,0.0,0.0,0.0,0.0,0.0,0.0,0.0,0.0,0.0,0.0,0.0,0.0,0.0,0.0,0.0,0.0,0.0,0.0,0.0,0.0,0.0,0.0,4.8353,4.7868,4.8513,4.9018,4.9018,4.9018,4.9018,4.9018,0.0,0.0,0.0,0.0,0.0,0.0,0.0,0.0,0.0,0.0,0.0,0.0,0.0,0.0,0.0,0.0,0.0,0.0,0.0,0.0,0.0,0.0,0.0,0.0,0.0,0.0,0.0,0.0,0.0,0.0,0.0,0.0,0.0,0.0,0.0,0.0,0.0,0.0,0.0,0.0,0.0,0.0,0.0,0.0,0.0,0.0,0.0,0.0,0.0,0.0,0.0,0.0,0.0,0.0,0.0,0.0,0.0,0.0,0.0,0.0,0.0,0.0,0.0,0.0,0.0,0.0,0.0,0.0,0.0,0.0,0.0,0.0,0.0,0.0,0.0,0.0,0.0,0.0,0.0,0.0,0.0,0.0,0.0,0.0,0.0,0.0,0.0,0.0,0.0,0.0,0.0,0.0,0.0,0.0,0.0,0.0,0.0,0.0,0.0,0.0,0.0,0.0,0.0,0.0,4.7172,4.8639,4.8892,4.9018,4.9018,4.9018,4.9018,4.9018,0.0,0.0,0.0,0.0,0.0,0.0,0.0,0.0,0.0,0.0,0.0,0.0,0.0,0.0,0.0,0.0,0.0,0.0,0.0,0.0,0.0,0.0,0.0,0.0,0.0,0.0,0.0,0.0,0.0,0.0,0.0,0.0,0.0,0.0,0.0,0.0,0.0,0.0,0.0,0.0,0.0,0.0,0.0,0.0,0.0,0.0,0.0,0.0,0.0,0.0,0.0,0.0,0.0,0.0,0.0,0.0,0.0,0.0,0.0,0.0,0.0,0.0,0.0,0.0,0.0,0.0,0.0,0.0,0.0,0.0,0.0,0.0,0.0,0.0,0.0,0.0,0.0,0.0,0.0,0.0,0.0,0.0,0.0,0.0,0.0,0.0,0.0,0.0,0.0,0.0,0.0,0.0,0.0,0.0,0.0,0.0,0.0,0.0,0.0,0.0,0.0,0.0,0.0,4.6968,4.7473,4.8861,4.9018,4.9018,4.9018,4.9018,4.9018,4.9018,4.868,0.0,0.0,0.0,0.0,0.0,0.0,0.0,0.0,0.0,0.0,0.0,0.0,0.0,0.0,0.0,0.0,0.0,0.0,0.0,0.0,0.0,0.0,0.0,0.0,0.0,0.0,0.0,0.0,0.0,0.0,0.0,0.0,0.0,0.0,0.0,0.0,0.0,0.0,0.0,0.0,0.0,0.0,0.0,0.0,0.0,0.0,0.0,0.0,0.0,0.0,0.0,0.0,0.0,0.0,0.0,0.0,0.0,0.0,0.0,0.0,0.0,0.0,0.0,0.0,0.0,0.0,0.0,0.0,0.0,0.0,0.0,0.0,0.0,0.0,0.0,0.0,0.0,0.0,0.0,0.0,0.0,0.0,0.0,0.0,0.0,0.0,0.0,0.0,0.0,0.0,0.0,0.0,0.0,0.0,0.0,0.0,0.0,0.0,0.0,0.0,0.0,0.0,4.8033,4.8628,4.9114,4.94,4.9526,4.9526,4.9357,4.9255,4.9255,4.9086,0.0,0.0,0.0,0.0,0.0,0.0,0.0,0.0,0.0,0.0,0.0,0.0,0.0,0.0,0.0,0.0,0.0,0.0,0.0,0.0,0.0,0.0,0.0,0.0,0.0,0.0,0.0,0.0,0.0,0.0,0.0,0.0,0.0,0.0,0.0,0.0,0.0,0.0,0.0,0.0,0.0,0.0,0.0,0.0,0.0,0.0,0.0,0.0,0.0,0.0,0.0,0.0,0.0,0.0,0.0,0.0,0.0,0.0,0.0,0.0,0.0,0.0,0.0,0.0,0.0,0.0,0.0,0.0,0.0,0.0,0.0,0.0,0.0,0.0,0.0,0.0,0.0,0.0,0.0,0.0,0.0,0.0,0.0,0.0,0.0,0.0,0.0,0.0,0.0,0.0,0.0,0.0,0.0,0.0,0.0,0.0,0.0,0.0,0.0,0.0,0.0,0.0,4.9202,5.0624,4.9752,5.0492,5.1082,5.1082,5.0405,4.9999,4.9999,4.939,0.0,0.0,0.0,0.0,0.0,0.0,0.0,0.0,0.0,0.0,0.0,0.0,0.0,0.0,0.0,0.0,0.0,0.0,0.0,0.0,0.0,0.0,0.0,0.0,0.0,0.0,0.0,0.0,0.0,0.0,0.0,0.0,0.0,0.0,0.0,0.0,0.0,0.0,0.0,0.0,0.0,0.0,0.0,0.0,0.0,0.0,0.0,0.0,0.0,0.0,0.0,0.0,0.0,0.0,0.0,0.0,0.0,0.0,0.0,0.0,0.0,0.0,0.0,0.0,0.0,0.0,0.0,0.0,0.0,0.0,0.0,0.0,0.0,0.0,0.0,0.0,0.0,0.0,0.0,0.0,0.0,0.0,0.0,0.0,0.0,0.0,0.0,0.0,0.0,0.0,0.0,0.0,0.0,0.0,0.0,0.0,0.0,0.0,0.0,0.0,0.0,0.0,4.8285,4.9468,4.9678,5.0593,5.1185,5.1185,5.0947,5.0811,5.0811,0.0,0.0,0.0,0.0,0.0,0.0,0.0,0.0,0.0,0.0,0.0,0.0,0.0,0.0,0.0,0.0,0.0,0.0,0.0,0.0,0.0,0.0,0.0,0.0,0.0,0.0,0.0,0.0,0.0,0.0,0.0,0.0,0.0,0.0,0.0,0.0,0.0,0.0,0.0,0.0,0.0,0.0,0.0,0.0,0.0,0.0,0.0,0.0,0.0,0.0,0.0,0.0,0.0,0.0,0.0,0.0,0.0,0.0,0.0,0.0,0.0,0.0,0.0,0.0,0.0,0.0,0.0,0.0,0.0,0.0,0.0,0.0,0.0,0.0,0.0,0.0,0.0,0.0,0.0,0.0,0.0,0.0,0.0,0.0,0.0,0.0,0.0,0.0,0.0,0.0,0.0,0.0,0.0,0.0,0.0,0.0,0.0,0.0,0.0,0.0,0.0,0.0,4.6915,4.8694,4.9942,4.9942,5.1127,5.1928,5.1928,5.1725,5.1555,5.1555,0.0,0.0,0.0,0.0,0.0,0.0,0.0,0.0,0.0,0.0,0.0,0.0,0.0,0.0,0.0,0.0,0.0,0.0,0.0,0.0,0.0,0.0,0.0,0.0,0.0,0.0,0.0,0.0,0.0,0.0,0.0,0.0,0.0,0.0,0.0,0.0,0.0,0.0,0.0,0.0,0.0,0.0,0.0,0.0,0.0,0.0,0.0,0.0,0.0,0.0,0.0,0.0,0.0,0.0,0.0,0.0,0.0,0.0,0.0,0.0,0.0,0.0,0.0,0.0,0.0,0.0,0.0,0.0,0.0,0.0,0.0,0.0,0.0,0.0,0.0,0.0,0.0,0.0,0.0,0.0,0.0,0.0,0.0,0.0,0.0,0.0,0.0,0.0,0.0,0.0,0.0,0.0,0.0,0.0,0.0,0.0,0.0,0.0,0.0,0.0,0.0,0.0,4.7581,5.0925,5.2696,5.0627,5.2274,5.3518,5.3518,5.2773,5.23,0.0,0.0,0.0,0.0,0.0,0.0,0.0,0.0,0.0,0.0,0.0,0.0,0.0,0.0,0.0,0.0,0.0,0.0,0.0,0.0,0.0,0.0,0.0,0.0,0.0,0.0,0.0,0.0,0.0,0.0,0.0,0.0,0.0,0.0,0.0,0.0,0.0,0.0,0.0,0.0,0.0,0.0,0.0,0.0,0.0,0.0,0.0,0.0,0.0,0.0,0.0,0.0,0.0,0.0,0.0,0.0,0.0,0.0,0.0,0.0,0.0,0.0,0.0,0.0,0.0,0.0,0.0,0.0,0.0,0.0,0.0,0.0,0.0,0.0,0.0,0.0,0.0,0.0,0.0,0.0,0.0,0.0,0.0,0.0,0.0,0.0,0.0,0.0,0.0,0.0,0.0,0.0,0.0,0.0,0.0,0.0,0.0,0.0,0.0,0.0,0.0,0.0,0.0,4.8335,5.0087,5.1373,5.1451,5.2662,5.3518,5.3518,5.3281,5.3145,5.3145,0.0,0.0,0.0,0.0,0.0,0.0,0.0,0.0,0.0,0.0,0.0,0.0,0.0,0.0,0.0,0.0,0.0,0.0,0.0,0.0,0.0,0.0,0.0,0.0,0.0,0.0,0.0,0.0,0.0,0.0,0.0,0.0,0.0,0.0,0.0,0.0,0.0,0.0,0.0,0.0,0.0,0.0,0.0,0.0,0.0,0.0,0.0,0.0,0.0,0.0,0.0,0.0,0.0,0.0,0.0,0.0,0.0,0.0,0.0,0.0,0.0,0.0,0.0,0.0,0.0,0.0,0.0,0.0,0.0,0.0,0.0,0.0,0.0,0.0,0.0,0.0,0.0,0.0,0.0,0.0,0.0,0.0,0.0,0.0,0.0,0.0,0.0,0.0,0.0,0.0,0.0,0.0,0.0,0.0,0.0,0.0,0.0,0.0,0.0,0.0,0.0,0.0,4.88,5.0474,5.1704,5.1885,5.287,5.3518,5.3518,5.3518,5.3518,5.3518,0.0,0.0,0.0,0.0,0.0,0.0,0.0,0.0,0.0,0.0,0.0,0.0,0.0,0.0,0.0,0.0,0.0,0.0,0.0,0.0,0.0,0.0,0.0,0.0,0.0,0.0,0.0,0.0,0.0,0.0,0.0,0.0,0.0,0.0,0.0,0.0,0.0,0.0,0.0,0.0,0.0,0.0,0.0,0.0,0.0,0.0,0.0,0.0,0.0,0.0,0.0,0.0,0.0,0.0,0.0,0.0,0.0,0.0,0.0,0.0,0.0,0.0,0.0,0.0,0.0,0.0,0.0,0.0,0.0,0.0,0.0,0.0,0.0,0.0,0.0,0.0,0.0,0.0,0.0,0.0,0.0,0.0,0.0,0.0,0.0,0.0,0.0,0.0,0.0,0.0,0.0,0.0,0.0,0.0,0.0,0.0,0.0,0.0,0.0,0.0,0.0,0.0,4.8891,5.1299,5.2765,5.1993,5.28,5.3382,5.3518,5.3518,5.3518,5.3518,0.0,0.0,0.0,0.0,0.0,0.0,0.0,0.0,0.0,0.0,0.0,0.0,0.0,0.0,0.0,0.0,0.0,0.0,0.0,0.0,0.0,0.0,0.0,0.0,0.0,0.0,0.0,0.0,0.0,0.0,0.0,0.0,0.0,0.0,0.0,0.0,0.0,0.0,0.0,0.0,0.0,0.0,0.0,0.0,0.0,0.0,0.0,0.0,0.0,0.0,0.0,0.0,0.0,0.0,0.0,0.0,0.0,0.0,0.0,0.0,4.8882,4.7409,0.0,0.0,0.0,0.0,0.0,0.0,0.0,0.0,0.0,0.0,0.0,0.0,0.0,0.0,0.0,0.0,0.0,0.0,0.0,0.0,0.0,0.0,0.0,0.0,0.0,0.0,0.0,0.0,0.0,0.0,0.0,0.0,0.0,0.0,0.0,0.0,0.0,0.0,0.0,0.0,4.8718,4.9376,5.0326,5.1776,5.2101,5.2592,5.3416,5.3518,5.3518,5.3518,5.3518,0.0,0.0,0.0,0.0,0.0,0.0,0.0,0.0,0.0,0.0,0.0,0.0,0.0,0.0,0.0,0.0,0.0,0.0,0.0,0.0,0.0,0.0,0.0,0.0,0.0,0.0,0.0,0.0,0.0,0.0,0.0,0.0,0.0,0.0,0.0,0.0,0.0,0.0,0.0,0.0,0.0,0.0,0.0,0.0,0.0,0.0,0.0,0.0,0.0,0.0,0.0,0.0,0.0,0.0,0.0,0.0,0.0,0.0,0.0,4.9734,4.9044,0.0,0.0,0.0,0.0,0.0,0.0,0.0,0.0,0.0,0.0,0.0,0.0,0.0,0.0,0.0,0.0,0.0,0.0,0.0,0.0,0.0,0.0,0.0,0.0,0.0,0.0,0.0,0.0,0.0,0.0,0.0,0.0,0.0,0.0,0.0,0.0,0.0,0.0,0.0,0.0,4.9496,5.0435,5.1484,5.2557,5.2662,5.2662,5.2697,5.3179,5.328,5.2732,5.3213,0.0,0.0,0.0,0.0,0.0,0.0,0.0,0.0,0.0,0.0,0.0,0.0,0.0,0.0,0.0,0.0,0.0,0.0,0.0,0.0,0.0,0.0,0.0,0.0,0.0,0.0,0.0,0.0,0.0,0.0,0.0,0.0,0.0,0.0,0.0,0.0,0.0,0.0,0.0,0.0,0.0,0.0,0.0,0.0,0.0,0.0,0.0,0.0,0.0,0.0,0.0,0.0,0.0,4.8309,4.8944,4.9322,5.02,5.0781,5.1124,5.0934,5.1172,5.1488,4.9813,0.0,0.0,0.0,0.0,0.0,0.0,0.0,0.0,0.0,0.0,0.0,0.0,0.0,0.0,0.0,0.0,0.0,0.0,0.0,0.0,0.0,0.0,5.0627,5.0435,5.1043,5.1117,4.9215,0.0,0.0,0.0,0.0,0.0,0.0,0.0,0.0,0.0,0.0,0.0,5.0087,5.1631,5.2835,5.3179,5.3213,5.287,5.1957,5.287,5.3041,5.1957,5.2904,5.3518,0.0,0.0,0.0,0.0,0.0,0.0,0.0,0.0,0.0,0.0,0.0,0.0,0.0,0.0,0.0,0.0,0.0,0.0,0.0,0.0,0.0,0.0,0.0,0.0,0.0,0.0,0.0,0.0,0.0,0.0,0.0,0.0,4.7309,4.7309,0.0,0.0,0.0,0.0,0.0,0.0,0.0,0.0,0.0,0.0,0.0,0.0,0.0,4.906,4.906,4.906,4.8716,4.8147,4.8323,4.932,5.1175,5.1293,5.2361,5.4016,5.3063,0.0,5.0589,5.0281,0.0,0.0,0.0,0.0,0.0,0.0,0.0,0.0,0.0,0.0,0.0,0.0,0.0,0.0,0.0,0.0,0.0,0.0,0.0,0.0,0.0,0.0,5.1488,5.0589,5.0512,5.0281,4.9054,4.8718,4.8377,4.7636,4.7366,4.7309,0.0,0.0,0.0,0.0,0.0,0.0,4.8922,4.9256,5.0094,5.1921,5.2101,5.2029,5.1921,5.287,5.3041,5.1957,5.2904,5.3518,5.3518,5.3518,0.0,0.0,0.0,0.0,0.0,0.0,0.0,0.0,0.0,0.0,0.0,0.0,0.0,0.0,0.0,0.0,0.0,0.0,0.0,0.0,0.0,0.0,0.0,0.0,0.0,0.0,0.0,0.0,0.0,4.7309,4.7429,4.7818,4.7848,4.7997,0.0,0.0,0.0,0.0,0.0,0.0,0.0,0.0,0.0,4.888,4.9179,4.9299,4.9299,4.9299,4.9179,4.888,4.9438,5.0198,5.114,5.1677,5.243,5.3269,5.2817,5.2158,5.1367,5.005,4.9215,4.8759,0.0,0.0,0.0,0.0,4.7309,4.7366,4.7946,4.8841,4.9615,4.8973,0.0,0.0,0.0,0.0,0.0,0.0,0.0,4.9931,5.0968,5.1561,5.1921,5.2098,5.2134,5.1667,5.0048,5.0133,5.0055,4.846,4.7679,4.7309,4.7309,4.7764,0.0,0.0,0.0,4.8963,4.8841,4.9336,5.0048,5.0968,5.1043,5.0817,5.0211,5.1117,5.1557,5.108,5.2026,5.287,5.3484,5.3518,5.2972,0.0,0.0,0.0,0.0,0.0,0.0,0.0,0.0,0.0,0.0,0.0,0.0,0.0,0.0,0.0,0.0,0.0,0.0,0.0,0.0,0.0,0.0,0.0,0.0,0.0,0.0,0.0,0.0,4.7698,4.7997,4.8476,4.858,4.876,0.0,0.0,0.0,0.0,0.0,0.0,4.9523,4.9673,4.9703,4.9523,4.9853,5.0048,5.0048,5.0228,5.0228,5.0048,5.077,5.1487,5.2101,5.2825,5.3285,5.3528,5.3285,5.2863,5.228,5.0442,4.9542,4.9243,4.8505,4.8049,4.7818,4.7818,4.7698,4.7679,4.8401,4.925,4.9852,4.9054,4.9536,5.0165,4.8841,0.0,0.0,0.0,0.0,5.0129,5.1301,5.1857,5.2155,5.2696,5.3052,5.266,5.0588,5.0706,5.0696,4.878,4.803,4.7624,4.7322,4.7904,0.0,4.7409,4.8779,4.9658,4.913,4.9904,5.0628,5.0831,5.0902,5.0438,4.9378,5.0153,5.0568,5.0263,5.1065,5.1849,5.2696,5.2939,5.2381,5.0817,0.0,0.0,0.0,0.0,0.0,0.0,0.0,0.0,0.0,0.0,0.0,0.0,0.0,0.0,0.0,0.0,0.0,0.0,0.0,0.0,0.0,0.0,0.0,0.0,0.0,0.0,0.0,0.0,0.0,4.9269,4.9269,0.0,0.0,0.0,0.0,5.0136,5.0734,5.084,5.0166,5.0734,5.084,5.0166,5.1409,5.2037,5.2037,5.2665,5.2665,5.2037,5.2085,5.33,5.5442,5.5485,5.603,5.692,5.5947,5.4494,5.2759,5.2311,5.1578,5.0677,5.0634,5.0049,4.9209,4.9209,4.882,4.8281,4.8325,4.8548,4.8851,4.8841,4.9536,5.055,5.1414,5.0326,0.0,0.0,4.9103,4.8766,5.0437,5.1692,5.222,5.1195,5.1774,5.1978,4.9816,4.9403,4.9042,4.7635,4.8115,4.8418,4.7452,0.0,4.7352,4.7309,4.7905,4.8745,4.9634,5.0359,5.1153,5.2076,5.2197,5.1783,5.0805,5.1092,5.0913,4.9895,5.0272,5.0474,5.055,5.1451,5.1921,5.1849,5.0892,0.0,0.0,0.0,0.0,0.0,0.0,0.0,0.0,0.0,0.0,0.0,0.0,0.0,0.0,0.0,0.0,0.0,0.0,0.0,0.0,0.0,0.0,0.0,0.0,0.0,0.0,0.0,0.0,4.9853,4.9883,0.0,5.0481,5.072,5.0823,5.0823,5.1079,5.1289,5.1498,5.1708,5.1947,5.2127,5.2576,5.2815,5.2815,5.3503,5.3713,5.3503,5.3922,5.4564,5.5371,5.5371,5.5315,5.5256,5.4914,5.4077,5.3061,5.2963,5.1895,5.038,5.0001,4.9627,4.9299,4.9299,4.9179,4.897,4.897,4.9435,5.01,5.01,4.992,4.975,5.0131,5.0142,5.0131,5.0379,5.0652,5.1017,5.1609,5.2082,5.2284,5.1837,5.2082,5.196,5.0586,5.077,5.07,4.8936,4.889,4.8991,4.8655,4.9122,4.9309,4.8699,4.9347,4.9774,4.9529,4.9667,4.9995,5.0327,5.0371,5.0227,4.9863,4.997,5.0162,5.0429,5.0164,5.0317,5.0991,5.0999,5.0627,4.9899,4.9575,4.9694,0.0,0.0,0.0,0.0,0.0,0.0,0.0,0.0,0.0,0.0,0.0,0.0,0.0,0.0,0.0,0.0,0.0,0.0,0.0,0.0,0.0,0.0,0.0,0.0,0.0,4.9793,5.0092,5.0465,5.0524,5.0794,5.1498,5.1558,5.1648,5.1858,5.1887,5.2067,5.2516,5.2755,5.3084,5.3503,5.3952,5.4192,5.4192,5.485,5.5179,5.5179,5.5628,5.6062,5.6436,5.6436,5.6193,5.5769,5.5769,5.528,5.4491,5.4281,5.3294,5.1828,5.093,5.0647,5.0647,5.0647,5.0497,5.0242,5.0002,5.0381,5.0971,5.1074,5.0695,5.0166,5.0289,5.0697,5.1172,5.142,5.1864,5.234,5.2559,5.2879,5.3091,5.2707,5.2879,5.2879,5.1854,5.2131,5.2157,5.0592,4.999,4.9716,4.9344,4.9863,5.0053,4.9389,5.0045,5.0344,4.9674,4.9793,4.9912,4.9912,4.9912,4.9912,4.9912,4.9733,4.9869,5.0564,5.0008,4.9951,5.0663,5.0601,5.0093,4.9182,4.8893,4.8973,4.9367,0.0,0.0,0.0,0.0,0.0,0.0,0.0,0.0,0.0,0.0,0.0,0.0,0.0,0.0,0.0,0.0,0.0,0.0,0.0,0.0,0.0,0.0,0.0,5.0315,5.0764,5.1229,5.1259,5.1259,5.1498,5.2157,5.2217,5.2516,5.3174,5.3204,5.3234,5.3264,5.3892,5.4281,5.4311,5.5538,5.6248,5.6248,5.6825,5.7124,5.7124,5.7154,5.7768,5.8919,5.8919,5.8888,5.8888,5.8888,5.8217,5.7034,5.6436,5.5837,5.5119,5.3743,5.3204,5.3174,5.3174,5.2785,5.2127,5.1498,5.1289,5.1356,5.172,5.1827,5.1921,5.2226,5.2094,5.1982,5.263,5.2519,5.2366,5.3025,5.4027,5.4591,5.3435,5.4027,5.4513,5.3465,5.3174,5.2995,5.2366,5.1515,5.058,4.9539,4.9359,4.9359,4.9359,4.9853,0.0,5.0226,5.0794,5.1229,5.1229,5.1229,5.1229,5.1229,5.0584,5.0226,5.0226,4.9643,4.9329,4.9329,5.0227,5.046,4.9811,4.9202,4.8355,4.7369,0.0,0.0,0.0,0.0,0.0,0.0,0.0,0.0,0.0,0.0,0.0,0.0,0.0,0.0,0.0,0.0,0.0,0.0,0.0,0.0,0.0,5.1109,5.1169,5.0913,5.1063,5.1379,5.1887,5.1947,5.2187,5.2845,5.2905,5.3204,5.3862,5.3922,5.4341,5.5299,5.5538,5.5837,5.6286,5.6645,5.6825,5.6825,5.7513,5.7842,5.7842,5.8321,5.8744,5.9032,5.9032,5.8761,5.8338,5.8338,5.7858,5.7094,5.6915,5.6735,5.6406,5.461,5.3623,5.3174,5.3174,5.3054,5.2875,5.2695,5.2636,5.2654,5.2778,5.2812,5.2829,5.2915,5.2866,5.2842,5.3024,5.2996,5.2965,5.3144,5.3417,5.3579,5.3271,5.3465,5.3579,5.3271,5.3174,5.3144,5.2935,5.2743,5.2145,5.0887,5.069,5.069,5.069,5.084,5.096,5.096,5.1109,5.1229,5.1229,5.1229,5.1229,5.1229,5.105,5.096,5.096,5.0331,4.9972,4.9972,4.9809,4.9626,4.9444,4.9953,4.9763,0.0,0.0,0.0,0.0,0.0,0.0,0.0,0.0,0.0,0.0,0.0,0.0,0.0,0.0,0.0,0.0,0.0,0.0,0.0,0.0,0.0,0.0,5.1229,5.1319,5.1588,5.1618,5.1768,5.2157,5.2456,5.2995,5.3922,5.4012,5.4401,5.5359,5.5418,5.5748,5.6526,5.6825,5.7154,5.7513,5.7782,5.7932,5.7932,5.8321,5.853,5.853,5.8919,5.9099,5.9099,5.9099,5.889,5.853,5.853,5.8321,5.7932,5.7932,5.7782,5.7393,0.0,0.0,0.0,0.0,5.4251,5.4012,5.4012,5.4012,5.3982,5.3713,5.3623,5.3563,5.3264,5.3384,5.3623,5.3623,5.3803,5.4012,5.4012,5.4012,5.4012,5.4012,5.4012,5.4012,5.4012,5.4012,5.3952,5.3653,5.3623,0.0,5.2217,5.2037,5.2037,5.2037,5.2037,5.2037,5.2037,5.2037,5.2037,5.2037,5.1798,5.1618,5.1618,5.1379,0.0,0.0,0.0,5.0614,5.0614,5.0032,0.0,0.0,0.0,4.9863,4.9299,4.9469,0.0,0.0,4.7549,4.7744,0.0,0.0,0.0,0.0,0.0,0.0,0.0,0.0,0.0,0.0,0.0,0.0,0.0,0.0,0.0,0.0,5.1289,5.1528,5.2127,5.2396,5.2546,5.2546,5.3054,5.3922,5.5269,5.5388,5.5897,5.7124,5.7214,5.7244,5.7304,5.7902,0.0,0.0,0.0,5.9099,5.9099,5.9099,5.9099,5.9099,5.9099,5.9099,5.9099,5.9099,5.9099,5.9099,5.9099,5.9099,5.9099,5.9099,5.877,5.8171,5.7393,5.7094,5.7034,5.6466,5.5897,5.5388,5.5329,0.0,0.0,5.4521,5.4311,5.4192,5.3593,5.3832,5.4311,5.4311,5.473,5.5179,5.5179,5.5179,5.5179,5.5179,5.5179,5.5179,5.5179,5.5179,5.5029,5.4431,5.4311,5.4132,5.3503,5.3294,5.3174,5.3174,5.3174,5.3174,5.3174,5.3174,5.3174,5.3174,5.2665,0.0,5.2306,5.1768,5.1439,5.1439,5.1379,5.1289,5.1229,5.0614,5.0315,5.0315,4.9793,4.9539,4.9539,4.9449,4.9419,4.9389,4.8117,4.7848,0.0,0.0,0.0,0.0,0.0,0.0,0.0,0.0,0.0,0.0,0.0,0.0,0.0,0.0,0.0,5.1229,5.1648,5.2067,5.2187,5.3593,5.461,5.461,5.473,5.5299,5.6615,5.6735,5.7064,5.7872,5.7932,5.8141,5.868,5.883,5.8919,5.8919,5.9039,5.9099,5.9099,5.9099,5.9099,5.9099,5.9099,0.0,5.9099,5.9099,5.9099,5.9099,5.9099,5.9099,5.9099,5.9099,5.9039,5.88,5.7573,5.7094,5.7094,5.6944,5.6825,5.6645,5.6166,5.5987,5.5867,5.5209,5.4999,5.497,5.485,5.488,0.0,5.4999,5.5089,5.5179,5.5179,5.5179,5.5179,5.5179,5.5179,5.5179,5.5179,5.5179,5.5149,5.5029,5.4999,5.497,5.482,5.3892,5.3174,5.3174,5.3174,5.3174,5.3174,5.3174,5.3174,5.3174,5.3054,5.2995,5.2995,5.2875,5.2785,5.2785,5.2306,5.1768,5.1229,5.1109,5.0973,5.0973,5.09,5.084,5.084,5.0301,5.0016,4.9986,4.9254,4.9,0.0,0.0,0.0,0.0,0.0,0.0,0.0,0.0,0.0,0.0,0.0,5.1229,5.1229,0.0,5.1319,5.1648,5.1977,5.2426,5.3114,5.4341,5.5179,5.5179,5.5748,5.6526,5.7513,5.7603,5.7902,5.856,5.862,5.877,5.9099,5.9099,5.9099,5.9099,5.9099,5.9099,5.9099,5.9099,5.9099,5.9099,5.9099,5.9099,5.9099,5.9099,5.9099,5.9099,5.9099,5.9099,5.9099,5.9099,5.9099,5.9039,5.8351,5.7902,5.7603,5.7603,5.7393,5.7064,5.6735,5.6645,5.6585,5.6256,5.6137,5.6077,5.5777,5.5688,5.5598,5.5269,5.5179,5.5179,5.5179,5.5179,5.5179,5.5179,5.5179,5.5179,5.5179,5.5179,5.5179,5.5179,5.5179,5.5179,5.5179,5.464,5.4192,5.4192,5.4192,5.4192,5.4192,5.4192,5.4192,5.4192,5.3892,5.3683,5.3683,5.3384,5.3174,5.3174,5.2875,5.2546,5.2217,5.2187,5.2187,5.2187,5.1887,5.1708,5.1708,5.105,5.0674,5.0674,5.0391,5.0062,0.0,0.0,0.0,0.0,0.0,0.0,0.0,5.0704,5.1229,5.1229,5.1229,5.1229,5.1229,5.1319,5.1588,5.2127,5.2426,5.3025,5.4221,5.5059,5.5598,5.5748,5.6675,5.7573,5.8261,5.8321,5.853,5.9069,5.9099,5.9099,5.9099,5.9099,5.9099,5.9099,5.9099,5.9099,5.9099,5.9099,5.9099,5.9099,5.9099,5.9099,5.9099,5.9099,5.9099,5.9099,5.9099,5.9099,5.9099,5.9099,5.9099,5.9099,5.9099,5.877,5.8321,5.8321,5.7962,5.7483,5.7334,5.7304,5.7274,5.7124,5.7094,5.7004,5.6496,5.6346,5.6226,5.5718,5.5568,5.5568,5.5568,5.5568,5.5568,5.5568,5.5568,5.5538,5.5418,5.5388,5.5359,5.5209,5.5179,5.5179,5.5179,5.5179,5.5179,5.5179,5.5179,5.5179,5.5179,5.5179,5.5179,5.5179,5.473,5.4401,5.4401,5.3892,5.3503,5.3384,5.3384,5.3324,5.3174,5.3174,5.3174,5.3174,5.2665,5.2396,5.2396,5.1858,5.1588,5.1588,5.1588,5.1259,4.7309,4.7309,4.7459,4.8117,4.882,4.9434,0.0,5.0704,5.1229,5.1229,5.1229,5.1229,5.1229,5.1708,5.2127,5.2187,5.3204,5.4251,5.497,5.6107,5.7124,5.7723,5.7932,5.8261,5.8919,5.9009,5.9039,5.9099,5.9099,5.9099,5.9099,5.9099,5.9099,5.9099,5.9099,5.9099,5.9099,5.9099,5.9099,5.9099,5.9099,5.9099,5.9099,5.9099,5.9099,5.9099,5.9099,5.9099,5.9099,5.9099,5.9099,5.9099,5.9099,5.9069,5.9009,5.9009,5.8949,5.88,5.8201,5.8022,5.7902,5.7304,5.7094,5.7094,5.7004,5.7004,5.6974,5.6915,5.6885,5.6885,5.6885,5.6885,5.6885,5.6885,5.6885,5.6735,5.6166,5.6128,5.5897,5.5299,5.5179,5.5179,5.5179,5.5179,5.5179,5.5179,5.5179,5.5179,5.5179,5.5179,5.5179,5.5179,5.5119,5.5089,5.5089,5.4999,5.473,5.4132,5.4102,5.3832,5.3204,5.3174,5.3174,5.3174,5.3114,5.3084,5.3084,5.2995,5.2965,5.2965,5.2965,5.2606,4.7309,4.7309,4.7549,4.864,4.912,4.9523,5.0571,5.102,5.1229,5.1229,5.1229,5.1349,5.1708,5.2007,5.2456,5.3234,5.3832,5.4581,5.5628,5.6526,5.7363,5.8052,5.8471,5.88,5.9069,5.9099,5.9099,5.9099,5.9099,5.9099,5.9099,5.9099,5.9099,5.9099,5.9099,5.9099,5.9099,5.9099,5.9099,5.9099,5.9099,5.9099,5.9099,5.9099,5.9099,5.9099,5.9099,5.9099,5.9099,5.9099,5.9099,5.9099,5.9099,5.9099,5.9099,5.9099,5.9099,5.9069,5.88,5.871,5.865,5.8351,5.8261,5.8201,5.7812,5.7693,5.7603,5.7214,5.7094,5.7094,5.7094,5.7094,5.7094,5.7094,5.7094,5.7034,5.6765,5.6705,5.6615,5.6346,5.6286,5.6286,5.6286,5.5987,5.5777,5.5777,5.5448,5.5179,5.5179,5.5179,5.5179,5.5179,5.5179,5.5179,5.5179,5.5179,5.5059,5.479,5.479,5.464,5.4371,5.4341,5.4341,5.4341,5.3982,5.3773,5.3773,5.3384,5.3174,5.3174,5.3174,5.3264,4.7309,4.7429,4.7848,4.903,4.9449,4.9823,5.096,5.1229,5.1229,5.1229,5.1229,5.1409,5.2067,5.2336,5.2845,5.4012,5.4371,5.494,5.6226,5.6825,5.7423,5.8291,5.88,5.9099,5.9099,5.9099,5.9099,5.9099,5.9099,5.9099,5.9099,5.9099,5.9099,5.9099,5.9099,5.9099,5.9099,5.9099,5.9099,5.9099,5.9099,5.9099,5.9099,5.9099,5.9099,5.9099,5.9099,5.9099,5.9099,5.9099,5.9099,5.9099,5.9099,5.9099,5.9099,5.9099,5.9099,5.9099,5.9099,5.9099,5.9099,5.9099,5.9099,5.9009,5.853,5.8411,5.8291,5.7782,5.7663,5.7663,5.7663,5.7663,5.7663,5.7663,5.7663,5.7603,5.7423,5.7393,5.7334,5.7124,5.7094,5.7094,5.7094,5.6735,5.6436,5.6436,5.6017,5.5598,5.5239,5.5179,5.5179,5.5179,5.5179,5.5179,5.5179,5.5179,5.5179,5.5179,5.5179,5.5179,5.5179,5.5179,5.5179,5.5179,5.473,5.4491,5.4491,5.3982,5.3743,5.3743,5.3743,5.4012,4.7309,4.7758,4.8416,4.9149,4.9733,5.0345,5.105,5.1229,5.1229,5.1229,5.1229,5.1409,5.2067,5.2725,5.3384,5.4102,5.476,5.5598,5.6885,5.7094,5.7603,5.8919,5.9099,5.9099,5.9099,5.9099,5.9099,5.9099,5.9099,5.9099,5.9099,5.9099,5.9099,5.9099,5.9099,5.9099,5.9099,5.9099,5.9099,5.9099,5.9099,5.9099,5.9099,5.9099,5.9099,5.9099,5.9099,5.9099,5.9099,5.9099,5.9099,5.9099,5.9099,5.9099,5.9099,5.9099,5.9099,5.9099,5.9099,5.9099,5.9099,5.9099,5.9099,5.9099,5.9069,5.9069,5.9069,5.9039,5.9039,5.9039,5.9039,5.9039,5.9039,5.9039,5.9039,5.886,5.8231,5.8082,5.7902,5.7214,5.7094,5.7094,5.7094,5.7064,5.7064,5.7064,5.7064,5.6585,5.5359,5.5179,5.5179,5.5179,5.5179,5.5179,5.5179,5.5179,5.5179,5.5179,5.5179,5.5179,5.5179,5.5179,5.5179,5.5179,5.5179,5.5149,5.5149,5.5149,5.5119,5.5119,5.5119,5.5149,4.7309,4.7788,4.8446,4.9149,4.9763,5.0375,5.1079,5.1229,5.1229,5.1229,5.1229,5.1558,5.2665,5.3025,5.3563,5.467,5.5029,5.5628,5.6915,5.7094,5.7603,5.8949,5.9099,5.9099,5.9099,5.9099,5.9099,5.9099,5.9099,5.9099,5.9099,5.9099,5.9099,5.9099,5.9099,5.9099,5.9099,5.9099,5.9099,5.9099,5.9099,5.9099,5.9099,5.9099,5.9099,5.9099,5.9099,5.9099,5.9099,5.9099,5.9099,5.9099,5.9099,5.9099,5.9099,5.9099,5.9099,5.9099,5.9099,5.9099,5.9099,5.9099,5.9099,5.9099,5.9099,5.9099,5.9099,5.9099,5.9099,5.9099,5.9099,5.9099,5.9099,5.9099,5.9099,5.9039,5.883,5.877,5.871,5.8471,5.8441,5.8441,5.8441,5.8052,5.7633,5.7154,5.7094,5.6944,5.6526,5.6466,5.6466,5.6466,5.6466,5.6466,5.6466,5.6077,5.5837,5.5837,5.5448,5.5179,5.5179,5.5179,5.5179,5.5179,5.5179,5.5179,5.5179,5.5179,5.5179,5.5179,5.5179,5.5179,4.7578,4.8147,4.8805,4.9464,5.0092,5.0644,5.1109,5.1229,5.1229,5.1229,5.1229,5.1558,5.2636,5.3025,5.3533,5.467,5.5029,5.5628,5.6915,5.7094,5.7603,5.8949,5.9099,5.9099,5.9099,5.9099,5.9099,5.9099,5.9099,5.9099,5.9099,5.9099,5.9099,5.9099,5.9099,5.9099,5.9099,5.9099,5.9099,5.9099,5.9099,5.9099,5.9099,5.9099,5.9099,5.9099,5.9099,5.9099,5.9099,5.9099,5.9099,5.9099,5.9099,5.9099,5.9099,5.9099,5.9099,5.9099,5.9099,5.9099,5.9099,5.9099,5.9099,5.9099,5.9099,5.9099,5.9099,5.9099,5.9099,5.9099,5.9099,5.9099,5.9099,5.9099,5.9099,5.9099,5.9099,5.9099,5.9099,5.9099,5.9099,5.9099,5.9099,5.874,5.8321,5.7872,5.7812,5.7633,5.7154,5.7094,5.7094,5.7094,5.7094,5.7094,5.7094,5.6735,5.6496,5.6496,5.6107,5.5867,5.5867,5.5867,5.5867,5.5867,5.5867,5.5867,5.5867,5.5867,5.5867,5.5867,5.5867,5.5867,4.8117,4.882,4.9464,5.0046,5.0674,5.1229,5.1229,5.1229,5.1229,5.1229,5.1229,5.1409,5.2067,5.2725,5.3414,5.4102,5.476,5.5628,5.6915,5.7094,5.7603,5.8949,5.9099,5.9099,5.9099,5.9099,5.9099,5.9099,5.9099,5.9099,5.9099,5.9099,5.9099,5.9099,5.9099,5.9099,5.9099,5.9099,5.9099,5.9099,5.9099,5.9099,5.9099,5.9099,5.9099,5.9099,5.9099,5.9099,5.9099,5.9099,5.9099,5.9099,5.9099,5.9099,5.9099,5.9099,5.9099,5.9099,5.9099,5.9099,5.9099,5.9099,5.9099,5.9099,5.9099,5.9099,5.9099,5.9099,5.9099,5.9099,5.9099,5.9099,5.9099,5.9099,5.9099,5.9099,5.9099,5.9099,5.9099,5.9099,5.9099,5.9099,5.9099,5.9099,5.9099,5.9099,5.9099,5.865,5.7363,5.7184,5.7184,5.7184,5.7184,5.7184,5.7184,5.7154,5.7154,5.7154,5.7124,5.7094,5.7094,5.7094,5.7094,5.7094,5.7094,5.7094,5.7094,5.7094,5.7094,5.7094,5.7094,5.7094,4.8237,4.9134,4.9986,5.0136,5.0674,5.1229,5.1229,5.1229,5.1229,5.1229,5.1229,5.1409,5.2067,5.2725,5.3414,5.4102,5.476,5.5628,5.6915,5.7094,5.7603,5.8949,5.9099,5.9099,5.9099,5.9099,5.9099,5.9099,5.9099,5.9099,5.9099,5.9099,5.9099,5.9099,5.9099,5.9099,5.9099,5.9099,5.9099,5.9099,5.9099,5.9099,5.9099,5.9099,5.9099,5.9099,5.9099,5.9099,5.9099,5.9099,5.9099,5.9099,5.9099,5.9099,5.9099,5.9099,5.9099,5.9099,5.9099,5.9099,5.9099,5.9099,5.9099,5.9099,5.9099,5.9099,5.9099,5.9099,5.9099,5.9099,5.9099,5.9099,5.9099,5.9099,5.9099,5.9099,5.9099,5.9099,5.9099,5.9099,5.9099,5.9099,5.9099,5.9099,5.9099,5.9099,5.9099,5.8979,5.862,5.859,5.859,5.859,5.859,5.859,5.859,5.8141,5.7872,5.7872,5.7393,5.7094,5.7094,5.7094,5.7094,5.7094,5.7094,5.7094,5.7094,5.7094,5.7094,5.7094,5.7094,5.7094,4.8985,4.9673,5.0255,5.0554,5.0913,5.1229,5.1229,5.1229,5.1229,5.1229,5.1229,5.1319,5.1708,5.2306,5.2965,5.3653,5.4311,5.5299,5.6885,5.7094,5.7603,5.8949,5.9099,5.9099,5.9099,5.9099,5.9099,5.9099,5.9099,5.9099,5.9099,5.9099,5.9099,5.9099,5.9099,5.9099,5.9099,5.9099,5.9099,5.9099,5.9099,5.9099,5.9099,5.9099,5.9099,5.9099,5.9099,5.9099,5.9099,5.9099,5.9099,5.9099,5.9099,5.9099,5.9099,5.9099,5.9099,5.9099,5.9099,5.9099,5.9099,5.9099,5.9099,5.9099,5.9099,5.9099,5.9099,5.9099,5.9099,5.9099,5.9099,5.9099,5.9099,5.9099,5.9099,5.9099,5.9099,5.9099,5.9099,5.9099,5.9099,5.9099,5.9099,5.9099,5.9099,5.9099,5.9099,5.9099,5.9099,5.9099,5.9099,5.9099,5.9099,5.9099,5.9099,5.877,5.856,5.856,5.8201,5.7992,5.7992,5.7992,5.7992,5.7992,5.7992,5.7992,5.7992,5.7992,5.7992,5.7992,5.7992,5.7992,4.9867,5.0255,5.0465,5.1079,5.1229,5.1229,5.1229,5.1229,5.1229,5.1229,5.1229,5.1229,5.1229,5.1768,5.2426,5.3084,5.3773,5.485,5.6705,5.7034,5.7573,5.883,5.9069,5.9099,5.9099,5.9099,5.9099,5.9099,5.9099,5.9099,5.9099,5.9099,5.9099,5.9099,5.9099,5.9099,5.9099,5.9099,5.9099,5.9099,5.9099,5.9099,5.9099,5.9099,5.9099,5.9099,5.9099,5.9099,5.9099,5.9099,5.9099,5.9099,5.9099,5.9099,5.9099,5.9099,5.9099,5.9099,5.9099,5.9099,5.9099,5.9099,5.9099,5.9099,5.9099,5.9099,5.9099,5.9099,5.9099,5.9099,5.9099,5.9099,5.9099,5.9099,5.9099,5.9099,5.9099,5.9099,5.9099,5.9099,5.9099,5.9099,5.9099,5.9099,5.9099,5.9099,5.9099,5.9099,5.9099,5.9099,5.9099,5.9099,5.9099,5.9099,5.9099,5.9099,5.9099,5.9099,5.9099,5.9099,5.9099,5.9099,5.9099,5.9099,5.9099,5.9099,5.9099,5.9099,5.9099,5.9099,5.9099,5.9099,4.9986,5.0584,5.1079,5.1199,5.1229,5.1229,5.1229,5.1229,5.1229,5.1229,5.1229,5.1229,5.1229,5.1768,5.2426,5.3084,5.3773,5.47,5.6137,5.6765,5.7393,5.8201,5.877,5.9099,5.9099,5.9099,5.9099,5.9099,5.9099,5.9099,5.9099,5.9099,5.9099,5.9099,5.9099,5.9099,5.9099,5.9099,5.9099,5.9099,5.9099,5.9099,5.9099,5.9099,5.9099,5.9099,5.9099,5.9099,5.9099,5.9099,5.9099,5.9099,5.9099,5.9099,5.9099,5.9099,5.9099,5.9099,5.9099,5.9099,5.9099,5.9099,5.9099,5.9099,5.9099,5.9099,5.9099,5.9099,5.9099,5.9099,5.9099,5.9099,5.9099,5.9099,5.9099,5.9099,5.9099,5.9099,5.9099,5.9099,5.9099,5.9099,5.9099,5.9099,5.9099,5.9099,5.9099,5.9099,5.9099,5.9099,5.9099,5.9099,5.9099,5.9099,5.9099,5.9099,5.9099,5.9099,5.9099,5.9099,5.9099,5.9099,5.9099,5.9099,5.9099,5.9099,5.9099,5.9099,5.9099,5.9099,5.9099,5.9099,5.0481,5.099,5.1229,5.1229,5.1229,5.1229,5.1229,5.1229,5.1229,5.1229,5.1229,5.1229,5.1229,5.1468,5.2007,5.3025,5.3443,5.4251,5.5978,5.6705,5.7363,5.8052,5.871,5.9099,5.9099,5.9099,5.9099,5.9099,5.9099,5.9099,5.9099,5.9099,5.9099,5.9099,5.9099,5.9099,5.9099,5.9099,5.9099,5.9099,5.9099,5.9099,5.9099,5.9099,5.9099,5.9099,5.9099,5.9099,5.9099,5.9099,5.9099,5.9099,5.9099,5.9099,5.9099,5.9099,5.9099,5.9099,5.9099,5.9099,5.9099,5.9099,5.9099,5.9099,5.9099,5.9099,5.9099,5.9099,5.9099,5.9099,5.9099,5.9099,5.9099,5.9099,5.9099,5.9099,5.9099,5.9099,5.9099,5.9099,5.9099,5.9099,5.9099,5.9099,5.9099,5.9099,5.9099,5.9099,5.9099,5.9099,5.9099,5.9099,5.9099,5.9099,5.9099,5.9099,5.9099,5.9099,5.9099,5.9099,5.9099,5.9099,5.9099,5.9099,5.9099,5.9099,5.9099,5.9099,5.9099,5.9099,5.9099,5.9099,5.087,5.1229,5.1229,5.1229,5.1229,5.1229,5.1229,5.1229,5.1229,5.1229,5.1229,5.1229,5.1229,5.1229,5.1648,5.2965,5.3174,5.3832,5.5688,5.6615,5.7304,5.7842,5.862,5.9099,5.9099,5.9099,5.9099,5.9099,5.9099,5.9099,5.9099,5.9099,5.9099,5.9099,5.9099,5.9099,5.9099,5.9099,5.9099,5.9099,5.9099,5.9099,5.9099,5.9099,5.9099,5.9099,5.9099,5.9099,5.9099,5.9099,5.9099,5.9099,5.9099,5.9099,5.9099,5.9099,5.9099,5.9099,5.9099,5.9099,5.9099,5.9099,5.9099,5.9099,5.9099,5.9099,5.9099,5.9099,5.9099,5.9099,5.9099,5.9099,5.9099,5.9099,5.9099,5.9099,5.9099,5.9099,5.9099,5.9099,5.9099,5.9099,5.9099,5.9099,5.9099,5.9099,5.9099,5.9099,5.9099,5.9099,5.9099,5.9099,5.9099,5.9099,5.9099,5.9099,5.9099,5.9099,5.9099,5.9099,5.9099,5.9099,5.9099,5.9099,5.9099,5.9099,5.9099,5.9099,5.9099,5.9099,5.9099,5.9099,5.087,5.1229,5.1229,5.1229,5.1229,5.1229,5.1229,5.1229,5.1229,5.1229,5.1229,5.1229,5.1229,5.1229,5.1648,5.2965,5.3174,5.3683,5.5089,5.6316,5.7124,5.7184,5.8321,5.9099,5.9099,5.9099,5.9099,5.9099,5.9099,5.9099,5.9099,5.9099,5.9099,5.9099,5.9099,5.9099,5.9099,5.9099,5.9099,5.9099,5.9099,5.9099,5.9099,5.9099,5.9099,5.9099,5.9099,5.9099,5.9099,5.9099,5.9099,5.9099,5.9099,5.9099,5.9099,5.9099,5.9099,5.9099,5.9099,5.9099,5.9099,5.9099,5.9099,5.9099,5.9099,5.9099,5.9099,5.9099,5.9099,5.9099,5.9099,5.9099,5.9099,5.9099,5.9099,5.9099,5.9099,5.9099,5.9099,5.9099,5.9099,5.9099,5.9099,5.9099,5.9099,5.9099,5.9099,5.9099,5.9099,5.9099,5.9099,5.9099,5.9099,5.9099,5.9099,5.9099,5.9099,5.9099,5.9099,5.9099,5.9099,5.9099,5.9099,5.9099,5.9099,5.9099,5.9099,5.9099,5.9099,5.9099,5.9099,5.9099,5.0272,5.0584,5.0674,5.1109,5.1229,5.1229,5.1229,5.1229,5.1229,5.1229,5.1229,5.1229,5.1229,5.1528,5.2127,5.3025,5.3533,5.4132,5.5059,5.6286,5.7094,5.7094,5.8291,5.9099,5.9099,5.9099,5.9099,5.9099,5.9099,5.9099,5.9099,5.9099,5.9099,5.9099,5.9099,5.9099,5.9099,5.9099,5.9099,5.9099,5.9099,5.9099,5.9099,5.9099,5.9099,5.9099,5.9099,5.9099,5.9099,5.9099,5.9099,5.9099,5.9099,5.9099,5.9099,5.9099,5.9099,5.9099,5.9099,5.9099,5.9099,5.9099,5.9099,5.9099,5.9099,5.9099,5.9099,5.9099,5.9099,5.9099,5.9099,5.9099,5.9099,5.9099,5.9099,5.9099,5.9099,5.9099,5.9099,5.9099,5.9099,5.9099,5.9099,5.9099,5.9099,5.9099,5.9099,5.8743,5.7804,5.7664,5.7328,5.6394,5.8,5.9099,5.9099,5.9099,5.9099,5.9099,5.9099,5.9099,5.9099,5.8166,5.8081,5.9099,5.7216,5.6736,5.7664,5.6736,5.628,5.628,5.628,5.628,4.933,5.0084,5.0584,5.1063,5.0917,5.0698,5.1105,5.0917,5.0698,5.1105,5.1229,5.1229,5.1229,5.1768,5.2426,5.3084,5.3773,5.4431,5.5089,5.6286,5.7094,5.7094,5.8291,5.9099,5.9099,5.9099,5.9099,5.9099,5.9099,5.9099,5.9099,5.9099,5.9099,5.9099,5.9099,5.9099,5.9099,5.9099,5.9099,5.9099,5.9099,5.9099,5.9099,5.9099,5.9099,5.9099,5.9099,5.9099,5.9099,5.9099,5.9099,5.9099,5.9099,5.9099,5.9099,5.9099,5.9099,5.9099,5.9099,5.9099,5.9099,5.9099,5.9099,5.9099,5.9099,5.9099,5.9099,5.9099,5.9099,5.9099,5.9099,5.9099,5.9099,5.9099,5.9099,5.8991,5.8495,5.8386,5.8276,5.7804,5.7693,5.7693,5.7693,5.7693,5.7693,5.7693,5.7693,5.7272,5.6137,5.6022,5.5618,5.4505,5.6394,5.7693,5.7693,5.7693,5.7693,5.7693,5.7693,5.7693,5.7693,5.6622,5.6565,5.7693,5.553,5.4918,5.6022,5.4918,5.4386,5.4386,5.4386,5.4149,4.8134,4.9739,5.1199,5.1229,5.0191,4.9582,5.0917,5.0191,4.963,5.0917,5.1229,5.1229,5.1229,5.1768,5.2426,5.3084,5.3773,5.4431,5.5089,5.6286,5.7094,5.7094,5.8291,5.9099,5.9099,5.9099,5.9099,5.9099,5.9099,5.9099,5.9099,5.9099,5.9099,5.9099,5.9099,5.9099,5.9099,5.9099,5.9099,5.9099,5.9099,5.9099,5.9099,5.9099,5.9099,5.9099,5.9099,5.9099,5.9099,5.9099,5.9099,5.9099,5.9099,5.9099,5.9099,5.9099,5.9099,5.9099,5.9099,5.9099,5.9099,5.9099,5.9099,5.9099,5.9099,5.9099,5.9099,5.9099,5.9099,5.9099,5.9099,5.9099,5.9099,5.9099,5.9099,5.8689,5.7075,5.6736,5.6251,5.4741,5.4446,5.4446,5.4446,5.4446,5.4446,5.4446,5.4446,5.4446,5.4446,5.4386,5.4386,5.4386,5.4446,5.4446,5.4446,5.4446,5.4446,5.4446,5.4446,5.4446,5.4446,5.4446,5.4446,5.4446,5.4386,5.4386,5.4386,5.4386,5.4386,5.4386,5.4386,5.3549,4.5768,4.7043,4.8581,4.9114,4.8473,4.8139,4.9504,4.9504,4.9063,4.8489,4.9873,5.0917,4.9969,5.0679,5.1795,5.2998,5.3322,5.3781,5.5048,5.6286,5.7094,5.7094,5.8291,5.9099,5.9099,5.9099,5.9099,5.9099,5.9099,5.9099,5.9099,5.9099,5.9099,5.9099,5.9099,5.9099,5.9099,5.9099,5.9099,5.9099,5.9099,5.9099,5.9099,5.9099,5.9099,5.9099,5.9099,5.9099,5.9099,5.9099,5.9099,5.9099,5.9099,5.9099,5.9099,5.9099,5.9099,5.9099,5.9099,5.9099,5.9099,5.9099,5.9099,5.9099,5.9099,5.9099,5.9099,5.9099,5.8331,5.744,5.744,5.6679,5.5877,5.5877,5.5877,5.5762,5.5211,5.5152,5.4976,5.4505,5.4386,5.4386,5.4386,5.4386,5.4386,5.4386,5.4386,5.3969,5.2883,5.2761,5.2359,5.1205,5.1105,5.1989,5.4208,5.4386,5.4386,5.4386,5.4386,5.4386,5.4386,5.3368,5.3248,5.4386,5.2236,5.1642,5.2761,5.1642,5.1105,5.1105,5.1105,5.0853,4.4086,4.5434,4.7028,4.7652,4.7073,4.6682,4.8088,4.8038,4.7503,4.7146,4.8439,4.9582,4.9259,4.9716,5.0675,5.2129,5.2726,5.3308,5.4252,5.5946,5.7274,5.7782,5.859,5.9099,5.9099,5.9099,5.9099,5.9099,5.9099,5.9099,5.9099,5.9099,5.9099,5.9099,5.9099,5.9099,5.9099,5.9099,5.9099,5.9099,5.9099,5.9099,5.9099,5.9099,5.9099,5.9099,5.9099,5.9099,0.0,5.9099,5.9099,5.9099,5.9099,5.9099,5.9099,5.9099,5.9099,5.9099,5.9099,5.9099,5.9099,5.9099,5.9099,5.8991,5.8386,5.8634,5.9099,5.9099,5.7915,5.6736,5.6736,5.556,5.4386,5.4386,5.4386,5.4208,5.361,5.3489,5.3308,5.2727,5.2604,5.2604,5.2604,5.2604,5.2604,5.2604,5.2604,5.2236,5.1205,5.1079,5.0727,4.9719,4.959,5.0436,5.242,5.2604,5.2604,5.2604,5.2604,5.2604,5.2604,5.1642,5.158,5.2543,5.0626,5.0078,5.1079,5.0078,4.959,4.959,4.959,4.959,0.0,4.4654,4.6243,4.6771,4.5898,4.5262,4.663,4.5925,0.0,4.6526,4.694,4.748,4.8745,4.8845,4.9236,5.0657,5.2,5.2857,5.302,5.5453,5.7663,5.8949,5.9099,5.9099,5.9099,5.9099,5.9099,5.9099,5.9099,5.9099,5.9099,5.9099,5.9099,5.9099,5.9099,5.9099,5.9099,5.9099,5.9099,5.9099,5.9099,5.9099,5.9099,5.9099,5.9099,5.9099,5.9099,5.9099,5.9099,5.9099,5.9099,5.9099,5.9099,5.9099,5.9099,5.9099,5.9099,5.9099,5.9099,5.9099,5.9099,5.8991,5.8936,5.8634,5.7018,5.7664,5.8936,5.8798,5.7608,5.6366,5.6366,5.5211,5.4029,5.4029,5.4029,5.367,5.2148,5.1865,5.1393,4.9886,4.959,4.959,4.959,4.959,4.959,4.959,4.959,4.959,4.959,4.959,4.959,4.959,4.959,4.959,4.959,4.959,4.959,4.959,4.959,4.959,4.959,4.959,4.959,4.959,4.959,4.959,4.959,4.959,4.959,4.959,4.959,4.959,4.1607,0.0,4.4063,4.4702,4.4142,4.3797,0.0,4.5262,4.4779,4.4126,4.5661,4.6974,4.6757,4.7,4.7836,4.9687,5.0706,5.1813,5.346,5.6131,5.8171,5.9009,5.9099,5.9099,5.9099,5.9099,5.9099,5.9099,5.9099,5.9099,5.9099,5.9099,5.9099,5.9099,5.9099,5.9099,5.9099,5.9099,5.9099,5.9099,5.9099,5.9099,5.9099,5.9099,5.9099,5.9099,5.9099,5.9099,5.9099,5.9099,5.9099,5.9099,5.9099,5.9099,5.9099,5.9099,5.9099,5.9099,5.9099,5.9099,5.8936,5.7664,5.7243,5.6962,5.5385,5.6022,5.7018,5.5877,5.4359,5.3099,5.3099,5.1927,5.0753,5.0753,5.0753,5.0626,5.0245,5.0142,5.0078,4.9654,4.959,4.959,4.959,4.959,4.959,4.959,4.959,4.959,4.959,4.959,4.959,4.959,4.959,4.959,4.959,4.959,4.959,4.959,4.959,4.959,4.959,4.959,4.959,4.959,4.959,4.959,4.959,4.959,4.959,4.959,4.959,4.959,4.1555,4.222,4.2911,4.3532,4.3318,4.3184,4.3907,4.4071,4.3852,4.3129,4.4155,4.5582,4.6706,4.6807,4.7449,4.9392,5.0872,5.2579,5.5007,5.6947,5.8381,5.9039,5.9099,5.9099,5.9099,5.9099,5.9099,5.9099,5.9099,5.9099,5.9099,5.9099,5.9099,5.9099,5.9099,5.9099,5.9099,5.9099,5.9099,5.9099,5.9099,5.9099,5.9099,5.9099,5.9099,5.9099,5.9099,5.9099,5.9099,5.9099,5.9099,5.9099,5.9099,5.9099,5.9099,5.9099,5.9099,5.9099,5.9099,5.8634,5.7749,5.6137,5.5618,5.5327,5.379,5.3882,5.4536,5.4446,5.3248,5.1989,5.1989,5.079,4.959,4.959,4.959,4.959,4.959,4.959,4.959,4.959,4.959,4.959,4.959,4.959,4.959,4.959,4.959,4.959,4.959,4.959,4.959,4.959,4.959,4.959,4.959,4.959,4.959,4.959,4.959,4.959,4.959,4.959,4.959,4.959,4.959,4.959,4.959,4.959,4.959,4.959,4.959,4.9715,4.2087,4.2427,4.2713,4.2916,4.2986,4.2986,4.2986,4.2986,4.2986,4.2986,4.2986,4.4002,4.7347,4.7379,4.7558,4.9502,5.1774,5.4216,5.6855,5.7842,5.8471,5.9039,5.9099,5.9099,5.9099,5.9099,5.9099,5.9099,5.9099,5.9099,5.9099,5.9099,5.9099,5.9099,5.9099,5.9099,5.9099,5.9099,5.9099,5.9099,5.9099,5.9099,5.9099,5.9099,5.9099,5.9099,5.9099,5.9099,5.9099,5.9099,5.9099,5.9099,5.9099,5.9099,5.9045,5.8798,5.8743,5.8689,5.844,5.7496,5.6079,5.4564,5.4029,5.373,5.2112,5.1616,5.1927,5.3248,5.2727,5.1616,5.1616,5.06,4.959,4.959,4.959,4.959,4.959,4.959,4.959,4.959,4.959,4.959,4.959,4.959,4.959,4.959,4.959,4.959,4.959,4.959,4.959,4.959,4.959,4.959,4.959,4.959,4.959,4.959,4.959,4.959,4.959,4.959,4.959,4.959,4.959,4.959,4.959,4.9665,4.9715,4.9715,4.9816,5.0092,4.2187,4.3364,4.4323,4.327,4.2986,4.2986,4.2986,4.2986,4.2986,4.2986,4.2986,4.3822,4.6584,4.6959,4.7691,5.0161,5.2818,5.538,5.763,5.853,5.8979,5.9099,5.9099,5.9099,5.9099,5.9099,5.9099,5.9099,5.9099,5.9099,5.9099,5.9099,5.9099,5.9099,5.9099,5.9099,5.9099,5.9099,5.9099,5.9099,5.9099,5.9099,5.9099,5.9099,5.9099,5.9099,5.9099,5.9099,5.9099,5.9099,5.9099,5.9099,5.9099,5.9099,5.8936,5.7552,5.7075,5.6905,5.556,5.4976,5.4505,5.2883,5.2332,5.2051,5.0436,4.995,5.0014,5.027,5.0142,4.995,4.995,4.9783,4.959,4.959,4.959,4.959,4.959,4.959,4.959,4.959,4.959,4.959,4.959,4.959,4.959,4.959,4.959,4.959,4.959,4.959,4.959,4.959,4.959,4.959,4.959,4.959,4.959,4.959,4.959,4.959,4.959,4.959,4.959,4.959,4.959,4.959,4.959,5.0067,5.0293,5.0293,5.0795,5.1071,4.2665,4.3259,4.3742,4.3129,4.4126,4.5209,4.5209,4.5209,4.4994,4.4209,4.4329,4.5265,4.7676,4.8355,4.9638,5.3116,5.4338,5.5641,5.7809,5.868,5.9099,5.9099,5.9099,5.9099,5.9099,5.9099,5.9099,5.9099,5.9099,5.9099,5.9099,5.9099,5.9099,5.9099,5.9099,5.9099,5.9099,5.9099,5.9099,5.9099,5.9099,5.9099,5.9099,5.9099,5.9099,5.9099,5.9099,5.9099,5.9045,5.8166,5.7804,5.7719,5.6878,5.6565,5.6451,5.5734,5.5444,5.5211,5.367,5.3126,5.2822,5.1205,5.0727,5.0537,4.9847,4.959,4.959,4.959,4.959,4.959,4.959,4.959,4.959,4.959,4.959,4.959,4.959,4.959,4.959,4.959,4.959,4.959,4.959,4.959,4.959,4.959,4.959,4.959,4.959,4.959,4.9715,5.0017,5.0042,5.0167,5.0469,5.0494,5.0243,4.964,4.959,4.959,4.959,4.9891,5.0042,5.0042,5.0343,5.0494,5.0494,5.077,5.0896,5.0896,5.1147,5.1448,4.2986,4.324,4.3436,4.3436,4.4779,4.6135,4.6135,4.6135,4.5952,4.5368,4.5302,4.6211,4.8813,5.0124,5.1963,5.5358,5.545,5.5874,5.8017,5.8144,5.8276,5.8991,5.8743,5.858,5.858,5.8882,5.8936,5.858,5.8882,5.9099,5.9099,5.9099,5.9099,5.9099,5.9099,5.9099,5.9099,5.9099,5.9099,5.9099,5.9099,5.9099,5.9099,5.8689,5.858,5.8495,5.8166,5.797,5.7915,5.6679,5.6137,5.6022,5.4859,5.4149,5.385,5.385,5.361,5.3066,5.1865,5.1429,5.1205,5.0014,4.959,4.959,4.959,4.959,4.959,4.959,4.959,4.959,4.959,4.959,4.959,4.959,4.959,4.959,4.959,4.959,4.959,4.959,4.959,4.964,4.9766,4.9791,4.9841,4.9967,4.9992,4.9992,4.9992,4.9992,5.0167,5.0569,5.0619,5.0795,5.1247,5.1272,5.0921,5.0042,4.9992,4.9992,4.9992,5.0393,5.0619,5.0619,5.1046,5.1272,5.1272,5.1423,5.1473,5.1473,5.1599,5.19,4.2986,4.3907,4.4833,4.4833,4.4071,4.3295,4.3295,4.3295,4.3811,4.5571,4.4871,4.5145,4.9091,5.1915,5.3888,5.4826,5.538,5.6517,5.8703,5.6537,5.582,5.8743,5.7804,5.6849,5.6849,5.8221,5.8495,5.6962,5.8276,5.9099,5.9099,5.9099,5.9099,5.9099,5.9099,5.9099,5.9099,5.9099,5.9099,5.9099,5.9099,5.9099,5.9045,5.7552,5.6849,5.6792,5.5327,5.4741,5.4741,5.4623,5.4564,5.4564,5.4446,5.3489,5.2148,5.2148,5.1205,4.995,4.9847,4.9783,4.9783,4.9654,4.959,4.959,4.959,4.959,4.959,4.959,4.959,4.959,4.959,4.959,4.959,4.959,4.959,4.959,4.959,4.959,4.959,4.959,4.959,4.9766,5.0268,5.0368,5.0544,5.1071,5.1172,5.1172,5.1172,5.1172,5.1172,5.1222,5.1222,5.1247,5.1272,5.1272,5.1247,5.1172,5.1172,5.1172,5.1172,5.1197,5.1222,5.1222,5.1272,5.1272,5.1272,5.18,5.2051,5.2051,5.2578,5.2829,4.2986,4.3406,4.3742,4.3742,4.366,4.397,4.5684,4.6035,4.6114,4.637,4.6234,4.6778,4.9083,5.1152,5.2799,5.3809,5.4174,5.474,5.6022,5.5152,5.48,5.605,5.5618,5.5269,5.5269,5.6679,5.7384,5.6736,5.7243,5.7608,5.7608,5.6679,5.6165,5.6165,5.6165,5.6165,5.6165,5.6165,5.6165,5.6223,5.716,5.7608,5.7552,5.5964,5.5269,5.5211,5.4623,5.4386,5.4327,5.3308,5.2883,5.2822,5.1829,5.1042,5.0499,5.0499,5.0142,4.959,4.959,4.959,4.959,4.959,4.959,4.959,4.959,4.959,4.959,4.959,4.959,4.959,4.959,4.959,4.959,4.959,4.959,4.959,4.959,4.9866,5.0117,5.0117,5.0393,5.0695,5.0921,5.0946,5.1021,5.1247,5.1272,5.1272,5.1272,5.1272,5.1423,5.1749,5.2101,5.2302,5.2302,5.2302,5.2302,5.2302,5.1649,5.1272,5.1272,5.1599,5.18,5.18,5.2126,5.2302,5.2302,5.2528,5.2628,5.2628,5.2829,5.2929,4.2986,4.2986,4.3011,4.3187,4.3514,4.4376,4.6643,4.7,4.6863,4.6978,4.7604,4.8195,4.8536,5.0196,5.1758,5.2575,5.2847,5.3298,5.4272,5.3516,5.3248,5.4268,5.3969,5.361,5.361,5.5094,5.5791,5.5241,5.5676,5.5964,5.5964,5.4976,5.4386,5.4386,5.4386,5.4386,5.4386,5.4386,5.4386,5.4386,5.4948,5.5474,5.5907,5.4386,5.361,5.361,5.3126,5.291,5.2788,5.1678,5.1268,5.1142,5.0014,4.959,4.959,4.959,4.959,4.959,4.959,4.959,4.959,4.959,4.959,4.959,4.959,4.959,4.959,4.959,4.959,4.959,4.959,4.959,4.959,4.959,4.9715,4.9866,4.9866,5.0293,5.0695,5.0695,5.1021,5.1348,5.1498,5.1548,5.1599,5.1774,5.18,5.18,5.18,5.18,5.195,5.2327,5.2703,5.2929,5.2929,5.2929,5.2929,5.2929,5.2226,5.18,5.18,5.2176,5.2377,5.2377,5.2729,5.2929,5.2929,5.2929,5.2929,5.2929,5.2929,5.2929,4.2986,4.2986,4.3112,4.3664,4.3815,4.4116,4.5221,4.5045,4.5175,4.7298,4.8526,4.8871,4.7374,4.9377,5.1179,5.1171,5.1619,5.2516,5.4149,5.1642,5.079,5.3997,5.2944,5.1989,5.1989,5.3429,5.373,5.2112,5.3489,5.4386,5.4386,5.4327,5.4327,5.4327,5.4327,5.4327,5.4327,5.4327,5.4327,5.4327,5.2761,5.2822,5.4327,5.27,5.1989,5.1927,5.0308,4.959,4.959,4.959,4.959,4.959,4.959,4.959,4.959,4.959,4.959,4.959,4.959,4.959,4.959,4.959,4.959,4.959,4.959,4.959,4.959,4.9615,4.9615,4.9615,4.9615,4.9615,4.9615,4.9615,5.0017,5.0419,5.0419,5.087,5.1297,5.1297,5.1297,5.1473,5.2026,5.2126,5.2302,5.2854,5.2929,5.2929,5.2929,5.2929,5.2929,5.2929,5.2929,5.2929,5.2929,5.2929,5.2929,5.2929,5.2929,5.2929,5.2929,5.2929,5.2929,5.2929,5.2929,5.2929,5.2929,5.2929,5.2929,5.2929,5.2929,5.2929,4.3564,4.384,4.4166,4.4342,4.4694,4.507,4.5422,4.5347,4.5615,4.7002,4.78,4.8313,4.8334,4.8976,4.962,5.0002,5.0206,5.0499,5.0979,5.0206,4.995,5.0916,5.0626,5.0308,5.0308,5.1741,5.2516,5.2051,5.2455,5.27,5.27,5.1642,5.1042,5.1042,5.1042,5.1042,5.1042,5.1042,5.1042,5.1042,5.0563,5.1142,5.2639,5.1016,5.0308,5.0308,4.9847,4.959,4.959,4.959,4.959,4.959,4.959,4.959,4.959,4.959,4.959,4.959,4.959,4.959,4.959,4.959,4.959,4.959,4.959,4.959,4.9665,5.0067,5.0167,5.0268,5.067,5.0795,5.067,5.0268,5.0619,5.1021,5.1021,5.1473,5.185,5.185,5.2176,5.2503,5.2653,5.2678,5.2729,5.2904,5.2929,5.2929,5.2929,5.2929,5.2929,5.2929,5.2929,5.2929,5.2929,5.2929,5.2929,5.2929,5.2929,5.2929,5.2929,5.2929,5.2929,5.2929,5.2929,5.2929,5.2929,5.2929,5.2929,5.2929,5.2929,5.2929,4.4141,4.4367,4.4669,4.492,4.5221,4.5598,4.605,4.615,4.6376,4.7255,4.7883,4.836,4.8711,4.8962,4.9213,4.954,4.959,4.959,4.959,4.959,4.959,4.959,4.959,4.959,4.959,5.0499,5.1016,5.1016,5.1016,5.1016,5.1016,5.0142,4.959,4.959,4.959,4.959,4.959,4.959,4.959,4.959,4.959,5.0142,5.1016,5.0014,4.959,4.959,4.959,4.959,4.959,4.959,4.959,4.959,4.959,4.959,4.959,4.959,4.959,4.959,4.959,4.959,4.959,4.959,4.959,4.959,4.959,4.9741,4.9992,5.0318,5.0569,5.0845,5.1197,5.1448,5.1473,5.0896,5.1197,5.1599,5.1599,5.2051,5.2427,5.2427,5.2703,5.2929,5.2929,5.2929,5.2929,5.2929,5.2929,5.2929,5.2929,5.2929,5.2929,5.2929,5.2929,5.2929,5.2929,5.2929,5.2929,5.2929,5.2929,5.2929,5.2929,5.2929,5.2929,5.2929,5.2929,5.2929,5.2929,5.2929,5.2929,5.2929,5.2929,5.2929,4.4694,4.4744,4.4895,4.5422,4.5598,4.5924,4.6954,4.7255,4.7405,4.7883,4.8435,4.8837,4.8837,4.9264,4.959,4.959,4.959,4.959,4.959,4.959,4.959,4.959,4.959,4.959,4.959,4.959,4.959,4.959,4.959,4.959,4.959,4.959,4.959,4.959,4.959,4.959,4.959,4.959,4.959,4.959,4.959,4.959,4.959,4.959,4.959,4.959,4.959,4.959,4.959,4.959,4.959,4.959,4.959,4.959,4.959,4.959,4.959,4.959,4.959,4.959,4.959,4.959,4.9615,4.9665,4.9665,5.0067,5.0494,5.0569,5.0946,5.1373,5.1423,5.18,5.2051,5.1548,5.1825,5.2176,5.2176,5.2578,5.2929,5.2929,5.2929,5.2929,5.2929,5.2929,5.2929,5.2929,5.2929,5.2929,5.2929,5.2929,5.2929,5.2929,5.2929,5.2929,5.2929,5.2929,5.2929,5.2929,5.2929,5.2929,5.2929,5.2929,5.2929,5.2929,5.2929,5.2929,5.2929,5.298,5.3005,5.3005,5.3055,5.308,4.5296,4.5623,4.5974,4.61,4.6451,4.6954,4.7581,4.8083,4.846,4.856,4.9038,4.9414,4.9414,4.9515,4.959,4.959,4.959,4.959,4.959,4.959,4.959,4.959,4.959,4.959,4.959,4.959,4.959,4.959,4.959,4.959,4.959,4.959,4.959,4.959,4.959,4.959,4.959,4.959,4.959,4.959,4.959,4.959,4.959,4.959,4.959,4.959,4.959,4.959,4.959,4.959,4.959,4.959,4.959,4.959,4.959,4.959,4.959,4.959,4.959,4.959,4.959,4.959,4.9891,5.0243,5.0243,5.0645,5.1172,5.1624,5.1825,5.2026,5.2452,5.2653,5.2729,5.2603,5.2653,5.2754,5.2754,5.2854,5.2929,5.2929,5.2929,5.2929,5.2929,5.2929,5.2929,5.2929,5.2929,5.2929,5.2929,5.2929,5.2929,5.2929,5.2929,5.2929,5.2929,5.2929,5.2929,5.2929,5.2929,5.2929,5.2929,5.2929,5.2929,5.2929,5.2929,5.2929,5.2929,5.3331,5.3532,5.3557,5.4009,5.421,4.5874,4.61,4.6376,4.6652,4.7104,4.7657,4.8184,4.8761,4.9163,4.9163,4.9389,4.959,4.959,4.959,4.959,4.959,4.959,4.959,4.959,4.959,4.959,4.959,4.959,4.959,4.959,4.959,4.959,4.959,4.959,4.959,4.959,4.959,4.959,4.959,4.959,4.9715,4.9992,4.9992,5.0117,5.0393,5.0393,5.0393,5.0393,4.9841,4.959,4.959,4.959,4.959,4.959,4.959,4.959,4.959,4.959,4.959,4.959,4.959,4.959,4.964,4.9891,4.9992,5.0042,5.0318,5.0594,5.082,5.082,5.1222,5.1724,5.2026,5.2302,5.2578,5.2854,5.2929,5.2929,5.2929,5.2929,5.2929,5.2929,5.2929,5.2929,5.2929,5.2929,5.2929,5.2929,5.2929,5.2929,5.2929,5.2929,5.2929,5.2929,5.2929,5.2929,5.2929,5.3155,5.3306,5.3306,5.3557,5.3708,5.3708,5.3708,5.3708,5.3708,5.3708,5.3582,5.3306,5.3582,5.3708,5.3708,5.3984,5.411,5.4135,5.4436,5.4561,4.6301,4.6301,4.6451,4.7004,4.7531,4.8058,4.8636,4.9188,4.959,4.959,4.959,4.959,4.959,4.959,4.959,4.959,4.959,4.959,4.959,4.959,4.959,4.959,4.959,4.959,4.959,4.959,4.959,4.959,4.959,4.959,4.959,4.969,4.9741,4.9741,4.9841,5.0117,5.0569,5.0569,5.082,5.1272,5.1272,5.1272,5.1247,5.0318,4.9891,4.9891,4.9891,4.9816,4.9741,4.9741,4.9665,4.9615,4.969,4.9741,4.9741,4.9841,4.9891,4.9941,5.0419,5.0569,5.0645,5.1122,5.1348,5.1423,5.1423,5.18,5.2251,5.2251,5.2578,5.2929,5.2929,5.2929,5.2929,5.2929,5.2929,5.2929,5.2929,5.2929,5.2929,5.2929,5.2929,5.2929,5.2929,5.2929,5.2929,5.2929,5.2929,5.2929,5.2929,5.3005,5.3055,5.3055,5.3532,5.3858,5.3858,5.4285,5.4561,5.4561,5.4561,5.4561,5.4561,5.4662,5.4486,5.4009,5.4361,5.4561,5.4561,5.4662,5.4712,5.4712,5.4813,5.4863,4.6301,4.6301,4.6451,4.7004,4.7531,4.8058,4.8636,4.9188,4.959,4.959,4.959,4.959,4.959,4.959,4.959,4.959,4.959,4.959,4.959,4.959,4.959,4.959,4.959,4.959,4.959,4.959,4.959,4.959,4.959,4.959,4.959,5.0042,5.0318,5.0318,5.0795,5.1096,5.1172,5.1172,5.1197,5.1272,5.1272,5.1272,5.1272,5.1122,5.1046,5.1046,5.1046,5.077,5.0318,5.0318,5.0017,4.964,5.0117,5.0318,5.0368,5.087,5.1046,5.1071,5.1147,5.1172,5.1172,5.1247,5.1599,5.2,5.2,5.2377,5.2829,5.2829,5.2879,5.2929,5.2929,5.2929,5.2929,5.2929,5.2929,5.2929,5.2929,5.2929,5.2929,5.2929,5.2929,5.2929,5.2929,5.2929,5.2929,5.2929,5.2929,5.2929,5.2929,5.3331,5.3607,5.3607,5.411,5.4461,5.4461,5.4511,5.4561,5.4561,5.4561,5.4561,5.4561,5.5039,5.5239,5.5164,5.4762,5.4561,5.4561,5.5039,5.529,5.529,5.5767,5.5993,4.6301,4.6527,4.6903,4.7431,4.7983,4.8535,4.9113,4.9414,4.959,4.959,4.959,4.959,4.959,4.959,4.959,4.959,4.959,4.959,4.959,4.959,4.959,4.959,4.959,4.959,4.959,4.959,4.959,4.959,4.959,4.9715,5.0042,5.0293,5.0569,5.0896,5.1147,5.1423,5.1749,5.1749,5.19,5.2201,5.2201,5.2201,5.2201,5.2201,5.1875,5.1272,5.1272,5.1147,5.0896,5.0896,5.077,5.0569,5.082,5.0896,5.0946,5.1197,5.1272,5.1322,5.1624,5.1749,5.18,5.2101,5.2377,5.2578,5.2578,5.2729,5.2929,5.2929,5.2929,5.2929,5.2929,5.2929,5.2929,5.2929,5.2929,5.2929,5.2929,5.2929,5.2929,5.2929,5.2929,5.2929,5.2929,5.2929,5.2929,5.2929,5.3181,5.3356,5.3356,5.3833,5.4185,5.4185,5.4687,5.5039,5.5039,5.5315,5.5491,5.5491,5.5491,5.5491,5.5491,5.5717,5.5842,5.5842,5.5616,5.5491,5.5491,5.5742,5.5842,5.5867,5.6093,5.6219,4.6728,4.7029,4.7456,4.7983,4.846,4.8912,4.9464,4.959,4.959,4.959,4.959,4.959,4.959,4.959,4.959,4.959,4.959,4.959,4.959,4.959,4.959,4.959,4.959,4.959,4.959,4.959,4.959,4.959,4.9715,4.9992,5.0393,5.0695,5.1046,5.1473,5.1624,5.19,5.2302,5.2302,5.2528,5.2929,5.2929,5.2929,5.2929,5.2929,5.2477,5.1699,5.1699,5.1624,5.1498,5.1498,5.1398,5.1297,5.1448,5.1498,5.1498,5.1649,5.1699,5.1749,5.2176,5.2302,5.2377,5.2804,5.2929,5.2929,5.2929,5.2929,5.2929,5.2929,5.2929,5.2929,5.2929,5.2929,5.2929,5.2929,5.2929,5.2929,5.2929,5.2929,5.2929,5.2929,5.2929,5.2929,5.2929,5.303,5.313,5.313,5.3582,5.3909,5.3909,5.4411,5.4762,5.4762,5.5265,5.5591,5.5591,5.5968,5.6219,5.6219,5.6219,5.6219,5.6219,5.6219,5.6219,5.6219,5.6219,5.6219,5.6219,5.6219,5.6219,5.6219,5.6219,5.6219,4.7832,4.7857,4.8008,4.8586,4.8736,4.8912,4.9464,4.959,4.959,4.959,4.959,4.959,4.959,4.959,4.959,4.959,4.959,4.959,4.959,4.959,4.959,4.959,4.959,4.959,4.959,4.959,4.959,4.959,5.0067,5.0393,5.0419,5.1423,5.2026,5.2076,5.2578,5.2854,5.2879,5.2879,5.2904,5.2929,5.2929,5.2929,5.2929,5.2929,5.2904,5.2854,5.2854,5.2553,5.2076,5.2076,5.1749,5.1322,5.185,5.2076,5.2126,5.2653,5.2854,5.2854,5.2879,5.2879,5.2879,5.2929,5.2929,5.2929,5.2929,5.2929,5.2929,5.2929,5.2929,5.2929,5.2929,5.2929,5.2929,5.2929,5.2929,5.2929,5.2929,5.2929,5.2929,5.2929,5.2929,5.2929,5.2929,5.3331,5.3658,5.3658,5.416,5.4511,5.4511,5.4988,5.534,5.534,5.5842,5.6168,5.6168,5.6194,5.6219,5.6219,5.6219,5.6219,5.6219,5.6219,5.6219,5.6219,5.6219,5.6219,5.6219,5.6219,5.6219,5.6219,5.6219,5.6219,4.7908,4.8184,4.851,4.8711,4.9038,4.9339,4.9565,4.959,4.959,4.959,4.959,4.959,4.959,4.959,4.959,4.959,4.959,4.959,4.959,4.959,4.959,4.959,4.959,4.959,4.959,4.959,4.9741,5.0092,5.0293,5.0745,5.1473,5.1875,5.2277,5.2628,5.2829,5.2929,5.2929,5.2929,5.2929,5.2929,5.2929,5.2929,5.2929,5.2929,5.2929,5.2929,5.2929,5.2804,5.2628,5.2628,5.2528,5.2352,5.2553,5.2628,5.2653,5.2854,5.2929,5.2929,5.2929,5.2929,5.2929,5.2929,5.2929,5.2929,5.2929,5.2929,5.2929,5.2929,5.2929,5.2929,5.2929,5.2929,5.2929,5.2929,5.2929,5.2929,5.2929,5.2929,5.2929,5.2929,5.2929,5.303,5.3356,5.3582,5.3833,5.421,5.4737,5.5089,5.5089,5.5566,5.5917,5.5917,5.6093,5.6219,5.6219,5.6219,5.6219,5.6219,5.6219,5.6219,5.6219,5.6219,5.6219,5.6219,5.6219,5.6219,5.6219,5.6219,5.6219,5.6219,5.6219,5.6219,4.8485,4.8761,4.9063,4.9063,4.9314,4.959,4.959,4.959,4.959,4.959,4.959,4.959,4.959,4.959,4.959,4.959,4.959,4.959,4.959,4.959,4.959,4.959,4.959,4.959,4.959,4.959,4.9816,5.0368,5.0594,5.1122,5.2051,5.2277,5.2553,5.2929,5.2929,5.2929,5.2929,5.2929,5.2929,5.2929,5.2929,5.2929,5.2929,5.2929,5.2929,5.2929,5.2929,5.2929,5.2929,5.2929,5.2929,5.2929,5.2929,5.2929,5.2929,5.2929,5.2929,5.2929,5.2929,5.2929,5.2929,5.2929,5.2929,5.2929,5.2929,5.2929,5.2929,5.2929,5.2929,5.2929,5.2929,5.2929,5.2929,5.2929,5.2929,5.298,5.3155,5.3055,5.298,5.3155,5.3181,5.3356,5.3909,5.4135,5.4411,5.4787,5.5315,5.5666,5.5666,5.5993,5.6219,5.6219,5.6219,5.6219,5.6219,5.6219,5.6219,5.6219,5.6219,5.6219,5.6219,5.6219,5.6219,5.6219,5.6219,5.6219,5.6219,5.6219,5.6219,5.6219,5.6219,5.6219,0.0,0.0,0.0,4.959,4.959,4.959,4.959,4.959,4.959,4.959,4.959,4.959,4.959,4.959,4.959,4.959,4.959,4.959,4.959,4.959,4.959,4.959,4.959,4.959,4.959,4.9615,4.9841,5.0393,5.0971,5.1548,5.2101,5.2628,5.2929,5.2929,5.2929,5.2929,5.2929,5.2929,5.2929,5.2929,5.2929,5.2929,5.2929,5.2929,5.2929,5.2929,5.2929,5.2929,5.2929,5.2929,5.2929,5.2929,5.2929,5.2929,5.2929,5.2929,5.2929,5.2929,5.2929,5.2929,5.2929,5.2929,5.2929,5.2929,5.2929,5.2929,5.2929,5.2929,5.2929,5.2929,5.2929,5.2929,5.2929,5.2955,5.2955,5.308,5.3607,5.3331,5.313,5.3632,5.3733,5.3909,5.4486,5.5039,5.539,5.5415,5.5867,5.6219,5.6219,5.6219,5.6219,5.6219,5.6219,5.6219,5.6219,5.6219,5.6219,5.6219,5.6219,5.6219,5.6219,5.6219,5.6219,5.6219,5.6219,5.6219,5.6244,5.6219,5.6219,5.6219,5.6219,5.6244,4.959,0.0,0.0,0.0,0.0,0.0,4.959,4.959,4.959,4.959,4.959,4.959,4.959,4.959,4.959,4.959,4.959,4.959,4.959,4.959,4.959,4.959,4.959,4.959,4.959,4.9967,5.0419,5.0996,5.1548,5.2126,5.2678,5.2854,5.2929,5.2929,5.2929,5.2929,5.2929,5.2929,5.2929,5.2929,5.2929,5.2929,5.2929,5.2929,5.2929,5.2929,5.2929,5.2929,5.2929,5.2929,5.2929,5.2929,5.2929,5.2929,5.2929,5.2929,5.2929,5.2929,5.2929,5.2929,5.2929,5.2929,5.2929,5.2929,5.2929,5.2929,5.2929,5.2929,5.2929,5.2929,5.2929,5.2929,5.303,5.3406,5.3482,5.3632,5.421,5.421,5.416,5.4285,5.4336,5.4511,5.5064,5.529,5.5516,5.5917,5.6118,5.6219,5.6219,5.6219,5.6219,5.6219,5.6219,5.6219,5.6219,5.6219,5.6219,5.6219,5.6219,5.6219,5.6219,5.6219,5.6219,5.6219,5.6219,5.642,5.6796,5.642,5.6219,5.6219,5.662,5.6796,0.0,4.959,4.959,4.959,0.0,0.0,4.959,4.959,4.959,4.959,4.959,4.959,4.959,4.959,4.959,4.959,4.959,4.959,4.959,4.959,4.959,4.959,4.959,4.959,4.959,5.0092,5.067,5.1247,5.18,5.2352,5.2904,5.2929,5.2929,5.2929,5.2929,5.2929,5.2929,5.2929,5.2929,5.2929,5.2929,5.2929,5.2929,5.2929,5.2929,5.2929,5.2929,5.2929,5.2929,5.2929,5.2929,5.2929,5.2929,5.2929,5.2929,5.2929,5.2929,5.2929,5.2929,5.2929,5.2929,5.2929,5.2929,5.2929,5.2929,5.2929,5.2929,5.2929,5.2929,5.2929,5.2929,5.308,5.3331,5.3632,5.3884,5.421,5.4787,5.4913,5.4913,5.4913,5.4913,5.5089,5.5641,5.5742,5.5842,5.6168,5.6219,5.6219,5.6219,5.6219,5.6219,5.6219,5.6219,5.6219,5.6219,5.6219,5.6219,5.6219,5.642,5.6545,5.6545,5.6796,5.6922,5.6922,5.6922,5.7072,5.7399,5.6821,5.6671,5.6922,5.7248,5.7399,0.0,0.0,0.0,4.959,4.959,0.0,4.959,4.959,4.959,4.959,4.959,4.959,4.959,4.959,4.959,4.959,4.959,4.959,4.959,4.959,4.959,4.959,4.959,4.959,4.959,5.0142,5.072,5.1247,5.185,5.2402,5.2904,5.2929,5.2929,5.2929,5.2929,5.2929,5.2929,5.2929,5.2929,5.2929,5.2929,5.2929,5.2929,5.2929,5.2929,5.2929,5.2929,5.2929,5.2929,5.2929,5.2929,5.2929,5.2929,5.2929,5.2929,5.2929,5.2929,5.2929,5.2929,5.2929,5.2929,5.2929,5.2929,5.2929,5.2929,5.2929,5.2929,5.2929,5.298,5.3005,5.3005,5.3406,5.3808,5.3858,5.4285,5.4813,5.5365,5.5491,5.5491,5.5491,5.5491,5.5641,5.6118,5.6219,5.6219,5.6219,5.6219,5.6219,5.6219,5.6219,5.6219,5.6219,5.6219,5.6244,5.6294,5.6294,5.6319,5.6394,5.6872,5.7123,5.7123,5.7625,5.7901,5.7901,5.7951,5.8001,5.8001,5.7424,5.7399,5.7901,5.7951,5.8001,4.959,4.959,4.959,4.959,4.959,0.0,4.959,4.959,4.959,4.959,4.959,4.959,4.959,4.959,4.959,4.959,4.959,4.959,4.959,4.959,4.959,4.959,4.959,4.959,4.959,5.0519,5.1147,5.1272,5.2201,5.2804,5.2929,5.2929,5.2929,5.2929,5.2929,5.2929,5.2929,5.2929,5.2929,5.2929,5.2929,5.2929,5.2929,5.2929,5.2929,5.2929,5.2929,5.2929,5.2929,5.2929,5.2929,5.2929,5.2929,5.2929,5.2929,5.2929,5.2929,5.2929,5.2929,5.2929,5.2929,5.2929,5.2929,5.2929,5.2929,5.2929,5.2929,5.2929,5.3231,5.3557,5.3557,5.3959,5.4511,5.4963,5.5139,5.539,5.5942,5.6043,5.6043,5.6043,5.6043,5.6093,5.6194,5.6219,5.6219,5.6219,5.6219,5.6219,5.6219,5.6219,5.6219,5.6219,5.6219,5.6394,5.6846,5.6872,5.7072,5.7549,5.7675,5.7725,5.7725,5.7851,5.7901,5.7901,5.8328,5.8554,5.8554,5.8001,5.7775,5.7901,5.8353,5.8554,4.959,4.959,4.959,4.959,4.959,0.0,0.0,4.959,4.959,4.959,4.959,4.959,4.959,4.959,4.959,4.959,4.959,4.959,4.959,4.959,4.959,4.959,4.959,4.959,4.959,5.0619,5.1498,5.2076,5.2628,5.2929,5.2929,5.2929,5.2929,5.2929,5.2929,5.2929,5.2929,5.2929,5.2929,5.2929,5.2929,5.2929,5.2929,5.2929,5.2929,5.2929,5.2929,5.2929,5.2929,5.2929,5.2929,5.2929,5.2929,5.2929,5.2929,5.2929,5.2929,5.2929,5.2929,5.2929,5.2929,5.2929,5.2929,5.2929,5.2929,5.3105,5.3381,5.3658,5.3934,5.4135,5.4135,5.4561,5.5039,5.5315,5.5591,5.5867,5.6143,5.6219,5.6219,5.6219,5.6219,5.6219,5.6219,5.6219,5.6219,5.6219,5.6219,5.6219,5.6219,5.6219,5.6319,5.6595,5.662,5.6846,5.7424,5.7474,5.76,5.7876,5.8152,5.8303,5.8303,5.8554,5.8704,5.8704,5.8956,5.9106,5.9106,5.883,5.8704,5.8704,5.8981,5.9106,4.959,4.959,4.959,4.959,4.959,4.959,0.0,0.0,0.0,4.959,4.959,4.959,4.959,4.959,4.959,4.959,4.959,4.959,4.959,4.959,4.959,4.959,4.959,4.959,4.959,5.0619,5.1749,5.2854,5.2929,5.2929,5.2929,5.2929,5.2929,5.2929,5.2929,5.2929,5.2929,5.2929,5.2929,5.2929,5.2929,5.2929,5.2929,5.2929,5.2929,5.2929,5.2929,5.2929,5.2929,5.2929,5.2929,5.2929,5.2929,5.2929,5.2929,5.2929,5.2929,5.2929,5.2929,5.2929,5.2955,5.3055,5.3155,5.3256,5.3256,5.3532,5.3959,5.4436,5.4637,5.4712,5.4712,5.5139,5.5541,5.5541,5.5892,5.6219,5.6219,5.6219,5.6219,5.6219,5.6219,5.6219,5.6219,5.6219,5.6219,5.6219,5.6219,5.6219,5.6219,5.6294,5.6545,5.6972,5.7123,5.7424,5.8001,5.8052,5.8102,5.8202,5.8629,5.8855,5.8855,5.9282,5.9483,5.9483,5.9483,5.9483,5.9483,5.9483,5.9483,5.9483,5.9483,5.9483,4.959,4.959,4.959,4.959,4.959,4.959,4.959,0.0,4.959,4.959,0.0,4.959,4.959,0.0,0.0,4.959,4.959,4.959,4.959,4.959,4.959,4.959,4.959,4.959,4.959,5.0619,5.1749,5.2854,5.2929,5.2929,5.2929,5.2929,5.2929,5.2929,5.2929,5.2929,5.2929,5.2929,5.2929,5.2929,5.2929,5.2929,5.2929,5.2929,5.2929,5.2929,5.2929,5.2929,5.2929,5.2929,5.2929,5.2929,5.2929,5.2929,5.2929,5.2929,5.2929,5.2929,5.2929,5.2929,5.3005,5.3457,5.3959,5.4386,5.4386,5.4411,5.4486,5.4536,5.4913,5.529,5.529,5.5691,5.6118,5.6118,5.6168,5.6219,5.6219,5.6219,5.6219,5.6219,5.6219,5.6219,5.6219,5.6219,5.6219,5.6219,5.6219,5.6219,5.6219,5.6646,5.6972,5.7022,5.7499,5.8027,5.8579,5.8629,5.883,5.9282,5.9382,5.9408,5.9408,5.9458,5.9483,5.9483,5.9483,5.9483,5.9483,5.9483,5.9483,5.9483,5.9483,5.9483,4.959,4.959,4.959,4.959,4.959,4.959,4.959,4.959,4.959,4.959,0.0,0.0,0.0,0.0,0.0,0.0,4.959,4.959,4.959,4.959,4.959,4.959,4.959,4.9866,5.0494,5.1297,5.2076,5.2879,5.2929,5.2929,5.2929,5.2929,5.2929,5.2929,5.2929,5.2929,5.2929,5.2929,5.2929,5.2929,5.2929,5.308,5.3381,5.3381,5.3557,5.3884,5.3884,5.3884,5.3884,5.3884,5.3884,5.3884,5.3884,5.3482,5.2955,5.3256,5.3381,5.3432,5.3758,5.3884,5.3909,5.4135,5.4361,5.4637,5.4938,5.5039,5.5114,5.544,5.5691,5.5867,5.5867,5.6043,5.6219,5.6219,5.6219,5.6219,5.6219,5.6219,5.6219,5.6219,5.6219,5.6219,5.6219,5.6219,5.6219,5.6219,5.647,5.6696,5.6696,5.7198,5.765,5.7976,5.8227,5.8604,5.9131,5.9156,5.9257,5.9483,5.9483,5.9483,5.9483,5.9483,5.9483,5.9483,5.9483,5.9483,5.9483,5.9483,5.9483,5.9483,5.9483,5.9483,5.0067,5.0067,5.0067,5.0067,4.9941,4.9816,4.9816,4.9715,4.959,4.959,4.959,0.0,0.0,0.0,4.959,4.959,0.0,4.959,4.959,4.959,4.959,4.959,4.9715,5.0218,5.1197,5.1774,5.2327,5.2879,5.2929,5.2929,5.2929,5.2929,5.2929,5.2929,5.2929,5.2929,5.2929,5.308,5.313,5.313,5.3306,5.3582,5.3934,5.3934,5.416,5.4561,5.4561,5.4561,5.4561,5.4561,5.4561,5.4561,5.4561,5.4084,5.3406,5.3808,5.3934,5.4009,5.4411,5.4662,5.4787,5.4787,5.4888,5.5089,5.5491,5.5616,5.5691,5.6093,5.6219,5.6219,5.6219,5.6219,5.6219,5.6219,5.6219,5.6219,5.6219,5.6219,5.6219,5.6219,5.6219,5.6269,5.642,5.6319,5.6269,5.642,5.6771,5.7097,5.7248,5.7775,5.8278,5.8679,5.8855,5.9081,5.9458,5.9483,5.9483,5.9483,5.9483,5.9483,5.9483,5.9483,5.9483,5.9483,5.9483,5.9483,5.9483,5.9483,5.9483,5.9483,5.9483,5.9483,5.1222,5.1222,5.1222,5.1222,5.082,5.0393,5.0393,4.9967,4.959,4.959,4.959,4.959,4.959,4.959,0.0,0.0,0.0,0.0,0.0,4.959,4.959,4.959,5.0067,5.0619,5.1222,5.1774,5.2327,5.2879,5.2929,5.2929,5.2929,5.2929,5.2929,5.2929,5.2929,5.2929,5.2929,5.3432,5.3683,5.3683,5.4235,5.4511,5.4536,5.4536,5.4536,5.4561,5.4561,5.4561,5.4561,5.4561,5.4561,5.4561,5.4561,5.4536,5.4511,5.4536,5.4536,5.4536,5.4561,5.4913,5.5365,5.5365,5.5717,5.6168,5.6168,5.6194,5.6194,5.6219,5.6219,5.6219,5.6219,5.6219,5.6219,5.6219,5.6219,5.6219,5.6219,5.6219,5.6219,5.6219,5.6219,5.6369,5.6922,5.657,5.6394,5.6922,5.7022,5.7223,5.7801,5.8353,5.8704,5.873,5.9156,5.9483,5.9483,5.9483,5.9483,5.9483,5.9483,5.9483,5.9483,5.9483,5.9483,5.9483,5.9483,5.9483,5.9483,5.9483,5.9483,5.9483,5.9483,5.9483,5.1272,5.1272,5.1272,5.1272,5.1147,5.0996,5.0996,5.0845,5.072,5.072,5.072,5.072,5.072,5.072,0.0,0.0,0.0,0.0,0.0,5.0142,5.0293,5.067,5.087,5.1071,5.1272,5.2126,5.2729,5.2904,5.2929,5.2929,5.2929,5.2929,5.2929,5.2929,5.2929,5.308,5.3432,5.3607,5.3884,5.4285,5.4461,5.4762,5.5114,5.5114,5.5315,5.5641,5.5641,5.5641,5.5641,5.5641,5.5641,5.5641,5.5641,5.5641,5.5616,5.5239,5.5114,5.5164,5.5541,5.5767,5.5942,5.5942,5.6068,5.6219,5.6219,5.6219,5.6219,5.6219,5.6219,5.6219,5.6219,5.6219,5.6219,5.6219,5.6219,5.6219,5.6219,5.6219,5.6219,5.6219,5.652,5.6821,5.6997,5.7198,5.7399,5.7575,5.7926,5.8227,5.8403,5.8905,5.9232,5.9232,5.9382,5.9483,5.9483,5.9483,5.9483,5.9483,5.9483,5.9483,5.9483,5.9483,5.9483,5.9483,5.9859,6.0035,6.0035,6.0437,6.0613,6.0613,6.0613,6.0211,5.1875,5.1875,5.1875,5.1875,5.1724,5.1574,5.1574,5.1423,5.1272,5.1272,5.1272,5.1272,5.1272,5.1272,0.0,0.0,0.0,0.0,0.0,5.072,5.087,5.1247,5.1448,5.1574,5.1574,5.2402,5.2929,5.2929,5.2929,5.2929,5.2929,5.2929,5.2929,5.2929,5.3105,5.3356,5.3708,5.411,5.4486,5.4863,5.5064,5.534,5.5691,5.5691,5.5867,5.6219,5.6219,5.6219,5.6219,5.6219,5.6219,5.6219,5.6219,5.6219,5.6168,5.5817,5.5691,5.5742,5.6093,5.6219,5.6219,5.6219,5.6219,5.6219,5.6219,5.6219,5.6219,5.6219,5.6219,5.6219,5.6219,5.6219,5.6219,5.6219,5.6219,5.6219,5.6219,5.6369,5.6495,5.6495,5.6972,5.7399,5.76,5.7951,5.8202,5.8202,5.8504,5.878,5.8981,5.9282,5.9483,5.9483,5.9483,5.9483,5.9483,5.9483,5.9483,5.9483,5.9483,5.9583,5.9784,5.9784,5.9985,6.0387,6.0537,6.0713,6.0914,6.109,6.119,6.119,6.119,6.0788]}]]